<?xml version='1.0' encoding='UTF-8'?><gpx version="1.1" creator="JPX - https://github.com/jenetics/jpx" xmlns="http://www.topografix.com/GPX/1/1"><trk><trkseg><trkpt lat="45.3736519" lon="8.078787"><ele>254.0</ele><time>2026-04-29T16:39:18.069Z</time></trkpt><trkpt lat="45.3736974" lon="8.0787068"><ele>253.99999999999997</ele><time>2026-04-29T16:39:21.076Z</time></trkpt><trkpt lat="45.373637" lon="8.0785948"><ele>253.99999999999997</ele><time>2026-04-29T16:39:23.074Z</time></trkpt><trkpt lat="45.3735409" lon="8.0785391"><ele>254.0</ele><time>2026-04-29T16:39:24.072Z</time></trkpt><trkpt lat="45.3734245" lon="8.0784764"><ele>254.0</ele><time>2026-04-29T16:39:25.075Z</time></trkpt><trkpt lat="45.3733002" lon="8.0784027"><ele>254.0</ele><time>2026-04-29T16:39:26.074Z</time></trkpt><trkpt lat="45.373165" lon="8.0783188"><ele>254.0</ele><time>2026-04-29T16:39:27.074Z</time></trkpt><trkpt lat="45.3730207" lon="8.078235"><ele>254.0</ele><time>2026-04-29T16:39:28.077Z</time></trkpt><trkpt lat="45.3728712" lon="8.0781524"><ele>254.0</ele><time>2026-04-29T16:39:29.073Z</time></trkpt><trkpt lat="45.3727308" lon="8.0780792"><ele>254.0</ele><time>2026-04-29T16:39:30.079Z</time></trkpt><trkpt lat="45.372601" lon="8.0780221"><ele>254.0</ele><time>2026-04-29T16:39:31.095Z</time></trkpt><trkpt lat="45.3724761" lon="8.0779844"><ele>254.0</ele><time>2026-04-29T16:39:32.093Z</time></trkpt><trkpt lat="45.3723522" lon="8.0779608"><ele>254.0</ele><time>2026-04-29T16:39:33.09Z</time></trkpt><trkpt lat="45.3722311" lon="8.0779479"><ele>253.99999999999997</ele><time>2026-04-29T16:39:34.093Z</time></trkpt><trkpt lat="45.372116" lon="8.0779373"><ele>253.99999999999997</ele><time>2026-04-29T16:39:35.092Z</time></trkpt><trkpt lat="45.3720098" lon="8.077924"><ele>254.0</ele><time>2026-04-29T16:39:36.097Z</time></trkpt><trkpt lat="45.3719152" lon="8.0778914"><ele>254.0</ele><time>2026-04-29T16:39:37.077Z</time></trkpt><trkpt lat="45.3718323" lon="8.0778271"><ele>253.75</ele><time>2026-04-29T16:39:38.096Z</time></trkpt><trkpt lat="45.3717604" lon="8.0777195"><ele>253.5</ele><time>2026-04-29T16:39:39.092Z</time></trkpt><trkpt lat="45.3716915" lon="8.0775848"><ele>253.25</ele><time>2026-04-29T16:39:40.078Z</time></trkpt><trkpt lat="45.3716077" lon="8.077452"><ele>253.0</ele><time>2026-04-29T16:39:41.077Z</time></trkpt><trkpt lat="45.3714953" lon="8.0773454"><ele>252.33333333333331</ele><time>2026-04-29T16:39:42.078Z</time></trkpt><trkpt lat="45.3713496" lon="8.0772593"><ele>251.66666666666669</ele><time>2026-04-29T16:39:43.078Z</time></trkpt><trkpt lat="45.3711956" lon="8.0771848"><ele>251.0</ele><time>2026-04-29T16:39:44.077Z</time></trkpt><trkpt lat="45.3710532" lon="8.0771171"><ele>251.0</ele><time>2026-04-29T16:39:45.076Z</time></trkpt><trkpt lat="45.3709183" lon="8.077053"><ele>251.0</ele><time>2026-04-29T16:39:46.077Z</time></trkpt><trkpt lat="45.3707977" lon="8.0769897"><ele>251.0</ele><time>2026-04-29T16:39:47.074Z</time></trkpt><trkpt lat="45.3706877" lon="8.0769377"><ele>251.0</ele><time>2026-04-29T16:39:48.075Z</time></trkpt><trkpt lat="45.3705913" lon="8.0768879"><ele>251.0</ele><time>2026-04-29T16:39:49.075Z</time></trkpt><trkpt lat="45.3705129" lon="8.0768424"><ele>251.0</ele><time>2026-04-29T16:39:50.074Z</time></trkpt><trkpt lat="45.3704396" lon="8.0767475"><ele>251.0</ele><time>2026-04-29T16:39:52.075Z</time></trkpt><trkpt lat="45.3705" lon="8.0765429"><ele>251.0</ele><time>2026-04-29T16:39:54.077Z</time></trkpt><trkpt lat="45.3705625" lon="8.0763702"><ele>252.0</ele><time>2026-04-29T16:39:55.076Z</time></trkpt><trkpt lat="45.370633" lon="8.076162"><ele>253.0</ele><time>2026-04-29T16:39:56.076Z</time></trkpt><trkpt lat="45.3707016" lon="8.0759419"><ele>254.0</ele><time>2026-04-29T16:39:57.076Z</time></trkpt><trkpt lat="45.3707658" lon="8.0757352"><ele>254.25</ele><time>2026-04-29T16:39:58.08Z</time></trkpt><trkpt lat="45.3708201" lon="8.0755444"><ele>254.5</ele><time>2026-04-29T16:39:59.074Z</time></trkpt><trkpt lat="45.3708691" lon="8.0753827"><ele>254.75</ele><time>2026-04-29T16:40:00.076Z</time></trkpt><trkpt lat="45.3709136" lon="8.0752375"><ele>255.0</ele><time>2026-04-29T16:40:01.076Z</time></trkpt><trkpt lat="45.37095" lon="8.0751121"><ele>255.0</ele><time>2026-04-29T16:40:02.076Z</time></trkpt><trkpt lat="45.3709773" lon="8.0750016"><ele>255.0</ele><time>2026-04-29T16:40:03.078Z</time></trkpt><trkpt lat="45.3709978" lon="8.0749139"><ele>255.0</ele><time>2026-04-29T16:40:04.075Z</time></trkpt><trkpt lat="45.3710312" lon="8.0748303"><ele>255.0</ele><time>2026-04-29T16:40:06.077Z</time></trkpt><trkpt lat="45.3711171" lon="8.0747609"><ele>255.0</ele><time>2026-04-29T16:40:08.076Z</time></trkpt><trkpt lat="45.371205" lon="8.0747212"><ele>255.0</ele><time>2026-04-29T16:40:09.076Z</time></trkpt><trkpt lat="45.3713247" lon="8.0746648"><ele>255.0</ele><time>2026-04-29T16:40:10.077Z</time></trkpt><trkpt lat="45.3714679" lon="8.0745925"><ele>255.0</ele><time>2026-04-29T16:40:11.076Z</time></trkpt><trkpt lat="45.3716245" lon="8.0745158"><ele>255.0</ele><time>2026-04-29T16:40:12.077Z</time></trkpt><trkpt lat="45.3717752" lon="8.0744406"><ele>255.0</ele><time>2026-04-29T16:40:13.079Z</time></trkpt><trkpt lat="45.3719146" lon="8.0743668"><ele>255.0</ele><time>2026-04-29T16:40:14.08Z</time></trkpt><trkpt lat="45.3720524" lon="8.0742979"><ele>255.0</ele><time>2026-04-29T16:40:15.076Z</time></trkpt><trkpt lat="45.3721932" lon="8.0742279"><ele>255.0</ele><time>2026-04-29T16:40:16.076Z</time></trkpt><trkpt lat="45.3723411" lon="8.0741565"><ele>255.66666666666669</ele><time>2026-04-29T16:40:17.076Z</time></trkpt><trkpt lat="45.3724921" lon="8.0740811"><ele>256.33333333333337</ele><time>2026-04-29T16:40:18.077Z</time></trkpt><trkpt lat="45.3726466" lon="8.0740049"><ele>257.0</ele><time>2026-04-29T16:40:19.077Z</time></trkpt><trkpt lat="45.3728021" lon="8.0739265"><ele>257.0</ele><time>2026-04-29T16:40:20.076Z</time></trkpt><trkpt lat="45.3729485" lon="8.0738508"><ele>257.0</ele><time>2026-04-29T16:40:21.076Z</time></trkpt><trkpt lat="45.3730924" lon="8.0737763"><ele>257.0</ele><time>2026-04-29T16:40:22.075Z</time></trkpt><trkpt lat="45.3732403" lon="8.0737006"><ele>257.5</ele><time>2026-04-29T16:40:23.077Z</time></trkpt><trkpt lat="45.3733842" lon="8.0736294"><ele>258.0</ele><time>2026-04-29T16:40:24.074Z</time></trkpt><trkpt lat="45.373521" lon="8.0735601"><ele>258.5</ele><time>2026-04-29T16:40:25.078Z</time></trkpt><trkpt lat="45.3736531" lon="8.0734934"><ele>259.0</ele><time>2026-04-29T16:40:26.075Z</time></trkpt><trkpt lat="45.3737856" lon="8.0734287"><ele>259.25</ele><time>2026-04-29T16:40:27.074Z</time></trkpt><trkpt lat="45.3739125" lon="8.0733676"><ele>259.5</ele><time>2026-04-29T16:40:28.075Z</time></trkpt><trkpt lat="45.3740388" lon="8.0733063"><ele>259.75</ele><time>2026-04-29T16:40:29.075Z</time></trkpt><trkpt lat="45.3741629" lon="8.0732467"><ele>260.0</ele><time>2026-04-29T16:40:30.074Z</time></trkpt><trkpt lat="45.3742848" lon="8.0731872"><ele>260.0</ele><time>2026-04-29T16:40:31.076Z</time></trkpt><trkpt lat="45.3744062" lon="8.0731275"><ele>260.0</ele><time>2026-04-29T16:40:32.076Z</time></trkpt><trkpt lat="45.3745245" lon="8.0730667"><ele>260.0</ele><time>2026-04-29T16:40:33.08Z</time></trkpt><trkpt lat="45.3746368" lon="8.0730102"><ele>260.0</ele><time>2026-04-29T16:40:34.078Z</time></trkpt><trkpt lat="45.3747405" lon="8.0729583"><ele>260.5</ele><time>2026-04-29T16:40:35.076Z</time></trkpt><trkpt lat="45.3748345" lon="8.0729111"><ele>261.0</ele><time>2026-04-29T16:40:36.076Z</time></trkpt><trkpt lat="45.3749187" lon="8.0728681"><ele>261.5</ele><time>2026-04-29T16:40:37.077Z</time></trkpt><trkpt lat="45.3749916" lon="8.0728305"><ele>262.0</ele><time>2026-04-29T16:40:38.078Z</time></trkpt><trkpt lat="45.3750532" lon="8.0728003"><ele>262.5</ele><time>2026-04-29T16:40:39.078Z</time></trkpt><trkpt lat="45.3751442" lon="8.0727536"><ele>263.0</ele><time>2026-04-29T16:40:41.075Z</time></trkpt><trkpt lat="45.3752068" lon="8.0727083"><ele>263.0</ele><time>2026-04-29T16:40:44.075Z</time></trkpt><trkpt lat="45.3752686" lon="8.0726811"><ele>263.0</ele><time>2026-04-29T16:40:47.074Z</time></trkpt><trkpt lat="45.3753538" lon="8.0726515"><ele>263.0</ele><time>2026-04-29T16:40:50.075Z</time></trkpt><trkpt lat="45.3754401" lon="8.0726159"><ele>263.0</ele><time>2026-04-29T16:40:53.081Z</time></trkpt><trkpt lat="45.3755044" lon="8.0725845"><ele>263.0</ele><time>2026-04-29T16:40:55.067Z</time></trkpt><trkpt lat="45.375579" lon="8.0725442"><ele>263.0</ele><time>2026-04-29T16:40:57.075Z</time></trkpt><trkpt lat="45.3756539" lon="8.0725029"><ele>263.1428571428571</ele><time>2026-04-29T16:40:59.075Z</time></trkpt><trkpt lat="45.375718" lon="8.0724687"><ele>263.2857142857143</ele><time>2026-04-29T16:41:01.078Z</time></trkpt><trkpt lat="45.3757883" lon="8.0724289"><ele>263.42857142857144</ele><time>2026-04-29T16:41:05.077Z</time></trkpt><trkpt lat="45.3758528" lon="8.0724068"><ele>263.57142857142856</ele><time>2026-04-29T16:41:10.079Z</time></trkpt><trkpt lat="45.3759187" lon="8.0723649"><ele>263.7142857142857</ele><time>2026-04-29T16:41:14.076Z</time></trkpt><trkpt lat="45.3760033" lon="8.0723184"><ele>263.85714285714283</ele><time>2026-04-29T16:41:16.078Z</time></trkpt><trkpt lat="45.3760664" lon="8.0722825"><ele>264.0</ele><time>2026-04-29T16:41:17.076Z</time></trkpt><trkpt lat="45.376157" lon="8.07224"><ele>264.25</ele><time>2026-04-29T16:41:18.075Z</time></trkpt><trkpt lat="45.3762613" lon="8.0721838"><ele>264.5</ele><time>2026-04-29T16:41:19.076Z</time></trkpt><trkpt lat="45.3763863" lon="8.072121"><ele>264.75</ele><time>2026-04-29T16:41:20.077Z</time></trkpt><trkpt lat="45.3765296" lon="8.0720517"><ele>265.0</ele><time>2026-04-29T16:41:21.077Z</time></trkpt><trkpt lat="45.3766889" lon="8.0719755"><ele>265.3333333333333</ele><time>2026-04-29T16:41:22.077Z</time></trkpt><trkpt lat="45.3768604" lon="8.0718898"><ele>265.6666666666667</ele><time>2026-04-29T16:41:23.098Z</time></trkpt><trkpt lat="45.3770401" lon="8.0717971"><ele>266.0</ele><time>2026-04-29T16:41:24.09Z</time></trkpt><trkpt lat="45.3772323" lon="8.0716974"><ele>266.6666666666667</ele><time>2026-04-29T16:41:25.088Z</time></trkpt><trkpt lat="45.3774305" lon="8.0715998"><ele>267.3333333333333</ele><time>2026-04-29T16:41:26.092Z</time></trkpt><trkpt lat="45.3776173" lon="8.0715071"><ele>268.0</ele><time>2026-04-29T16:41:27.09Z</time></trkpt><trkpt lat="45.3777925" lon="8.0714168"><ele>268.0</ele><time>2026-04-29T16:41:28.091Z</time></trkpt><trkpt lat="45.3779595" lon="8.0713274"><ele>268.0</ele><time>2026-04-29T16:41:29.09Z</time></trkpt><trkpt lat="45.3781258" lon="8.0712301"><ele>268.0</ele><time>2026-04-29T16:41:30.091Z</time></trkpt><trkpt lat="45.3782885" lon="8.0711159"><ele>268.3333333333333</ele><time>2026-04-29T16:41:31.092Z</time></trkpt><trkpt lat="45.3784467" lon="8.0709753"><ele>268.6666666666667</ele><time>2026-04-29T16:41:32.095Z</time></trkpt><trkpt lat="45.3786022" lon="8.0708057"><ele>269.0</ele><time>2026-04-29T16:41:33.101Z</time></trkpt><trkpt lat="45.3787678" lon="8.0706241"><ele>270.0</ele><time>2026-04-29T16:41:34.095Z</time></trkpt><trkpt lat="45.3789359" lon="8.0704532"><ele>271.0</ele><time>2026-04-29T16:41:35.1Z</time></trkpt><trkpt lat="45.3791059" lon="8.0703054"><ele>272.0</ele><time>2026-04-29T16:41:36.096Z</time></trkpt><trkpt lat="45.3792829" lon="8.0701921"><ele>272.0</ele><time>2026-04-29T16:41:37.095Z</time></trkpt><trkpt lat="45.3794632" lon="8.0701266"><ele>272.0</ele><time>2026-04-29T16:41:38.095Z</time></trkpt><trkpt lat="45.3796529" lon="8.0701051"><ele>272.0</ele><time>2026-04-29T16:41:39.094Z</time></trkpt><trkpt lat="45.3798458" lon="8.0701183"><ele>272.6666666666667</ele><time>2026-04-29T16:41:40.096Z</time></trkpt><trkpt lat="45.3800411" lon="8.0701563"><ele>273.3333333333333</ele><time>2026-04-29T16:41:41.091Z</time></trkpt><trkpt lat="45.3802326" lon="8.0701972"><ele>274.0</ele><time>2026-04-29T16:41:42.09Z</time></trkpt><trkpt lat="45.3804211" lon="8.070239"><ele>273.66666666666663</ele><time>2026-04-29T16:41:43.096Z</time></trkpt><trkpt lat="45.3806022" lon="8.070276"><ele>273.3333333333333</ele><time>2026-04-29T16:41:44.091Z</time></trkpt><trkpt lat="45.3807768" lon="8.0702989"><ele>273.0</ele><time>2026-04-29T16:41:45.093Z</time></trkpt><trkpt lat="45.380952" lon="8.070294"><ele>273.0</ele><time>2026-04-29T16:41:46.092Z</time></trkpt><trkpt lat="45.3811315" lon="8.0702537"><ele>273.0</ele><time>2026-04-29T16:41:47.092Z</time></trkpt><trkpt lat="45.381317" lon="8.0701801"><ele>273.0</ele><time>2026-04-29T16:41:48.091Z</time></trkpt><trkpt lat="45.3814927" lon="8.0700615"><ele>273.3333333333333</ele><time>2026-04-29T16:41:49.091Z</time></trkpt><trkpt lat="45.3816582" lon="8.0699048"><ele>273.66666666666663</ele><time>2026-04-29T16:41:50.093Z</time></trkpt><trkpt lat="45.3818174" lon="8.069725"><ele>274.0</ele><time>2026-04-29T16:41:51.093Z</time></trkpt><trkpt lat="45.3819718" lon="8.0695345"><ele>274.0</ele><time>2026-04-29T16:41:52.094Z</time></trkpt><trkpt lat="45.3821273" lon="8.069346"><ele>274.0</ele><time>2026-04-29T16:41:53.097Z</time></trkpt><trkpt lat="45.3822801" lon="8.0691639"><ele>274.0</ele><time>2026-04-29T16:41:54.092Z</time></trkpt><trkpt lat="45.3824286" lon="8.0689852"><ele>274.3333333333333</ele><time>2026-04-29T16:41:55.094Z</time></trkpt><trkpt lat="45.3825778" lon="8.0688115"><ele>274.6666666666667</ele><time>2026-04-29T16:41:56.093Z</time></trkpt><trkpt lat="45.3827263" lon="8.0686449"><ele>275.0</ele><time>2026-04-29T16:41:57.095Z</time></trkpt><trkpt lat="45.382879" lon="8.06849"><ele>275.6666666666667</ele><time>2026-04-29T16:41:58.094Z</time></trkpt><trkpt lat="45.3830335" lon="8.0683454"><ele>276.3333333333333</ele><time>2026-04-29T16:41:59.093Z</time></trkpt><trkpt lat="45.3831882" lon="8.0682118"><ele>277.0</ele><time>2026-04-29T16:42:00.093Z</time></trkpt><trkpt lat="45.3833457" lon="8.0680813"><ele>278.0</ele><time>2026-04-29T16:42:01.094Z</time></trkpt><trkpt lat="45.3835073" lon="8.0679516"><ele>279.0</ele><time>2026-04-29T16:42:02.095Z</time></trkpt><trkpt lat="45.3836695" lon="8.0678213"><ele>280.0</ele><time>2026-04-29T16:42:03.102Z</time></trkpt><trkpt lat="45.3838305" lon="8.0676865"><ele>280.3333333333333</ele><time>2026-04-29T16:42:04.096Z</time></trkpt><trkpt lat="45.3839929" lon="8.0675507"><ele>280.6666666666667</ele><time>2026-04-29T16:42:05.093Z</time></trkpt><trkpt lat="45.3841577" lon="8.0674132"><ele>281.0</ele><time>2026-04-29T16:42:06.097Z</time></trkpt><trkpt lat="45.3843219" lon="8.0672748"><ele>280.33333333333337</ele><time>2026-04-29T16:42:07.096Z</time></trkpt><trkpt lat="45.384487" lon="8.0671351"><ele>279.6666666666667</ele><time>2026-04-29T16:42:08.096Z</time></trkpt><trkpt lat="45.384653" lon="8.0669961"><ele>279.0</ele><time>2026-04-29T16:42:09.094Z</time></trkpt><trkpt lat="45.3848191" lon="8.0668581"><ele>280.3333333333333</ele><time>2026-04-29T16:42:10.098Z</time></trkpt><trkpt lat="45.384984" lon="8.0667221"><ele>281.66666666666663</ele><time>2026-04-29T16:42:11.092Z</time></trkpt><trkpt lat="45.385149" lon="8.0665874"><ele>283.0</ele><time>2026-04-29T16:42:12.093Z</time></trkpt><trkpt lat="45.3853152" lon="8.0664531"><ele>283.0</ele><time>2026-04-29T16:42:13.1Z</time></trkpt><trkpt lat="45.3854792" lon="8.0663163"><ele>283.0</ele><time>2026-04-29T16:42:14.094Z</time></trkpt><trkpt lat="45.3856426" lon="8.0661774"><ele>283.0</ele><time>2026-04-29T16:42:15.095Z</time></trkpt><trkpt lat="45.3858062" lon="8.0660381"><ele>284.0</ele><time>2026-04-29T16:42:16.094Z</time></trkpt><trkpt lat="45.3859663" lon="8.0659025"><ele>285.0</ele><time>2026-04-29T16:42:17.086Z</time></trkpt><trkpt lat="45.3861124" lon="8.0657765"><ele>286.0</ele><time>2026-04-29T16:42:18.094Z</time></trkpt><trkpt lat="45.3862393" lon="8.0656674"><ele>286.8</ele><time>2026-04-29T16:42:19.095Z</time></trkpt><trkpt lat="45.3863139" lon="8.0655786"><ele>287.6</ele><time>2026-04-29T16:42:20.094Z</time></trkpt><trkpt lat="45.3864234" lon="8.0655108"><ele>288.4</ele><time>2026-04-29T16:42:21.096Z</time></trkpt><trkpt lat="45.3865331" lon="8.0654765"><ele>289.2</ele><time>2026-04-29T16:42:22.093Z</time></trkpt><trkpt lat="45.386644" lon="8.0654682"><ele>290.0</ele><time>2026-04-29T16:42:23.077Z</time></trkpt><trkpt lat="45.386761" lon="8.0654804"><ele>290.25</ele><time>2026-04-29T16:42:24.094Z</time></trkpt><trkpt lat="45.3868918" lon="8.0655037"><ele>290.5</ele><time>2026-04-29T16:42:25.086Z</time></trkpt><trkpt lat="45.3870428" lon="8.0655347"><ele>290.75</ele><time>2026-04-29T16:42:26.096Z</time></trkpt><trkpt lat="45.3872013" lon="8.0655618"><ele>291.0</ele><time>2026-04-29T16:42:27.094Z</time></trkpt><trkpt lat="45.3873516" lon="8.0655735"><ele>291.5</ele><time>2026-04-29T16:42:28.079Z</time></trkpt><trkpt lat="45.3874965" lon="8.0655629"><ele>292.0</ele><time>2026-04-29T16:42:29.077Z</time></trkpt><trkpt lat="45.3876341" lon="8.0655159"><ele>292.5</ele><time>2026-04-29T16:42:30.09Z</time></trkpt><trkpt lat="45.3877766" lon="8.0654311"><ele>293.0</ele><time>2026-04-29T16:42:31.085Z</time></trkpt><trkpt lat="45.3878975" lon="8.0652977"><ele>293.0</ele><time>2026-04-29T16:42:32.087Z</time></trkpt><trkpt lat="45.3880041" lon="8.0651449"><ele>293.0</ele><time>2026-04-29T16:42:33.075Z</time></trkpt><trkpt lat="45.3881127" lon="8.0649896"><ele>293.0</ele><time>2026-04-29T16:42:34.081Z</time></trkpt><trkpt lat="45.3883578" lon="8.0647135"><ele>294.33333333333337</ele><time>2026-04-29T16:42:36.08Z</time></trkpt><trkpt lat="45.3884953" lon="8.0646074"><ele>295.6666666666667</ele><time>2026-04-29T16:42:37.078Z</time></trkpt><trkpt lat="45.38865" lon="8.0645134"><ele>297.0</ele><time>2026-04-29T16:42:38.09Z</time></trkpt><trkpt lat="45.3888172" lon="8.064426"><ele>297.6666666666667</ele><time>2026-04-29T16:42:39.091Z</time></trkpt><trkpt lat="45.3889929" lon="8.0643249"><ele>298.33333333333337</ele><time>2026-04-29T16:42:40.079Z</time></trkpt><trkpt lat="45.3891824" lon="8.0642135"><ele>299.0</ele><time>2026-04-29T16:42:41.093Z</time></trkpt><trkpt lat="45.3893782" lon="8.0640845"><ele>299.0</ele><time>2026-04-29T16:42:42.083Z</time></trkpt><trkpt lat="45.3895801" lon="8.0639497"><ele>299.0</ele><time>2026-04-29T16:42:43.08Z</time></trkpt><trkpt lat="45.3897759" lon="8.0638189"><ele>299.0</ele><time>2026-04-29T16:42:44.085Z</time></trkpt><trkpt lat="45.3899614" lon="8.0637002"><ele>298.0</ele><time>2026-04-29T16:42:45.078Z</time></trkpt><trkpt lat="45.3901337" lon="8.063604"><ele>297.0</ele><time>2026-04-29T16:42:46.092Z</time></trkpt><trkpt lat="45.3902925" lon="8.0635422"><ele>296.0</ele><time>2026-04-29T16:42:47.086Z</time></trkpt><trkpt lat="45.3904422" lon="8.0635236"><ele>296.33333333333337</ele><time>2026-04-29T16:42:48.078Z</time></trkpt><trkpt lat="45.3906004" lon="8.0635183"><ele>296.6666666666667</ele><time>2026-04-29T16:42:49.076Z</time></trkpt><trkpt lat="45.3907645" lon="8.063484"><ele>297.0</ele><time>2026-04-29T16:42:50.088Z</time></trkpt><trkpt lat="45.3909339" lon="8.0634223"><ele>297.0</ele><time>2026-04-29T16:42:51.09Z</time></trkpt><trkpt lat="45.3911031" lon="8.0633275"><ele>297.0</ele><time>2026-04-29T16:42:52.086Z</time></trkpt><trkpt lat="45.3912686" lon="8.0632058"><ele>297.0</ele><time>2026-04-29T16:42:53.08Z</time></trkpt><trkpt lat="45.3914331" lon="8.0630639"><ele>299.3333333333333</ele><time>2026-04-29T16:42:54.089Z</time></trkpt><trkpt lat="45.39158" lon="8.0629056"><ele>301.66666666666663</ele><time>2026-04-29T16:42:55.086Z</time></trkpt><trkpt lat="45.3917068" lon="8.0627485"><ele>304.0</ele><time>2026-04-29T16:42:56.088Z</time></trkpt><trkpt lat="45.3918078" lon="8.0625777"><ele>304.66666666666663</ele><time>2026-04-29T16:42:57.094Z</time></trkpt><trkpt lat="45.3918808" lon="8.0623962"><ele>305.3333333333333</ele><time>2026-04-29T16:42:58.086Z</time></trkpt><trkpt lat="45.3919338" lon="8.0621896"><ele>306.0</ele><time>2026-04-29T16:42:59.09Z</time></trkpt><trkpt lat="45.391969" lon="8.0619711"><ele>306.0</ele><time>2026-04-29T16:43:00.094Z</time></trkpt><trkpt lat="45.3920057" lon="8.0617638"><ele>306.0</ele><time>2026-04-29T16:43:01.091Z</time></trkpt><trkpt lat="45.3920513" lon="8.0615736"><ele>306.0</ele><time>2026-04-29T16:43:02.083Z</time></trkpt><trkpt lat="45.3921056" lon="8.061407"><ele>306.0</ele><time>2026-04-29T16:43:03.073Z</time></trkpt><trkpt lat="45.3921648" lon="8.0612678"><ele>305.8</ele><time>2026-04-29T16:43:04.084Z</time></trkpt><trkpt lat="45.3922222" lon="8.0611478"><ele>305.6</ele><time>2026-04-29T16:43:05.078Z</time></trkpt><trkpt lat="45.3922826" lon="8.0610447"><ele>305.4</ele><time>2026-04-29T16:43:06.092Z</time></trkpt><trkpt lat="45.3923399" lon="8.0609507"><ele>305.2</ele><time>2026-04-29T16:43:07.084Z</time></trkpt><trkpt lat="45.3923989" lon="8.0608589"><ele>305.0</ele><time>2026-04-29T16:43:08.083Z</time></trkpt><trkpt lat="45.3924602" lon="8.0607616"><ele>304.83333333333337</ele><time>2026-04-29T16:43:09.083Z</time></trkpt><trkpt lat="45.3925262" lon="8.0606636"><ele>304.6666666666667</ele><time>2026-04-29T16:43:10.082Z</time></trkpt><trkpt lat="45.3925961" lon="8.0605723"><ele>304.5</ele><time>2026-04-29T16:43:11.073Z</time></trkpt><trkpt lat="45.3926737" lon="8.0604996"><ele>304.3333333333333</ele><time>2026-04-29T16:43:12.082Z</time></trkpt><trkpt lat="45.3927462" lon="8.0604474"><ele>304.16666666666663</ele><time>2026-04-29T16:43:13.085Z</time></trkpt><trkpt lat="45.3928085" lon="8.0604201"><ele>304.0</ele><time>2026-04-29T16:43:14.085Z</time></trkpt><trkpt lat="45.3928633" lon="8.0603697"><ele>304.0</ele><time>2026-04-29T16:43:16.082Z</time></trkpt><trkpt lat="45.3928092" lon="8.060314"><ele>304.0</ele><time>2026-04-29T16:43:18.075Z</time></trkpt><trkpt lat="45.3927262" lon="8.0603302"><ele>304.0</ele><time>2026-04-29T16:43:20.074Z</time></trkpt><trkpt lat="45.3926602" lon="8.0603458"><ele>304.0</ele><time>2026-04-29T16:44:13.071Z</time></trkpt><trkpt lat="45.3925967" lon="8.0602805"><ele>304.0</ele><time>2026-04-29T16:44:15.077Z</time></trkpt><trkpt lat="45.3925281" lon="8.0601402"><ele>304.0</ele><time>2026-04-29T16:44:17.078Z</time></trkpt><trkpt lat="45.3925064" lon="8.0600544"><ele>303.66666666666663</ele><time>2026-04-29T16:44:18.087Z</time></trkpt><trkpt lat="45.3924544" lon="8.0598985"><ele>303.3333333333333</ele><time>2026-04-29T16:44:20.085Z</time></trkpt><trkpt lat="45.3924213" lon="8.0598178"><ele>303.0</ele><time>2026-04-29T16:44:21.081Z</time></trkpt><trkpt lat="45.3923848" lon="8.0597249"><ele>302.6666666666667</ele><time>2026-04-29T16:44:22.083Z</time></trkpt><trkpt lat="45.3923441" lon="8.0596232"><ele>302.33333333333337</ele><time>2026-04-29T16:44:23.08Z</time></trkpt><trkpt lat="45.3923011" lon="8.0595111"><ele>302.0</ele><time>2026-04-29T16:44:24.082Z</time></trkpt><trkpt lat="45.3922526" lon="8.0593957"><ele>302.0</ele><time>2026-04-29T16:44:25.082Z</time></trkpt><trkpt lat="45.3921993" lon="8.0592828"><ele>302.0</ele><time>2026-04-29T16:44:26.082Z</time></trkpt><trkpt lat="45.3921532" lon="8.0591687"><ele>302.0</ele><time>2026-04-29T16:44:27.086Z</time></trkpt><trkpt lat="45.3921085" lon="8.059052"><ele>302.0</ele><time>2026-04-29T16:44:28.093Z</time></trkpt><trkpt lat="45.3920629" lon="8.0589367"><ele>302.0</ele><time>2026-04-29T16:44:29.081Z</time></trkpt><trkpt lat="45.3920128" lon="8.0588244"><ele>302.8</ele><time>2026-04-29T16:44:30.075Z</time></trkpt><trkpt lat="45.3919631" lon="8.0587081"><ele>303.6</ele><time>2026-04-29T16:44:31.09Z</time></trkpt><trkpt lat="45.3919103" lon="8.0585895"><ele>304.40000000000003</ele><time>2026-04-29T16:44:32.087Z</time></trkpt><trkpt lat="45.3918555" lon="8.0584721"><ele>305.2</ele><time>2026-04-29T16:44:33.086Z</time></trkpt><trkpt lat="45.3918057" lon="8.0583547"><ele>306.0</ele><time>2026-04-29T16:44:34.086Z</time></trkpt><trkpt lat="45.3917684" lon="8.0582307"><ele>306.0</ele><time>2026-04-29T16:44:35.077Z</time></trkpt><trkpt lat="45.3917464" lon="8.0580937"><ele>306.0</ele><time>2026-04-29T16:44:36.096Z</time></trkpt><trkpt lat="45.3917371" lon="8.0579455"><ele>306.0</ele><time>2026-04-29T16:44:37.08Z</time></trkpt><trkpt lat="45.3917335" lon="8.0577993"><ele>306.0</ele><time>2026-04-29T16:44:38.086Z</time></trkpt><trkpt lat="45.3917279" lon="8.0576598"><ele>306.0</ele><time>2026-04-29T16:44:39.08Z</time></trkpt><trkpt lat="45.3917204" lon="8.0575271"><ele>305.40000000000003</ele><time>2026-04-29T16:44:40.083Z</time></trkpt><trkpt lat="45.3917071" lon="8.057403"><ele>304.8</ele><time>2026-04-29T16:44:41.089Z</time></trkpt><trkpt lat="45.3916857" lon="8.0572845"><ele>304.20000000000005</ele><time>2026-04-29T16:44:42.088Z</time></trkpt><trkpt lat="45.3916587" lon="8.0571472"><ele>303.6</ele><time>2026-04-29T16:44:43.088Z</time></trkpt><trkpt lat="45.3916364" lon="8.0569975"><ele>303.0</ele><time>2026-04-29T16:44:44.084Z</time></trkpt><trkpt lat="45.3916207" lon="8.0568406"><ele>303.0</ele><time>2026-04-29T16:44:45.087Z</time></trkpt><trkpt lat="45.3916054" lon="8.0566898"><ele>303.0</ele><time>2026-04-29T16:44:46.084Z</time></trkpt><trkpt lat="45.3915834" lon="8.0565453"><ele>303.0</ele><time>2026-04-29T16:44:47.077Z</time></trkpt><trkpt lat="45.391554" lon="8.0564102"><ele>303.0</ele><time>2026-04-29T16:44:48.083Z</time></trkpt><trkpt lat="45.3915224" lon="8.0562937"><ele>303.0</ele><time>2026-04-29T16:44:49.097Z</time></trkpt><trkpt lat="45.3914956" lon="8.0561906"><ele>302.5</ele><time>2026-04-29T16:44:50.087Z</time></trkpt><trkpt lat="45.3914681" lon="8.0561003"><ele>302.0</ele><time>2026-04-29T16:44:51.089Z</time></trkpt><trkpt lat="45.3914344" lon="8.0560133"><ele>301.5</ele><time>2026-04-29T16:44:52.083Z</time></trkpt><trkpt lat="45.3914027" lon="8.0559305"><ele>301.0</ele><time>2026-04-29T16:44:53.084Z</time></trkpt><trkpt lat="45.3913705" lon="8.0558396"><ele>300.5</ele><time>2026-04-29T16:44:54.081Z</time></trkpt><trkpt lat="45.3913408" lon="8.0557262"><ele>300.0</ele><time>2026-04-29T16:44:55.085Z</time></trkpt><trkpt lat="45.3913061" lon="8.0555925"><ele>303.4</ele><time>2026-04-29T16:44:56.081Z</time></trkpt><trkpt lat="45.3912716" lon="8.0554608"><ele>306.8</ele><time>2026-04-29T16:44:57.082Z</time></trkpt><trkpt lat="45.3912385" lon="8.0553342"><ele>310.2</ele><time>2026-04-29T16:44:58.079Z</time></trkpt><trkpt lat="45.3912148" lon="8.0552115"><ele>313.6</ele><time>2026-04-29T16:44:59.086Z</time></trkpt><trkpt lat="45.3911963" lon="8.0550771"><ele>317.0</ele><time>2026-04-29T16:45:00.074Z</time></trkpt><trkpt lat="45.3911786" lon="8.0549518"><ele>317.5</ele><time>2026-04-29T16:45:01.079Z</time></trkpt><trkpt lat="45.3911661" lon="8.0548369"><ele>318.0</ele><time>2026-04-29T16:45:02.072Z</time></trkpt><trkpt lat="45.3911594" lon="8.0547358"><ele>318.5</ele><time>2026-04-29T16:45:03.075Z</time></trkpt><trkpt lat="45.3911621" lon="8.0546324"><ele>319.0</ele><time>2026-04-29T16:45:04.077Z</time></trkpt><trkpt lat="45.3911727" lon="8.0545135"><ele>319.5</ele><time>2026-04-29T16:45:05.073Z</time></trkpt><trkpt lat="45.3911816" lon="8.0543788"><ele>320.0</ele><time>2026-04-29T16:45:06.068Z</time></trkpt><trkpt lat="45.3911895" lon="8.0542457"><ele>321.0</ele><time>2026-04-29T16:45:07.081Z</time></trkpt><trkpt lat="45.3911989" lon="8.0541176"><ele>322.0</ele><time>2026-04-29T16:45:08.074Z</time></trkpt><trkpt lat="45.3912154" lon="8.0539931"><ele>323.0</ele><time>2026-04-29T16:45:09.077Z</time></trkpt><trkpt lat="45.3912367" lon="8.0538665"><ele>324.0</ele><time>2026-04-29T16:45:10.074Z</time></trkpt><trkpt lat="45.3912566" lon="8.0537326"><ele>325.0</ele><time>2026-04-29T16:45:11.073Z</time></trkpt><trkpt lat="45.3912771" lon="8.0535938"><ele>325.0</ele><time>2026-04-29T16:45:12.077Z</time></trkpt><trkpt lat="45.3912977" lon="8.053457"><ele>325.0</ele><time>2026-04-29T16:45:13.072Z</time></trkpt><trkpt lat="45.3913136" lon="8.0533329"><ele>325.0</ele><time>2026-04-29T16:45:14.075Z</time></trkpt><trkpt lat="45.3913208" lon="8.0532195"><ele>325.0</ele><time>2026-04-29T16:45:15.075Z</time></trkpt><trkpt lat="45.3913239" lon="8.053102"><ele>325.0</ele><time>2026-04-29T16:45:16.072Z</time></trkpt><trkpt lat="45.3913236" lon="8.0529788"><ele>325.0</ele><time>2026-04-29T16:45:17.07Z</time></trkpt><trkpt lat="45.391326" lon="8.0528499"><ele>325.4</ele><time>2026-04-29T16:45:18.08Z</time></trkpt><trkpt lat="45.391329" lon="8.0527197"><ele>325.8</ele><time>2026-04-29T16:45:19.072Z</time></trkpt><trkpt lat="45.3913236" lon="8.0525876"><ele>326.20000000000005</ele><time>2026-04-29T16:45:20.074Z</time></trkpt><trkpt lat="45.3913069" lon="8.052446"><ele>326.6</ele><time>2026-04-29T16:45:21.076Z</time></trkpt><trkpt lat="45.3912797" lon="8.0522947"><ele>327.0</ele><time>2026-04-29T16:45:22.074Z</time></trkpt><trkpt lat="45.3912499" lon="8.0521444"><ele>326.0</ele><time>2026-04-29T16:45:23.074Z</time></trkpt><trkpt lat="45.3912201" lon="8.0519997"><ele>325.0</ele><time>2026-04-29T16:45:24.07Z</time></trkpt><trkpt lat="45.3911902" lon="8.0518587"><ele>324.0</ele><time>2026-04-29T16:45:25.071Z</time></trkpt><trkpt lat="45.3911664" lon="8.0517147"><ele>323.0</ele><time>2026-04-29T16:45:26.07Z</time></trkpt><trkpt lat="45.39115" lon="8.0515664"><ele>322.0</ele><time>2026-04-29T16:45:27.068Z</time></trkpt><trkpt lat="45.3911376" lon="8.0514232"><ele>321.40000000000003</ele><time>2026-04-29T16:45:28.072Z</time></trkpt><trkpt lat="45.3911273" lon="8.0512831"><ele>320.8</ele><time>2026-04-29T16:45:29.075Z</time></trkpt><trkpt lat="45.3911126" lon="8.0511471"><ele>320.2</ele><time>2026-04-29T16:45:30.067Z</time></trkpt><trkpt lat="45.3910973" lon="8.0510131"><ele>319.6</ele><time>2026-04-29T16:45:31.075Z</time></trkpt><trkpt lat="45.3910853" lon="8.0508821"><ele>319.0</ele><time>2026-04-29T16:45:32.076Z</time></trkpt><trkpt lat="45.3910772" lon="8.0507584"><ele>319.0</ele><time>2026-04-29T16:45:33.071Z</time></trkpt><trkpt lat="45.3910667" lon="8.0506473"><ele>319.0</ele><time>2026-04-29T16:45:34.069Z</time></trkpt><trkpt lat="45.39106" lon="8.0505476"><ele>319.0</ele><time>2026-04-29T16:45:35.07Z</time></trkpt><trkpt lat="45.391068" lon="8.050443"><ele>319.0</ele><time>2026-04-29T16:45:36.074Z</time></trkpt><trkpt lat="45.3910914" lon="8.050345"><ele>319.0</ele><time>2026-04-29T16:45:37.073Z</time></trkpt><trkpt lat="45.3911288" lon="8.0502622"><ele>319.0</ele><time>2026-04-29T16:45:38.072Z</time></trkpt><trkpt lat="45.3912124" lon="8.0501505"><ele>319.0</ele><time>2026-04-29T16:45:40.07Z</time></trkpt><trkpt lat="45.3913188" lon="8.050031"><ele>319.0</ele><time>2026-04-29T16:45:42.073Z</time></trkpt><trkpt lat="45.3913761" lon="8.0499546"><ele>319.0</ele><time>2026-04-29T16:45:43.072Z</time></trkpt><trkpt lat="45.3914289" lon="8.0498821"><ele>319.0</ele><time>2026-04-29T16:45:44.075Z</time></trkpt><trkpt lat="45.3914846" lon="8.0498131"><ele>319.0</ele><time>2026-04-29T16:45:45.071Z</time></trkpt><trkpt lat="45.3915295" lon="8.0497445"><ele>319.0</ele><time>2026-04-29T16:45:46.067Z</time></trkpt><trkpt lat="45.3915652" lon="8.0496658"><ele>315.59999999999997</ele><time>2026-04-29T16:45:47.069Z</time></trkpt><trkpt lat="45.3915937" lon="8.0495071"><ele>312.2</ele><time>2026-04-29T16:45:49.07Z</time></trkpt><trkpt lat="45.391582" lon="8.0493623"><ele>308.79999999999995</ele><time>2026-04-29T16:45:51.075Z</time></trkpt><trkpt lat="45.3915343" lon="8.0492108"><ele>305.4</ele><time>2026-04-29T16:45:53.081Z</time></trkpt><trkpt lat="45.3914926" lon="8.0491178"><ele>302.0</ele><time>2026-04-29T16:45:54.07Z</time></trkpt><trkpt lat="45.3914423" lon="8.0490198"><ele>301.6666666666667</ele><time>2026-04-29T16:45:55.068Z</time></trkpt><trkpt lat="45.3913934" lon="8.0489188"><ele>301.33333333333337</ele><time>2026-04-29T16:45:56.073Z</time></trkpt><trkpt lat="45.3913416" lon="8.0488252"><ele>301.0</ele><time>2026-04-29T16:45:57.072Z</time></trkpt><trkpt lat="45.3912865" lon="8.0487458"><ele>300.6666666666667</ele><time>2026-04-29T16:45:58.071Z</time></trkpt><trkpt lat="45.391229" lon="8.0486818"><ele>300.3333333333333</ele><time>2026-04-29T16:45:59.069Z</time></trkpt><trkpt lat="45.3911709" lon="8.0486343"><ele>300.0</ele><time>2026-04-29T16:46:00.07Z</time></trkpt><trkpt lat="45.3910774" lon="8.0485527"><ele>300.3333333333333</ele><time>2026-04-29T16:46:02.073Z</time></trkpt><trkpt lat="45.3910073" lon="8.0484952"><ele>300.6666666666667</ele><time>2026-04-29T16:46:04.071Z</time></trkpt><trkpt lat="45.3909461" lon="8.0484428"><ele>301.0</ele><time>2026-04-29T16:46:06.073Z</time></trkpt><trkpt lat="45.3908878" lon="8.0484087"><ele>301.33333333333337</ele><time>2026-04-29T16:46:07.073Z</time></trkpt><trkpt lat="45.3908123" lon="8.0483661"><ele>301.6666666666667</ele><time>2026-04-29T16:46:08.075Z</time></trkpt><trkpt lat="45.3907365" lon="8.0483293"><ele>302.0</ele><time>2026-04-29T16:46:09.074Z</time></trkpt><trkpt lat="45.3906603" lon="8.0482879"><ele>302.0</ele><time>2026-04-29T16:46:10.071Z</time></trkpt><trkpt lat="45.3905865" lon="8.0482386"><ele>302.0</ele><time>2026-04-29T16:46:11.073Z</time></trkpt><trkpt lat="45.3905152" lon="8.048176"><ele>302.0</ele><time>2026-04-29T16:46:12.076Z</time></trkpt><trkpt lat="45.3904461" lon="8.0481034"><ele>302.0</ele><time>2026-04-29T16:46:13.07Z</time></trkpt><trkpt lat="45.3903841" lon="8.0480337"><ele>302.0</ele><time>2026-04-29T16:46:14.074Z</time></trkpt><trkpt lat="45.3903298" lon="8.0479655"><ele>302.0</ele><time>2026-04-29T16:46:15.08Z</time></trkpt><trkpt lat="45.3902431" lon="8.0478654"><ele>303.8</ele><time>2026-04-29T16:46:17.078Z</time></trkpt><trkpt lat="45.3901316" lon="8.0478008"><ele>305.6</ele><time>2026-04-29T16:46:19.076Z</time></trkpt><trkpt lat="45.3900583" lon="8.047771"><ele>307.40000000000003</ele><time>2026-04-29T16:46:20.073Z</time></trkpt><trkpt lat="45.3899535" lon="8.0477383"><ele>309.2</ele><time>2026-04-29T16:46:21.072Z</time></trkpt><trkpt lat="45.3898225" lon="8.0477082"><ele>311.0</ele><time>2026-04-29T16:46:22.073Z</time></trkpt><trkpt lat="45.389694" lon="8.0476919"><ele>311.5</ele><time>2026-04-29T16:46:23.071Z</time></trkpt><trkpt lat="45.3895822" lon="8.047675"><ele>312.0</ele><time>2026-04-29T16:46:24.069Z</time></trkpt><trkpt lat="45.3894886" lon="8.0476441"><ele>312.5</ele><time>2026-04-29T16:46:25.073Z</time></trkpt><trkpt lat="45.3894047" lon="8.0476033"><ele>313.0</ele><time>2026-04-29T16:46:26.072Z</time></trkpt><trkpt lat="45.3893337" lon="8.0475578"><ele>313.5</ele><time>2026-04-29T16:46:27.072Z</time></trkpt><trkpt lat="45.389275" lon="8.0475038"><ele>314.0</ele><time>2026-04-29T16:46:28.071Z</time></trkpt><trkpt lat="45.38923" lon="8.0474391"><ele>314.0</ele><time>2026-04-29T16:46:29.077Z</time></trkpt><trkpt lat="45.3891951" lon="8.0473622"><ele>314.0</ele><time>2026-04-29T16:46:30.072Z</time></trkpt><trkpt lat="45.3891592" lon="8.0472584"><ele>314.0</ele><time>2026-04-29T16:46:31.076Z</time></trkpt><trkpt lat="45.3891226" lon="8.0471441"><ele>314.0</ele><time>2026-04-29T16:46:32.074Z</time></trkpt><trkpt lat="45.3890858" lon="8.0470275"><ele>314.0</ele><time>2026-04-29T16:46:33.069Z</time></trkpt><trkpt lat="45.3890504" lon="8.0469183"><ele>314.0</ele><time>2026-04-29T16:46:34.077Z</time></trkpt><trkpt lat="45.3890123" lon="8.046824"><ele>314.0</ele><time>2026-04-29T16:46:35.073Z</time></trkpt><trkpt lat="45.3889663" lon="8.046747"><ele>314.0</ele><time>2026-04-29T16:46:36.075Z</time></trkpt><trkpt lat="45.3889113" lon="8.0466879"><ele>314.0</ele><time>2026-04-29T16:46:37.074Z</time></trkpt><trkpt lat="45.3888501" lon="8.0466493"><ele>314.0</ele><time>2026-04-29T16:46:38.073Z</time></trkpt><trkpt lat="45.3887835" lon="8.0466361"><ele>314.0</ele><time>2026-04-29T16:46:39.073Z</time></trkpt><trkpt lat="45.3887193" lon="8.0466462"><ele>314.0</ele><time>2026-04-29T16:46:40.071Z</time></trkpt><trkpt lat="45.3886118" lon="8.0467373"><ele>315.6666666666667</ele><time>2026-04-29T16:46:42.073Z</time></trkpt><trkpt lat="45.3885497" lon="8.0468243"><ele>317.33333333333337</ele><time>2026-04-29T16:46:43.069Z</time></trkpt><trkpt lat="45.3884825" lon="8.0469128"><ele>319.0</ele><time>2026-04-29T16:46:44.073Z</time></trkpt><trkpt lat="45.3884126" lon="8.046994"><ele>320.6666666666667</ele><time>2026-04-29T16:46:45.072Z</time></trkpt><trkpt lat="45.3883494" lon="8.0470624"><ele>322.3333333333333</ele><time>2026-04-29T16:46:46.079Z</time></trkpt><trkpt lat="45.3882716" lon="8.0471326"><ele>324.0</ele><time>2026-04-29T16:46:48.075Z</time></trkpt><trkpt lat="45.3882201" lon="8.0471874"><ele>324.0</ele><time>2026-04-29T16:46:50.074Z</time></trkpt><trkpt lat="45.3881672" lon="8.0473225"><ele>324.0</ele><time>2026-04-29T16:46:52.072Z</time></trkpt><trkpt lat="45.3881441" lon="8.0474112"><ele>324.0</ele><time>2026-04-29T16:46:53.072Z</time></trkpt><trkpt lat="45.3881318" lon="8.0475106"><ele>324.0</ele><time>2026-04-29T16:46:54.076Z</time></trkpt><trkpt lat="45.3881175" lon="8.0476114"><ele>324.0</ele><time>2026-04-29T16:46:55.072Z</time></trkpt><trkpt lat="45.3880897" lon="8.0476992"><ele>324.0</ele><time>2026-04-29T16:46:56.071Z</time></trkpt><trkpt lat="45.3880449" lon="8.0477808"><ele>325.8333333333333</ele><time>2026-04-29T16:46:57.072Z</time></trkpt><trkpt lat="45.3879912" lon="8.0478452"><ele>327.6666666666667</ele><time>2026-04-29T16:46:58.073Z</time></trkpt><trkpt lat="45.3879261" lon="8.0478955"><ele>329.5</ele><time>2026-04-29T16:46:59.072Z</time></trkpt><trkpt lat="45.3878499" lon="8.0479304"><ele>331.33333333333337</ele><time>2026-04-29T16:47:00.071Z</time></trkpt><trkpt lat="45.3877645" lon="8.047952"><ele>333.1666666666667</ele><time>2026-04-29T16:47:01.071Z</time></trkpt><trkpt lat="45.38767" lon="8.0479654"><ele>335.0</ele><time>2026-04-29T16:47:02.072Z</time></trkpt><trkpt lat="45.3875802" lon="8.0479699"><ele>335.0</ele><time>2026-04-29T16:47:03.073Z</time></trkpt><trkpt lat="45.3875033" lon="8.0479815"><ele>335.0</ele><time>2026-04-29T16:47:04.07Z</time></trkpt><trkpt lat="45.3874308" lon="8.0480131"><ele>335.0</ele><time>2026-04-29T16:47:05.074Z</time></trkpt><trkpt lat="45.387362" lon="8.04807"><ele>335.0</ele><time>2026-04-29T16:47:06.073Z</time></trkpt><trkpt lat="45.3873019" lon="8.0481445"><ele>335.0</ele><time>2026-04-29T16:47:07.075Z</time></trkpt><trkpt lat="45.3872533" lon="8.0482035"><ele>335.0</ele><time>2026-04-29T16:47:08.072Z</time></trkpt><trkpt lat="45.3871544" lon="8.0482597"><ele>334.4</ele><time>2026-04-29T16:47:10.073Z</time></trkpt><trkpt lat="45.3870593" lon="8.0482549"><ele>333.8</ele><time>2026-04-29T16:47:12.073Z</time></trkpt><trkpt lat="45.3869815" lon="8.0482401"><ele>333.20000000000005</ele><time>2026-04-29T16:47:14.074Z</time></trkpt><trkpt lat="45.3868965" lon="8.0482456"><ele>332.6</ele><time>2026-04-29T16:47:16.076Z</time></trkpt><trkpt lat="45.3868121" lon="8.0483076"><ele>332.0</ele><time>2026-04-29T16:47:18.071Z</time></trkpt><trkpt lat="45.3867204" lon="8.0483719"><ele>332.0</ele><time>2026-04-29T16:47:20.073Z</time></trkpt><trkpt lat="45.3866217" lon="8.0484435"><ele>332.0</ele><time>2026-04-29T16:47:22.075Z</time></trkpt><trkpt lat="45.3865591" lon="8.0484916"><ele>332.0</ele><time>2026-04-29T16:47:23.071Z</time></trkpt><trkpt lat="45.3864974" lon="8.0485383"><ele>332.0</ele><time>2026-04-29T16:47:24.072Z</time></trkpt><trkpt lat="45.3864396" lon="8.0485756"><ele>332.0</ele><time>2026-04-29T16:47:25.073Z</time></trkpt><trkpt lat="45.3863824" lon="8.0486169"><ele>332.0</ele><time>2026-04-29T16:47:26.071Z</time></trkpt><trkpt lat="45.3863255" lon="8.0486599"><ele>332.0</ele><time>2026-04-29T16:47:27.068Z</time></trkpt><trkpt lat="45.3862236" lon="8.0487158"><ele>330.83333333333337</ele><time>2026-04-29T16:47:29.073Z</time></trkpt><trkpt lat="45.3861237" lon="8.0487395"><ele>329.6666666666667</ele><time>2026-04-29T16:47:31.073Z</time></trkpt><trkpt lat="45.3860048" lon="8.0487627"><ele>328.5</ele><time>2026-04-29T16:47:33.072Z</time></trkpt><trkpt lat="45.3859441" lon="8.0487872"><ele>327.3333333333333</ele><time>2026-04-29T16:47:34.074Z</time></trkpt><trkpt lat="45.3858829" lon="8.0488305"><ele>326.16666666666663</ele><time>2026-04-29T16:47:35.069Z</time></trkpt><trkpt lat="45.3858263" lon="8.0488871"><ele>325.0</ele><time>2026-04-29T16:47:36.072Z</time></trkpt><trkpt lat="45.3857456" lon="8.0490086"><ele>325.0</ele><time>2026-04-29T16:47:38.072Z</time></trkpt><trkpt lat="45.3856969" lon="8.0490729"><ele>325.0</ele><time>2026-04-29T16:47:39.067Z</time></trkpt><trkpt lat="45.3856024" lon="8.0491808"><ele>325.0</ele><time>2026-04-29T16:47:41.067Z</time></trkpt><trkpt lat="45.3855031" lon="8.0492992"><ele>325.0</ele><time>2026-04-29T16:47:43.067Z</time></trkpt><trkpt lat="45.3854437" lon="8.0493578"><ele>325.0</ele><time>2026-04-29T16:47:44.068Z</time></trkpt><trkpt lat="45.3853789" lon="8.0494101"><ele>323.3333333333333</ele><time>2026-04-29T16:47:45.073Z</time></trkpt><trkpt lat="45.385312" lon="8.0494554"><ele>321.66666666666663</ele><time>2026-04-29T16:47:46.077Z</time></trkpt><trkpt lat="45.3852475" lon="8.0495096"><ele>320.0</ele><time>2026-04-29T16:47:47.079Z</time></trkpt><trkpt lat="45.3851885" lon="8.0495809"><ele>318.3333333333333</ele><time>2026-04-29T16:47:48.072Z</time></trkpt><trkpt lat="45.3851415" lon="8.049665"><ele>316.6666666666667</ele><time>2026-04-29T16:47:49.072Z</time></trkpt><trkpt lat="45.3851067" lon="8.0497624"><ele>315.0</ele><time>2026-04-29T16:47:50.075Z</time></trkpt><trkpt lat="45.3850783" lon="8.0498652"><ele>314.57142857142856</ele><time>2026-04-29T16:47:51.073Z</time></trkpt><trkpt lat="45.3850518" lon="8.0499651"><ele>314.1428571428571</ele><time>2026-04-29T16:47:52.072Z</time></trkpt><trkpt lat="45.3850236" lon="8.0500613"><ele>313.7142857142857</ele><time>2026-04-29T16:47:53.071Z</time></trkpt><trkpt lat="45.3849917" lon="8.0501573"><ele>313.2857142857143</ele><time>2026-04-29T16:47:54.073Z</time></trkpt><trkpt lat="45.3849572" lon="8.0502533"><ele>312.85714285714283</ele><time>2026-04-29T16:47:55.069Z</time></trkpt><trkpt lat="45.3849243" lon="8.0503487"><ele>312.42857142857144</ele><time>2026-04-29T16:47:56.074Z</time></trkpt><trkpt lat="45.3848948" lon="8.050435"><ele>312.0</ele><time>2026-04-29T16:47:57.076Z</time></trkpt><trkpt lat="45.38485" lon="8.0505758"><ele>312.0</ele><time>2026-04-29T16:47:59.073Z</time></trkpt><trkpt lat="45.3848174" lon="8.0506758"><ele>312.0</ele><time>2026-04-29T16:48:01.07Z</time></trkpt><trkpt lat="45.3848659" lon="8.0505746"><ele>312.0</ele><time>2026-04-29T16:48:44.075Z</time></trkpt><trkpt lat="45.3848906" lon="8.050484"><ele>312.0</ele><time>2026-04-29T16:48:45.068Z</time></trkpt><trkpt lat="45.3849189" lon="8.0503726"><ele>312.0</ele><time>2026-04-29T16:48:46.077Z</time></trkpt><trkpt lat="45.3849522" lon="8.0502384"><ele>312.0</ele><time>2026-04-29T16:48:47.069Z</time></trkpt><trkpt lat="45.3849924" lon="8.0500936"><ele>312.5</ele><time>2026-04-29T16:48:48.074Z</time></trkpt><trkpt lat="45.3850409" lon="8.0499534"><ele>313.0</ele><time>2026-04-29T16:48:49.074Z</time></trkpt><trkpt lat="45.3850898" lon="8.0498335"><ele>313.5</ele><time>2026-04-29T16:48:50.08Z</time></trkpt><trkpt lat="45.3851327" lon="8.0497314"><ele>314.0</ele><time>2026-04-29T16:48:51.071Z</time></trkpt><trkpt lat="45.3851739" lon="8.0496356"><ele>314.5</ele><time>2026-04-29T16:48:52.067Z</time></trkpt><trkpt lat="45.385213" lon="8.049548"><ele>315.0</ele><time>2026-04-29T16:48:53.077Z</time></trkpt><trkpt lat="45.3852534" lon="8.0494768"><ele>315.0</ele><time>2026-04-29T16:48:54.071Z</time></trkpt><trkpt lat="45.3853026" lon="8.0494161"><ele>315.0</ele><time>2026-04-29T16:48:55.072Z</time></trkpt><trkpt lat="45.3853655" lon="8.049364"><ele>315.0</ele><time>2026-04-29T16:48:56.07Z</time></trkpt><trkpt lat="45.3854401" lon="8.0493062"><ele>315.0</ele><time>2026-04-29T16:48:57.072Z</time></trkpt><trkpt lat="45.3855183" lon="8.0492362"><ele>315.0</ele><time>2026-04-29T16:48:58.076Z</time></trkpt><trkpt lat="45.3855951" lon="8.0491598"><ele>315.0</ele><time>2026-04-29T16:48:59.071Z</time></trkpt><trkpt lat="45.3856649" lon="8.0490839"><ele>316.42857142857144</ele><time>2026-04-29T16:49:00.065Z</time></trkpt><trkpt lat="45.3857276" lon="8.0490089"><ele>317.8571428571429</ele><time>2026-04-29T16:49:01.073Z</time></trkpt><trkpt lat="45.3857839" lon="8.0489377"><ele>319.2857142857143</ele><time>2026-04-29T16:49:02.07Z</time></trkpt><trkpt lat="45.3858331" lon="8.0488664"><ele>320.7142857142857</ele><time>2026-04-29T16:49:03.071Z</time></trkpt><trkpt lat="45.3858899" lon="8.0488008"><ele>322.14285714285717</ele><time>2026-04-29T16:49:04.073Z</time></trkpt><trkpt lat="45.385953" lon="8.0487432"><ele>323.57142857142856</ele><time>2026-04-29T16:49:05.073Z</time></trkpt><trkpt lat="45.386021" lon="8.048702"><ele>325.0</ele><time>2026-04-29T16:49:06.07Z</time></trkpt><trkpt lat="45.3860947" lon="8.0486662"><ele>325.0</ele><time>2026-04-29T16:49:07.073Z</time></trkpt><trkpt lat="45.3861712" lon="8.0486393"><ele>325.0</ele><time>2026-04-29T16:49:08.072Z</time></trkpt><trkpt lat="45.3862489" lon="8.0486195"><ele>325.0</ele><time>2026-04-29T16:49:09.073Z</time></trkpt><trkpt lat="45.3863259" lon="8.0485907"><ele>325.0</ele><time>2026-04-29T16:49:10.072Z</time></trkpt><trkpt lat="45.3864002" lon="8.04855"><ele>325.0</ele><time>2026-04-29T16:49:11.076Z</time></trkpt><trkpt lat="45.3864768" lon="8.048488"><ele>325.0</ele><time>2026-04-29T16:49:12.071Z</time></trkpt><trkpt lat="45.3865493" lon="8.0484356"><ele>326.16666666666663</ele><time>2026-04-29T16:49:13.071Z</time></trkpt><trkpt lat="45.3866172" lon="8.0483944"><ele>327.3333333333333</ele><time>2026-04-29T16:49:14.071Z</time></trkpt><trkpt lat="45.3866903" lon="8.0483567"><ele>328.5</ele><time>2026-04-29T16:49:15.068Z</time></trkpt><trkpt lat="45.3867667" lon="8.0483234"><ele>329.6666666666667</ele><time>2026-04-29T16:49:16.074Z</time></trkpt><trkpt lat="45.3868479" lon="8.0482825"><ele>330.83333333333337</ele><time>2026-04-29T16:49:17.075Z</time></trkpt><trkpt lat="45.3869181" lon="8.0482527"><ele>332.0</ele><time>2026-04-29T16:49:18.071Z</time></trkpt><trkpt lat="45.3869859" lon="8.0482458"><ele>332.5</ele><time>2026-04-29T16:49:19.077Z</time></trkpt><trkpt lat="45.387056" lon="8.048256"><ele>333.0</ele><time>2026-04-29T16:49:20.077Z</time></trkpt><trkpt lat="45.387126" lon="8.0482765"><ele>333.5</ele><time>2026-04-29T16:49:21.077Z</time></trkpt><trkpt lat="45.3872519" lon="8.0482649"><ele>334.0</ele><time>2026-04-29T16:49:23.075Z</time></trkpt><trkpt lat="45.3873196" lon="8.048212"><ele>334.5</ele><time>2026-04-29T16:49:24.076Z</time></trkpt><trkpt lat="45.3873936" lon="8.0481409"><ele>335.0</ele><time>2026-04-29T16:49:25.071Z</time></trkpt><trkpt lat="45.3874666" lon="8.0480712"><ele>335.0</ele><time>2026-04-29T16:49:26.073Z</time></trkpt><trkpt lat="45.3875362" lon="8.0480217"><ele>335.0</ele><time>2026-04-29T16:49:27.071Z</time></trkpt><trkpt lat="45.3876261" lon="8.0479838"><ele>335.0</ele><time>2026-04-29T16:49:28.073Z</time></trkpt><trkpt lat="45.3877217" lon="8.0479538"><ele>335.0</ele><time>2026-04-29T16:49:29.07Z</time></trkpt><trkpt lat="45.3878032" lon="8.047926"><ele>335.0</ele><time>2026-04-29T16:49:30.077Z</time></trkpt><trkpt lat="45.3878734" lon="8.047895"><ele>335.0</ele><time>2026-04-29T16:49:31.07Z</time></trkpt><trkpt lat="45.3879376" lon="8.0478528"><ele>334.99999999999994</ele><time>2026-04-29T16:49:32.07Z</time></trkpt><trkpt lat="45.3879976" lon="8.0477975"><ele>335.0</ele><time>2026-04-29T16:49:33.073Z</time></trkpt><trkpt lat="45.3880514" lon="8.0477299"><ele>335.0</ele><time>2026-04-29T16:49:34.069Z</time></trkpt><trkpt lat="45.3880971" lon="8.0476515"><ele>335.0</ele><time>2026-04-29T16:49:35.079Z</time></trkpt><trkpt lat="45.3881276" lon="8.0475582"><ele>335.0</ele><time>2026-04-29T16:49:36.073Z</time></trkpt><trkpt lat="45.388152" lon="8.0474519"><ele>334.99999999999994</ele><time>2026-04-29T16:49:37.073Z</time></trkpt><trkpt lat="45.3881699" lon="8.047347"><ele>335.0</ele><time>2026-04-29T16:49:38.076Z</time></trkpt><trkpt lat="45.3881907" lon="8.0472548"><ele>334.0</ele><time>2026-04-29T16:49:39.069Z</time></trkpt><trkpt lat="45.3882405" lon="8.047101"><ele>333.0</ele><time>2026-04-29T16:49:41.072Z</time></trkpt><trkpt lat="45.3882657" lon="8.0470158"><ele>332.0</ele><time>2026-04-29T16:49:42.072Z</time></trkpt><trkpt lat="45.388293" lon="8.0469205"><ele>331.0</ele><time>2026-04-29T16:49:43.073Z</time></trkpt><trkpt lat="45.388327" lon="8.0468187"><ele>330.0</ele><time>2026-04-29T16:49:44.077Z</time></trkpt><trkpt lat="45.3883675" lon="8.0467069"><ele>329.0</ele><time>2026-04-29T16:49:45.075Z</time></trkpt><trkpt lat="45.3884124" lon="8.0465886"><ele>329.0</ele><time>2026-04-29T16:49:46.072Z</time></trkpt><trkpt lat="45.388459" lon="8.0464716"><ele>329.0</ele><time>2026-04-29T16:49:47.077Z</time></trkpt><trkpt lat="45.3885066" lon="8.0463626"><ele>329.0</ele><time>2026-04-29T16:49:48.069Z</time></trkpt><trkpt lat="45.3885488" lon="8.0462667"><ele>329.0</ele><time>2026-04-29T16:49:49.073Z</time></trkpt><trkpt lat="45.3885817" lon="8.0461727"><ele>329.0</ele><time>2026-04-29T16:49:50.074Z</time></trkpt><trkpt lat="45.3886087" lon="8.0460774"><ele>329.0</ele><time>2026-04-29T16:49:51.074Z</time></trkpt><trkpt lat="45.3886355" lon="8.0459775"><ele>329.0</ele><time>2026-04-29T16:49:52.07Z</time></trkpt><trkpt lat="45.3886637" lon="8.0458807"><ele>329.0</ele><time>2026-04-29T16:49:53.072Z</time></trkpt><trkpt lat="45.3886897" lon="8.045798"><ele>329.0</ele><time>2026-04-29T16:49:54.071Z</time></trkpt><trkpt lat="45.3887153" lon="8.0456735"><ele>329.0</ele><time>2026-04-29T16:49:56.078Z</time></trkpt><trkpt lat="45.3886946" lon="8.0455627"><ele>329.0</ele><time>2026-04-29T16:49:58.073Z</time></trkpt><trkpt lat="45.388609" lon="8.0454493"><ele>329.0</ele><time>2026-04-29T16:50:00.07Z</time></trkpt><trkpt lat="45.3885547" lon="8.0453966"><ele>329.5</ele><time>2026-04-29T16:50:01.072Z</time></trkpt><trkpt lat="45.3884923" lon="8.0453431"><ele>330.0</ele><time>2026-04-29T16:50:02.071Z</time></trkpt><trkpt lat="45.3884267" lon="8.0453073"><ele>330.5</ele><time>2026-04-29T16:50:03.077Z</time></trkpt><trkpt lat="45.388353" lon="8.0452989"><ele>331.0</ele><time>2026-04-29T16:50:04.072Z</time></trkpt><trkpt lat="45.3882684" lon="8.0453019"><ele>331.5</ele><time>2026-04-29T16:50:05.079Z</time></trkpt><trkpt lat="45.388185" lon="8.0452982"><ele>332.0</ele><time>2026-04-29T16:50:06.073Z</time></trkpt><trkpt lat="45.3881059" lon="8.0452759"><ele>332.0</ele><time>2026-04-29T16:50:07.072Z</time></trkpt><trkpt lat="45.3880388" lon="8.0452382"><ele>332.0</ele><time>2026-04-29T16:50:08.072Z</time></trkpt><trkpt lat="45.3879451" lon="8.045153"><ele>332.0</ele><time>2026-04-29T16:50:10.072Z</time></trkpt><trkpt lat="45.3878883" lon="8.0450148"><ele>332.0</ele><time>2026-04-29T16:50:12.075Z</time></trkpt><trkpt lat="45.3878681" lon="8.0449197"><ele>332.0</ele><time>2026-04-29T16:50:13.074Z</time></trkpt><trkpt lat="45.3878559" lon="8.0448182"><ele>332.0</ele><time>2026-04-29T16:50:14.074Z</time></trkpt><trkpt lat="45.3878513" lon="8.0447171"><ele>334.5</ele><time>2026-04-29T16:50:15.067Z</time></trkpt><trkpt lat="45.3878553" lon="8.0446133"><ele>337.0</ele><time>2026-04-29T16:50:16.077Z</time></trkpt><trkpt lat="45.3878699" lon="8.0445064"><ele>339.5</ele><time>2026-04-29T16:50:17.077Z</time></trkpt><trkpt lat="45.3878949" lon="8.0443966"><ele>342.0</ele><time>2026-04-29T16:50:18.072Z</time></trkpt><trkpt lat="45.3879192" lon="8.0442879"><ele>344.5</ele><time>2026-04-29T16:50:19.068Z</time></trkpt><trkpt lat="45.3879305" lon="8.0441891"><ele>347.0</ele><time>2026-04-29T16:50:20.069Z</time></trkpt><trkpt lat="45.3879285" lon="8.0440358"><ele>348.40000000000003</ele><time>2026-04-29T16:50:22.077Z</time></trkpt><trkpt lat="45.3879176" lon="8.0438832"><ele>349.8</ele><time>2026-04-29T16:50:24.071Z</time></trkpt><trkpt lat="45.3879603" lon="8.043726"><ele>351.2</ele><time>2026-04-29T16:50:26.072Z</time></trkpt><trkpt lat="45.3880025" lon="8.0436415"><ele>352.6</ele><time>2026-04-29T16:50:27.08Z</time></trkpt><trkpt lat="45.3880439" lon="8.0435461"><ele>354.0</ele><time>2026-04-29T16:50:28.076Z</time></trkpt><trkpt lat="45.3880812" lon="8.0434332"><ele>350.0</ele><time>2026-04-29T16:50:29.08Z</time></trkpt><trkpt lat="45.3881132" lon="8.0433143"><ele>346.0</ele><time>2026-04-29T16:50:30.077Z</time></trkpt><trkpt lat="45.3881357" lon="8.0432134"><ele>342.0</ele><time>2026-04-29T16:50:31.075Z</time></trkpt><trkpt lat="45.3881608" lon="8.0430774"><ele>338.0</ele><time>2026-04-29T16:50:33.071Z</time></trkpt><trkpt lat="45.3881358" lon="8.042951"><ele>334.0</ele><time>2026-04-29T16:50:35.075Z</time></trkpt><trkpt lat="45.388083" lon="8.0428184"><ele>333.1428571428571</ele><time>2026-04-29T16:50:37.073Z</time></trkpt><trkpt lat="45.3880498" lon="8.042741"><ele>332.2857142857143</ele><time>2026-04-29T16:50:38.072Z</time></trkpt><trkpt lat="45.3880219" lon="8.0426589"><ele>331.42857142857144</ele><time>2026-04-29T16:50:39.07Z</time></trkpt><trkpt lat="45.3879999" lon="8.0425656"><ele>330.57142857142856</ele><time>2026-04-29T16:50:40.074Z</time></trkpt><trkpt lat="45.387977" lon="8.0424628"><ele>329.7142857142857</ele><time>2026-04-29T16:50:41.072Z</time></trkpt><trkpt lat="45.3879571" lon="8.0423652"><ele>328.85714285714283</ele><time>2026-04-29T16:50:42.073Z</time></trkpt><trkpt lat="45.3879443" lon="8.0422693"><ele>328.0</ele><time>2026-04-29T16:50:43.076Z</time></trkpt><trkpt lat="45.3879367" lon="8.0421644"><ele>331.8333333333333</ele><time>2026-04-29T16:50:44.07Z</time></trkpt><trkpt lat="45.3879262" lon="8.0420462"><ele>335.66666666666663</ele><time>2026-04-29T16:50:45.074Z</time></trkpt><trkpt lat="45.3879119" lon="8.0419348"><ele>339.5</ele><time>2026-04-29T16:50:46.075Z</time></trkpt><trkpt lat="45.3878918" lon="8.0418314"><ele>343.3333333333333</ele><time>2026-04-29T16:50:47.072Z</time></trkpt><trkpt lat="45.3878612" lon="8.041728"><ele>347.1666666666667</ele><time>2026-04-29T16:50:48.078Z</time></trkpt><trkpt lat="45.3878234" lon="8.0416287"><ele>351.0</ele><time>2026-04-29T16:50:49.069Z</time></trkpt><trkpt lat="45.3877825" lon="8.041539"><ele>351.0</ele><time>2026-04-29T16:50:50.076Z</time></trkpt><trkpt lat="45.3877392" lon="8.0414552"><ele>351.0</ele><time>2026-04-29T16:50:51.068Z</time></trkpt><trkpt lat="45.3876747" lon="8.0413188"><ele>351.0</ele><time>2026-04-29T16:50:53.075Z</time></trkpt><trkpt lat="45.3876423" lon="8.0412101"><ele>351.0</ele><time>2026-04-29T16:50:55.071Z</time></trkpt><trkpt lat="45.3876156" lon="8.0411158"><ele>351.0</ele><time>2026-04-29T16:50:57.073Z</time></trkpt><trkpt lat="45.3875785" lon="8.0410109"><ele>351.0</ele><time>2026-04-29T16:56:50.073Z</time></trkpt><trkpt lat="45.3875596" lon="8.0408795"><ele>352.20000000000005</ele><time>2026-04-29T16:56:52.076Z</time></trkpt><trkpt lat="45.3875286" lon="8.040733"><ele>353.40000000000003</ele><time>2026-04-29T16:56:54.098Z</time></trkpt><trkpt lat="45.3875039" lon="8.0405741"><ele>354.6</ele><time>2026-04-29T16:56:56.088Z</time></trkpt><trkpt lat="45.3875176" lon="8.0404254"><ele>355.8</ele><time>2026-04-29T16:56:58.086Z</time></trkpt><trkpt lat="45.387577" lon="8.0402796"><ele>357.0</ele><time>2026-04-29T16:57:00.075Z</time></trkpt><trkpt lat="45.3876166" lon="8.0401955"><ele>357.0</ele><time>2026-04-29T16:57:01.087Z</time></trkpt><trkpt lat="45.3876558" lon="8.0401005"><ele>357.0</ele><time>2026-04-29T16:57:02.088Z</time></trkpt><trkpt lat="45.387691" lon="8.0399988"><ele>357.0</ele><time>2026-04-29T16:57:03.089Z</time></trkpt><trkpt lat="45.3877168" lon="8.0398962"><ele>357.0</ele><time>2026-04-29T16:57:04.083Z</time></trkpt><trkpt lat="45.3877435" lon="8.0397839"><ele>357.0</ele><time>2026-04-29T16:57:05.087Z</time></trkpt><trkpt lat="45.3877772" lon="8.0396677"><ele>357.0</ele><time>2026-04-29T16:57:06.095Z</time></trkpt><trkpt lat="45.3878163" lon="8.0395545"><ele>358.6</ele><time>2026-04-29T16:57:07.081Z</time></trkpt><trkpt lat="45.3878539" lon="8.0394578"><ele>360.20000000000005</ele><time>2026-04-29T16:57:08.087Z</time></trkpt><trkpt lat="45.3878843" lon="8.0393792"><ele>361.8</ele><time>2026-04-29T16:57:09.073Z</time></trkpt><trkpt lat="45.3879277" lon="8.0392508"><ele>363.4</ele><time>2026-04-29T16:57:11.087Z</time></trkpt><trkpt lat="45.3879741" lon="8.0391193"><ele>365.0</ele><time>2026-04-29T16:57:13.092Z</time></trkpt><trkpt lat="45.3880251" lon="8.0389646"><ele>361.4</ele><time>2026-04-29T16:57:15.072Z</time></trkpt><trkpt lat="45.3880518" lon="8.0387832"><ele>357.8</ele><time>2026-04-29T16:57:17.087Z</time></trkpt><trkpt lat="45.3880498" lon="8.0386725"><ele>354.20000000000005</ele><time>2026-04-29T16:57:18.09Z</time></trkpt><trkpt lat="45.3880425" lon="8.0385502"><ele>350.6</ele><time>2026-04-29T16:57:19.082Z</time></trkpt><trkpt lat="45.3880345" lon="8.0384247"><ele>347.0</ele><time>2026-04-29T16:57:20.094Z</time></trkpt><trkpt lat="45.388035" lon="8.0382972"><ele>347.0</ele><time>2026-04-29T16:57:21.083Z</time></trkpt><trkpt lat="45.3880372" lon="8.0381638"><ele>347.0</ele><time>2026-04-29T16:57:22.096Z</time></trkpt><trkpt lat="45.3880385" lon="8.0380389"><ele>347.0</ele><time>2026-04-29T16:57:23.089Z</time></trkpt><trkpt lat="45.3880367" lon="8.0379271"><ele>347.0</ele><time>2026-04-29T16:57:24.088Z</time></trkpt><trkpt lat="45.3880407" lon="8.0378251"><ele>347.0</ele><time>2026-04-29T16:57:25.082Z</time></trkpt><trkpt lat="45.38806" lon="8.0377311"><ele>347.0</ele><time>2026-04-29T16:57:26.089Z</time></trkpt><trkpt lat="45.3880901" lon="8.0376317"><ele>347.0</ele><time>2026-04-29T16:57:27.082Z</time></trkpt><trkpt lat="45.3881316" lon="8.0375302"><ele>347.0</ele><time>2026-04-29T16:57:28.085Z</time></trkpt><trkpt lat="45.3881713" lon="8.0374305"><ele>347.0</ele><time>2026-04-29T16:57:29.084Z</time></trkpt><trkpt lat="45.3882053" lon="8.0373206"><ele>347.0</ele><time>2026-04-29T16:57:30.09Z</time></trkpt><trkpt lat="45.388234" lon="8.0372004"><ele>347.0</ele><time>2026-04-29T16:57:31.089Z</time></trkpt><trkpt lat="45.3882624" lon="8.0370803"><ele>347.0</ele><time>2026-04-29T16:57:32.094Z</time></trkpt><trkpt lat="45.3882925" lon="8.0369681"><ele>348.33333333333337</ele><time>2026-04-29T16:57:33.08Z</time></trkpt><trkpt lat="45.3883231" lon="8.0368692"><ele>349.6666666666667</ele><time>2026-04-29T16:57:34.083Z</time></trkpt><trkpt lat="45.3883581" lon="8.0367854"><ele>351.0</ele><time>2026-04-29T16:57:35.085Z</time></trkpt><trkpt lat="45.3884016" lon="8.0367109"><ele>352.3333333333333</ele><time>2026-04-29T16:57:36.083Z</time></trkpt><trkpt lat="45.3884549" lon="8.0366337"><ele>353.66666666666663</ele><time>2026-04-29T16:57:37.084Z</time></trkpt><trkpt lat="45.38852" lon="8.0365553"><ele>355.0</ele><time>2026-04-29T16:57:38.083Z</time></trkpt><trkpt lat="45.3885916" lon="8.0364667"><ele>357.8</ele><time>2026-04-29T16:57:39.081Z</time></trkpt><trkpt lat="45.3886673" lon="8.0363721"><ele>360.6</ele><time>2026-04-29T16:57:40.084Z</time></trkpt><trkpt lat="45.3887412" lon="8.0362842"><ele>363.4</ele><time>2026-04-29T16:57:41.08Z</time></trkpt><trkpt lat="45.3888134" lon="8.036201"><ele>366.2</ele><time>2026-04-29T16:57:42.076Z</time></trkpt><trkpt lat="45.3888822" lon="8.0361164"><ele>369.0</ele><time>2026-04-29T16:57:43.078Z</time></trkpt><trkpt lat="45.3889468" lon="8.0360304"><ele>365.1666666666667</ele><time>2026-04-29T16:57:44.07Z</time></trkpt><trkpt lat="45.3890077" lon="8.0359472"><ele>361.3333333333333</ele><time>2026-04-29T16:57:45.074Z</time></trkpt><trkpt lat="45.389064" lon="8.0358603"><ele>357.5</ele><time>2026-04-29T16:57:46.075Z</time></trkpt><trkpt lat="45.3891106" lon="8.035767"><ele>353.66666666666663</ele><time>2026-04-29T16:57:47.071Z</time></trkpt><trkpt lat="45.3891489" lon="8.0356662"><ele>349.8333333333333</ele><time>2026-04-29T16:57:48.081Z</time></trkpt><trkpt lat="45.3891785" lon="8.0355571"><ele>346.0</ele><time>2026-04-29T16:57:49.076Z</time></trkpt><trkpt lat="45.3892036" lon="8.0354433"><ele>346.0</ele><time>2026-04-29T16:57:50.073Z</time></trkpt><trkpt lat="45.3892246" lon="8.0353314"><ele>346.0</ele><time>2026-04-29T16:57:51.074Z</time></trkpt><trkpt lat="45.3892429" lon="8.0352205"><ele>346.0</ele><time>2026-04-29T16:57:52.078Z</time></trkpt><trkpt lat="45.3892529" lon="8.0351084"><ele>346.0</ele><time>2026-04-29T16:57:53.069Z</time></trkpt><trkpt lat="45.3892594" lon="8.0349871"><ele>346.0</ele><time>2026-04-29T16:57:54.076Z</time></trkpt><trkpt lat="45.3892716" lon="8.0348576"><ele>346.0</ele><time>2026-04-29T16:57:55.073Z</time></trkpt><trkpt lat="45.3892829" lon="8.0347282"><ele>346.66666666666663</ele><time>2026-04-29T16:57:56.076Z</time></trkpt><trkpt lat="45.3892958" lon="8.0346013"><ele>347.3333333333333</ele><time>2026-04-29T16:57:57.077Z</time></trkpt><trkpt lat="45.3893087" lon="8.0344745"><ele>348.0</ele><time>2026-04-29T16:57:58.079Z</time></trkpt><trkpt lat="45.3893174" lon="8.0343472"><ele>348.6666666666667</ele><time>2026-04-29T16:57:59.072Z</time></trkpt><trkpt lat="45.3893249" lon="8.0342255"><ele>349.33333333333337</ele><time>2026-04-29T16:58:00.073Z</time></trkpt><trkpt lat="45.3893434" lon="8.0341182"><ele>350.0</ele><time>2026-04-29T16:58:01.072Z</time></trkpt><trkpt lat="45.3893774" lon="8.0340153"><ele>352.0</ele><time>2026-04-29T16:58:02.074Z</time></trkpt><trkpt lat="45.3894173" lon="8.033905"><ele>354.0</ele><time>2026-04-29T16:58:03.078Z</time></trkpt><trkpt lat="45.3894589" lon="8.0337796"><ele>356.0</ele><time>2026-04-29T16:58:04.067Z</time></trkpt><trkpt lat="45.3894967" lon="8.0336345"><ele>358.0</ele><time>2026-04-29T16:58:05.069Z</time></trkpt><trkpt lat="45.3895306" lon="8.0334817"><ele>360.0</ele><time>2026-04-29T16:58:06.07Z</time></trkpt><trkpt lat="45.3895564" lon="8.0333461"><ele>360.8333333333333</ele><time>2026-04-29T16:58:07.072Z</time></trkpt><trkpt lat="45.3895849" lon="8.0332278"><ele>361.6666666666667</ele><time>2026-04-29T16:58:08.072Z</time></trkpt><trkpt lat="45.3896228" lon="8.0331241"><ele>362.5</ele><time>2026-04-29T16:58:09.07Z</time></trkpt><trkpt lat="45.3896697" lon="8.033024"><ele>363.33333333333337</ele><time>2026-04-29T16:58:10.073Z</time></trkpt><trkpt lat="45.3897231" lon="8.0329273"><ele>364.1666666666667</ele><time>2026-04-29T16:58:11.073Z</time></trkpt><trkpt lat="45.3897694" lon="8.0328398"><ele>365.0</ele><time>2026-04-29T16:58:12.069Z</time></trkpt><trkpt lat="45.3898063" lon="8.0327575"><ele>360.6666666666667</ele><time>2026-04-29T16:58:13.073Z</time></trkpt><trkpt lat="45.38983" lon="8.0326687"><ele>356.33333333333337</ele><time>2026-04-29T16:58:14.074Z</time></trkpt><trkpt lat="45.3898384" lon="8.0325725"><ele>352.0</ele><time>2026-04-29T16:58:15.073Z</time></trkpt><trkpt lat="45.3898349" lon="8.0324741"><ele>347.6666666666667</ele><time>2026-04-29T16:58:16.074Z</time></trkpt><trkpt lat="45.3898236" lon="8.0323813"><ele>343.3333333333333</ele><time>2026-04-29T16:58:17.076Z</time></trkpt><trkpt lat="45.389811" lon="8.0322149"><ele>339.0</ele><time>2026-04-29T16:58:19.074Z</time></trkpt><trkpt lat="45.3898249" lon="8.0320393"><ele>339.0</ele><time>2026-04-29T16:58:21.075Z</time></trkpt><trkpt lat="45.3898372" lon="8.0319377"><ele>339.0</ele><time>2026-04-29T16:58:22.072Z</time></trkpt><trkpt lat="45.3898417" lon="8.0318402"><ele>339.0</ele><time>2026-04-29T16:58:23.071Z</time></trkpt><trkpt lat="45.3898362" lon="8.031742"><ele>339.0</ele><time>2026-04-29T16:58:24.08Z</time></trkpt><trkpt lat="45.389817" lon="8.0316459"><ele>339.0</ele><time>2026-04-29T16:58:25.074Z</time></trkpt><trkpt lat="45.3897884" lon="8.0315438"><ele>339.0</ele><time>2026-04-29T16:58:26.076Z</time></trkpt><trkpt lat="45.3897565" lon="8.0314396"><ele>339.0</ele><time>2026-04-29T16:58:27.07Z</time></trkpt><trkpt lat="45.3897244" lon="8.0313387"><ele>340.0</ele><time>2026-04-29T16:58:28.075Z</time></trkpt><trkpt lat="45.389697" lon="8.0312426"><ele>341.0</ele><time>2026-04-29T16:58:29.074Z</time></trkpt><trkpt lat="45.3896758" lon="8.0311525"><ele>342.0</ele><time>2026-04-29T16:58:30.075Z</time></trkpt><trkpt lat="45.3896427" lon="8.0309872"><ele>343.0</ele><time>2026-04-29T16:58:32.078Z</time></trkpt><trkpt lat="45.3896216" lon="8.0308179"><ele>344.0</ele><time>2026-04-29T16:58:34.073Z</time></trkpt><trkpt lat="45.3896166" lon="8.0306843"><ele>344.0</ele><time>2026-04-29T16:58:36.075Z</time></trkpt><trkpt lat="45.3895852" lon="8.0305752"><ele>344.0</ele><time>2026-04-29T16:58:39.071Z</time></trkpt><trkpt lat="45.3895138" lon="8.030564"><ele>344.0</ele><time>2026-04-29T16:58:41.068Z</time></trkpt><trkpt lat="45.3894316" lon="8.0305383"><ele>344.0</ele><time>2026-04-29T16:58:43.074Z</time></trkpt><trkpt lat="45.3893524" lon="8.0304835"><ele>344.0</ele><time>2026-04-29T16:58:45.075Z</time></trkpt><trkpt lat="45.3892608" lon="8.0304485"><ele>344.0</ele><time>2026-04-29T16:58:47.069Z</time></trkpt><trkpt lat="45.3891865" lon="8.0303611"><ele>344.0</ele><time>2026-04-29T16:58:49.074Z</time></trkpt><trkpt lat="45.389115" lon="8.0302576"><ele>344.0</ele><time>2026-04-29T16:58:51.071Z</time></trkpt><trkpt lat="45.3890151" lon="8.0301703"><ele>344.0</ele><time>2026-04-29T16:58:53.08Z</time></trkpt><trkpt lat="45.3889191" lon="8.030057"><ele>344.0</ele><time>2026-04-29T16:58:55.073Z</time></trkpt><trkpt lat="45.3888619" lon="8.0299887"><ele>344.0</ele><time>2026-04-29T16:58:56.08Z</time></trkpt><trkpt lat="45.3887978" lon="8.0299216"><ele>342.8571428571429</ele><time>2026-04-29T16:58:57.077Z</time></trkpt><trkpt lat="45.3887306" lon="8.0298631"><ele>341.7142857142857</ele><time>2026-04-29T16:58:58.076Z</time></trkpt><trkpt lat="45.3886661" lon="8.0298076"><ele>340.57142857142856</ele><time>2026-04-29T16:58:59.071Z</time></trkpt><trkpt lat="45.3886071" lon="8.0297494"><ele>339.42857142857144</ele><time>2026-04-29T16:59:00.071Z</time></trkpt><trkpt lat="45.3885513" lon="8.0296908"><ele>338.2857142857143</ele><time>2026-04-29T16:59:01.071Z</time></trkpt><trkpt lat="45.3884999" lon="8.0296273"><ele>337.14285714285717</ele><time>2026-04-29T16:59:02.07Z</time></trkpt><trkpt lat="45.3884499" lon="8.0295692"><ele>336.0</ele><time>2026-04-29T16:59:03.071Z</time></trkpt><trkpt lat="45.3883606" lon="8.029476"><ele>336.0</ele><time>2026-04-29T16:59:05.072Z</time></trkpt><trkpt lat="45.388271" lon="8.0293755"><ele>336.0</ele><time>2026-04-29T16:59:07.076Z</time></trkpt><trkpt lat="45.3882194" lon="8.0293162"><ele>336.0</ele><time>2026-04-29T16:59:08.08Z</time></trkpt><trkpt lat="45.3881639" lon="8.0292575"><ele>336.0</ele><time>2026-04-29T16:59:09.073Z</time></trkpt><trkpt lat="45.3881082" lon="8.0292004"><ele>336.0</ele><time>2026-04-29T16:59:10.076Z</time></trkpt><trkpt lat="45.3880513" lon="8.0291367"><ele>336.0</ele><time>2026-04-29T16:59:11.069Z</time></trkpt><trkpt lat="45.3879926" lon="8.0290668"><ele>335.3333333333333</ele><time>2026-04-29T16:59:12.072Z</time></trkpt><trkpt lat="45.387934" lon="8.0289931"><ele>334.6666666666667</ele><time>2026-04-29T16:59:13.072Z</time></trkpt><trkpt lat="45.3878743" lon="8.0289242"><ele>334.0</ele><time>2026-04-29T16:59:14.071Z</time></trkpt><trkpt lat="45.387813" lon="8.0288657"><ele>333.33333333333337</ele><time>2026-04-29T16:59:15.072Z</time></trkpt><trkpt lat="45.3877507" lon="8.0288233"><ele>332.6666666666667</ele><time>2026-04-29T16:59:16.076Z</time></trkpt><trkpt lat="45.3876469" lon="8.0287729"><ele>332.0</ele><time>2026-04-29T16:59:18.069Z</time></trkpt><trkpt lat="45.3875957" lon="8.0287133"><ele>332.0</ele><time>2026-04-29T16:59:20.067Z</time></trkpt><trkpt lat="45.3875996" lon="8.0286043"><ele>332.0</ele><time>2026-04-29T16:59:22.071Z</time></trkpt><trkpt lat="45.3876529" lon="8.0284257"><ele>332.0</ele><time>2026-04-29T16:59:24.074Z</time></trkpt><trkpt lat="45.3876681" lon="8.0283141"><ele>332.0</ele><time>2026-04-29T16:59:25.07Z</time></trkpt><trkpt lat="45.3876673" lon="8.0281959"><ele>332.0</ele><time>2026-04-29T16:59:26.078Z</time></trkpt><trkpt lat="45.3876394" lon="8.0280667"><ele>332.0</ele><time>2026-04-29T16:59:27.075Z</time></trkpt><trkpt lat="45.3875866" lon="8.0279288"><ele>332.0</ele><time>2026-04-29T16:59:28.078Z</time></trkpt><trkpt lat="45.3875172" lon="8.0277806"><ele>332.0</ele><time>2026-04-29T16:59:29.073Z</time></trkpt><trkpt lat="45.3874353" lon="8.027635"><ele>332.0</ele><time>2026-04-29T16:59:30.078Z</time></trkpt><trkpt lat="45.3873569" lon="8.027508"><ele>332.0</ele><time>2026-04-29T16:59:31.075Z</time></trkpt><trkpt lat="45.387291" lon="8.0274007"><ele>332.0</ele><time>2026-04-29T16:59:32.075Z</time></trkpt><trkpt lat="45.387244" lon="8.0273171"><ele>332.0</ele><time>2026-04-29T16:59:33.076Z</time></trkpt><trkpt lat="45.3872084" lon="8.0271703"><ele>332.0</ele><time>2026-04-29T16:59:35.075Z</time></trkpt><trkpt lat="45.3872319" lon="8.0269934"><ele>332.0</ele><time>2026-04-29T16:59:37.078Z</time></trkpt><trkpt lat="45.3872486" lon="8.026887"><ele>332.0</ele><time>2026-04-29T16:59:38.071Z</time></trkpt><trkpt lat="45.3872597" lon="8.0267735"><ele>332.0</ele><time>2026-04-29T16:59:39.077Z</time></trkpt><trkpt lat="45.3872658" lon="8.026657"><ele>332.0</ele><time>2026-04-29T16:59:40.076Z</time></trkpt><trkpt lat="45.3872693" lon="8.0265445"><ele>332.0</ele><time>2026-04-29T16:59:41.075Z</time></trkpt><trkpt lat="45.387271" lon="8.0264336"><ele>332.0</ele><time>2026-04-29T16:59:42.071Z</time></trkpt><trkpt lat="45.3872725" lon="8.0263297"><ele>332.0</ele><time>2026-04-29T16:59:43.069Z</time></trkpt><trkpt lat="45.3872743" lon="8.0262262"><ele>332.20000000000005</ele><time>2026-04-29T16:59:44.076Z</time></trkpt><trkpt lat="45.3872772" lon="8.0261159"><ele>332.4</ele><time>2026-04-29T16:59:45.076Z</time></trkpt><trkpt lat="45.3872838" lon="8.0259962"><ele>332.6</ele><time>2026-04-29T16:59:46.076Z</time></trkpt><trkpt lat="45.3872974" lon="8.0258663"><ele>332.79999999999995</ele><time>2026-04-29T16:59:47.079Z</time></trkpt><trkpt lat="45.3873133" lon="8.0257223"><ele>333.0</ele><time>2026-04-29T16:59:48.073Z</time></trkpt><trkpt lat="45.3873309" lon="8.0255686"><ele>333.25</ele><time>2026-04-29T16:59:49.073Z</time></trkpt><trkpt lat="45.3873496" lon="8.0254036"><ele>333.5</ele><time>2026-04-29T16:59:50.072Z</time></trkpt><trkpt lat="45.3873727" lon="8.0252421"><ele>333.75</ele><time>2026-04-29T16:59:51.085Z</time></trkpt><trkpt lat="45.387397" lon="8.0250802"><ele>334.0</ele><time>2026-04-29T16:59:52.078Z</time></trkpt><trkpt lat="45.3874231" lon="8.0249243"><ele>335.4</ele><time>2026-04-29T16:59:53.079Z</time></trkpt><trkpt lat="45.3874507" lon="8.0247739"><ele>336.79999999999995</ele><time>2026-04-29T16:59:54.078Z</time></trkpt><trkpt lat="45.3874731" lon="8.0246406"><ele>338.20000000000005</ele><time>2026-04-29T16:59:55.072Z</time></trkpt><trkpt lat="45.3874907" lon="8.0245227"><ele>339.6</ele><time>2026-04-29T16:59:56.076Z</time></trkpt><trkpt lat="45.3874986" lon="8.0244266"><ele>341.0</ele><time>2026-04-29T16:59:57.075Z</time></trkpt><trkpt lat="45.3874906" lon="8.024295"><ele>341.0</ele><time>2026-04-29T16:59:59.079Z</time></trkpt><trkpt lat="45.3874831" lon="8.0241545"><ele>341.0</ele><time>2026-04-29T17:00:02.07Z</time></trkpt><trkpt lat="45.3874904" lon="8.0240349"><ele>341.0</ele><time>2026-04-29T17:00:04.074Z</time></trkpt><trkpt lat="45.387462" lon="8.0239011"><ele>341.0</ele><time>2026-04-29T17:00:06.068Z</time></trkpt><trkpt lat="45.3873946" lon="8.0237662"><ele>341.0</ele><time>2026-04-29T17:00:08.074Z</time></trkpt><trkpt lat="45.3873525" lon="8.0236995"><ele>341.33333333333337</ele><time>2026-04-29T17:00:09.071Z</time></trkpt><trkpt lat="45.3872704" lon="8.0235633"><ele>341.6666666666667</ele><time>2026-04-29T17:00:11.07Z</time></trkpt><trkpt lat="45.3872264" lon="8.0234837"><ele>342.0</ele><time>2026-04-29T17:00:12.074Z</time></trkpt><trkpt lat="45.3871816" lon="8.0233979"><ele>342.3333333333333</ele><time>2026-04-29T17:00:13.077Z</time></trkpt><trkpt lat="45.3871367" lon="8.0233002"><ele>342.66666666666663</ele><time>2026-04-29T17:00:14.078Z</time></trkpt><trkpt lat="45.3870904" lon="8.0232092"><ele>343.0</ele><time>2026-04-29T17:00:15.073Z</time></trkpt><trkpt lat="45.3870394" lon="8.0231084"><ele>344.0</ele><time>2026-04-29T17:00:16.072Z</time></trkpt><trkpt lat="45.3869811" lon="8.0230064"><ele>345.0</ele><time>2026-04-29T17:00:17.08Z</time></trkpt><trkpt lat="45.3869181" lon="8.0229102"><ele>346.0</ele><time>2026-04-29T17:00:18.079Z</time></trkpt><trkpt lat="45.3868558" lon="8.0228209"><ele>347.0</ele><time>2026-04-29T17:00:19.072Z</time></trkpt><trkpt lat="45.3867949" lon="8.0227382"><ele>348.0</ele><time>2026-04-29T17:00:20.076Z</time></trkpt><trkpt lat="45.3867372" lon="8.0226559"><ele>349.0</ele><time>2026-04-29T17:00:21.076Z</time></trkpt><trkpt lat="45.3866815" lon="8.0225712"><ele>349.0</ele><time>2026-04-29T17:00:22.075Z</time></trkpt><trkpt lat="45.3866265" lon="8.0224873"><ele>349.0</ele><time>2026-04-29T17:00:23.079Z</time></trkpt><trkpt lat="45.386573" lon="8.0224075"><ele>349.0</ele><time>2026-04-29T17:00:24.073Z</time></trkpt><trkpt lat="45.386519" lon="8.0223277"><ele>349.0</ele><time>2026-04-29T17:00:25.078Z</time></trkpt><trkpt lat="45.3864648" lon="8.0222505"><ele>349.0</ele><time>2026-04-29T17:00:26.072Z</time></trkpt><trkpt lat="45.3864151" lon="8.0221789"><ele>349.0</ele><time>2026-04-29T17:00:27.073Z</time></trkpt><trkpt lat="45.3863623" lon="8.0221044"><ele>349.57142857142856</ele><time>2026-04-29T17:00:28.076Z</time></trkpt><trkpt lat="45.3863111" lon="8.0220298"><ele>350.1428571428571</ele><time>2026-04-29T17:00:29.073Z</time></trkpt><trkpt lat="45.38626" lon="8.0219563"><ele>350.71428571428567</ele><time>2026-04-29T17:00:30.075Z</time></trkpt><trkpt lat="45.3862096" lon="8.0218866"><ele>351.2857142857143</ele><time>2026-04-29T17:00:31.071Z</time></trkpt><trkpt lat="45.3861547" lon="8.0218188"><ele>351.8571428571429</ele><time>2026-04-29T17:00:32.079Z</time></trkpt><trkpt lat="45.3860953" lon="8.0217498"><ele>352.4285714285714</ele><time>2026-04-29T17:00:33.074Z</time></trkpt><trkpt lat="45.3860322" lon="8.0216809"><ele>353.0</ele><time>2026-04-29T17:00:34.073Z</time></trkpt><trkpt lat="45.385964" lon="8.0216147"><ele>353.59999999999997</ele><time>2026-04-29T17:00:35.069Z</time></trkpt><trkpt lat="45.3858914" lon="8.0215455"><ele>354.2</ele><time>2026-04-29T17:00:36.074Z</time></trkpt><trkpt lat="45.3858094" lon="8.0214754"><ele>354.8</ele><time>2026-04-29T17:00:37.077Z</time></trkpt><trkpt lat="45.385723" lon="8.0214049"><ele>355.4</ele><time>2026-04-29T17:00:38.073Z</time></trkpt><trkpt lat="45.3856317" lon="8.021334"><ele>356.0</ele><time>2026-04-29T17:00:39.073Z</time></trkpt><trkpt lat="45.3855406" lon="8.0212597"><ele>355.6</ele><time>2026-04-29T17:00:40.074Z</time></trkpt><trkpt lat="45.3854568" lon="8.0211887"><ele>355.20000000000005</ele><time>2026-04-29T17:00:41.077Z</time></trkpt><trkpt lat="45.3853767" lon="8.0211181"><ele>354.79999999999995</ele><time>2026-04-29T17:00:42.075Z</time></trkpt><trkpt lat="45.3853003" lon="8.0210405"><ele>354.4</ele><time>2026-04-29T17:00:43.076Z</time></trkpt><trkpt lat="45.38523" lon="8.0209518"><ele>354.0</ele><time>2026-04-29T17:00:44.081Z</time></trkpt><trkpt lat="45.3851643" lon="8.020854"><ele>354.0</ele><time>2026-04-29T17:00:45.074Z</time></trkpt><trkpt lat="45.3850993" lon="8.0207472"><ele>354.0</ele><time>2026-04-29T17:00:46.075Z</time></trkpt><trkpt lat="45.3850388" lon="8.0206317"><ele>354.0</ele><time>2026-04-29T17:00:47.078Z</time></trkpt><trkpt lat="45.3849811" lon="8.0205162"><ele>354.0</ele><time>2026-04-29T17:00:48.078Z</time></trkpt><trkpt lat="45.3849221" lon="8.0203988"><ele>354.0</ele><time>2026-04-29T17:00:49.073Z</time></trkpt><trkpt lat="45.3848578" lon="8.0202797"><ele>354.0</ele><time>2026-04-29T17:00:50.078Z</time></trkpt><trkpt lat="45.384787" lon="8.0201666"><ele>354.0</ele><time>2026-04-29T17:00:51.072Z</time></trkpt><trkpt lat="45.3847106" lon="8.0200608"><ele>354.0</ele><time>2026-04-29T17:00:52.072Z</time></trkpt><trkpt lat="45.3846286" lon="8.0199573"><ele>354.0</ele><time>2026-04-29T17:00:53.077Z</time></trkpt><trkpt lat="45.3845441" lon="8.0198539"><ele>354.0</ele><time>2026-04-29T17:00:54.078Z</time></trkpt><trkpt lat="45.384461" lon="8.0197502"><ele>354.4</ele><time>2026-04-29T17:00:55.074Z</time></trkpt><trkpt lat="45.3843827" lon="8.019648"><ele>354.79999999999995</ele><time>2026-04-29T17:00:56.082Z</time></trkpt><trkpt lat="45.3843084" lon="8.0195446"><ele>355.20000000000005</ele><time>2026-04-29T17:00:57.076Z</time></trkpt><trkpt lat="45.3842366" lon="8.0194419"><ele>355.6</ele><time>2026-04-29T17:00:58.081Z</time></trkpt><trkpt lat="45.3841677" lon="8.0193351"><ele>356.0</ele><time>2026-04-29T17:00:59.076Z</time></trkpt><trkpt lat="45.3840979" lon="8.0192193"><ele>356.33333333333337</ele><time>2026-04-29T17:01:00.07Z</time></trkpt><trkpt lat="45.3840305" lon="8.0190997"><ele>356.6666666666667</ele><time>2026-04-29T17:01:01.07Z</time></trkpt><trkpt lat="45.3839679" lon="8.0189853"><ele>357.0</ele><time>2026-04-29T17:01:02.072Z</time></trkpt><trkpt lat="45.3839109" lon="8.0188796"><ele>357.3333333333333</ele><time>2026-04-29T17:01:03.077Z</time></trkpt><trkpt lat="45.3838615" lon="8.0187884"><ele>357.66666666666663</ele><time>2026-04-29T17:01:04.076Z</time></trkpt><trkpt lat="45.3838262" lon="8.0187103"><ele>358.0</ele><time>2026-04-29T17:01:05.074Z</time></trkpt><trkpt lat="45.3838158" lon="8.0185571"><ele>356.79999999999995</ele><time>2026-04-29T17:01:07.071Z</time></trkpt><trkpt lat="45.3838244" lon="8.0183876"><ele>355.6</ele><time>2026-04-29T17:01:09.072Z</time></trkpt><trkpt lat="45.3837922" lon="8.0183056"><ele>354.4</ele><time>2026-04-29T17:01:10.078Z</time></trkpt><trkpt lat="45.3837312" lon="8.0182236"><ele>353.20000000000005</ele><time>2026-04-29T17:01:11.079Z</time></trkpt><trkpt lat="45.3836533" lon="8.018125"><ele>352.0</ele><time>2026-04-29T17:01:12.072Z</time></trkpt><trkpt lat="45.3835611" lon="8.0180054"><ele>351.75</ele><time>2026-04-29T17:01:13.075Z</time></trkpt><trkpt lat="45.3834663" lon="8.0178684"><ele>351.5</ele><time>2026-04-29T17:01:14.079Z</time></trkpt><trkpt lat="45.3833684" lon="8.0177175"><ele>351.25</ele><time>2026-04-29T17:01:15.076Z</time></trkpt><trkpt lat="45.3832743" lon="8.0175688"><ele>351.0</ele><time>2026-04-29T17:01:16.07Z</time></trkpt><trkpt lat="45.383184" lon="8.0174223"><ele>350.5</ele><time>2026-04-29T17:01:17.074Z</time></trkpt><trkpt lat="45.3830972" lon="8.0172798"><ele>350.0</ele><time>2026-04-29T17:01:18.079Z</time></trkpt><trkpt lat="45.3830134" lon="8.0171386"><ele>349.5</ele><time>2026-04-29T17:01:19.077Z</time></trkpt><trkpt lat="45.3829332" lon="8.0169993"><ele>349.0</ele><time>2026-04-29T17:01:20.079Z</time></trkpt><trkpt lat="45.3828597" lon="8.0168625"><ele>349.0</ele><time>2026-04-29T17:01:21.079Z</time></trkpt><trkpt lat="45.3827956" lon="8.0167332"><ele>349.0</ele><time>2026-04-29T17:01:22.073Z</time></trkpt><trkpt lat="45.3827409" lon="8.0166136"><ele>349.0</ele><time>2026-04-29T17:01:23.071Z</time></trkpt><trkpt lat="45.3826953" lon="8.0164944"><ele>349.0</ele><time>2026-04-29T17:01:24.072Z</time></trkpt><trkpt lat="45.3826585" lon="8.0163673"><ele>349.0</ele><time>2026-04-29T17:01:25.074Z</time></trkpt><trkpt lat="45.3826228" lon="8.0162234"><ele>350.2</ele><time>2026-04-29T17:01:26.082Z</time></trkpt><trkpt lat="45.3825883" lon="8.0160694"><ele>351.4</ele><time>2026-04-29T17:01:27.076Z</time></trkpt><trkpt lat="45.3825584" lon="8.015916"><ele>352.6</ele><time>2026-04-29T17:01:28.073Z</time></trkpt><trkpt lat="45.3825343" lon="8.0157624"><ele>353.8</ele><time>2026-04-29T17:01:29.075Z</time></trkpt><trkpt lat="45.3825187" lon="8.0156098"><ele>355.0</ele><time>2026-04-29T17:01:30.074Z</time></trkpt><trkpt lat="45.3825124" lon="8.0154652"><ele>355.4</ele><time>2026-04-29T17:01:31.07Z</time></trkpt><trkpt lat="45.3825122" lon="8.0153264"><ele>355.8</ele><time>2026-04-29T17:01:32.071Z</time></trkpt><trkpt lat="45.3825162" lon="8.0151913"><ele>356.20000000000005</ele><time>2026-04-29T17:01:33.073Z</time></trkpt><trkpt lat="45.3825194" lon="8.0150618"><ele>356.6</ele><time>2026-04-29T17:01:34.068Z</time></trkpt><trkpt lat="45.3825149" lon="8.0149375"><ele>357.0</ele><time>2026-04-29T17:01:35.076Z</time></trkpt><trkpt lat="45.3824994" lon="8.0148154"><ele>357.20000000000005</ele><time>2026-04-29T17:01:36.076Z</time></trkpt><trkpt lat="45.3824695" lon="8.0146921"><ele>357.4</ele><time>2026-04-29T17:01:37.078Z</time></trkpt><trkpt lat="45.3824188" lon="8.0145628"><ele>357.6</ele><time>2026-04-29T17:01:38.071Z</time></trkpt><trkpt lat="45.3823464" lon="8.0144284"><ele>357.79999999999995</ele><time>2026-04-29T17:01:39.073Z</time></trkpt><trkpt lat="45.3822643" lon="8.0142931"><ele>358.0</ele><time>2026-04-29T17:01:40.072Z</time></trkpt><trkpt lat="45.3821839" lon="8.0141546"><ele>357.0</ele><time>2026-04-29T17:01:41.083Z</time></trkpt><trkpt lat="45.3821232" lon="8.0140269"><ele>356.0</ele><time>2026-04-29T17:01:42.078Z</time></trkpt><trkpt lat="45.3820746" lon="8.0139005"><ele>355.0</ele><time>2026-04-29T17:01:43.076Z</time></trkpt><trkpt lat="45.3820471" lon="8.0137885"><ele>354.0</ele><time>2026-04-29T17:01:44.072Z</time></trkpt><trkpt lat="45.3820373" lon="8.0136807"><ele>353.0</ele><time>2026-04-29T17:01:45.077Z</time></trkpt><trkpt lat="45.3820414" lon="8.0135638"><ele>353.0</ele><time>2026-04-29T17:01:46.078Z</time></trkpt><trkpt lat="45.3820496" lon="8.013439"><ele>353.0</ele><time>2026-04-29T17:01:47.079Z</time></trkpt><trkpt lat="45.3820566" lon="8.0133041"><ele>353.0</ele><time>2026-04-29T17:01:48.077Z</time></trkpt><trkpt lat="45.3820552" lon="8.0131611"><ele>353.0</ele><time>2026-04-29T17:01:49.079Z</time></trkpt><trkpt lat="45.3820381" lon="8.0130095"><ele>353.0</ele><time>2026-04-29T17:01:50.076Z</time></trkpt><trkpt lat="45.3820087" lon="8.0128508"><ele>352.79999999999995</ele><time>2026-04-29T17:01:51.075Z</time></trkpt><trkpt lat="45.3819785" lon="8.012697"><ele>352.6</ele><time>2026-04-29T17:01:52.076Z</time></trkpt><trkpt lat="45.3819493" lon="8.0125567"><ele>352.4</ele><time>2026-04-29T17:01:53.079Z</time></trkpt><trkpt lat="45.3819174" lon="8.0124333"><ele>352.20000000000005</ele><time>2026-04-29T17:01:54.072Z</time></trkpt><trkpt lat="45.3818597" lon="8.012319"><ele>352.0</ele><time>2026-04-29T17:01:55.081Z</time></trkpt><trkpt lat="45.3817816" lon="8.012217"><ele>352.8</ele><time>2026-04-29T17:01:56.075Z</time></trkpt><trkpt lat="45.3817009" lon="8.0121137"><ele>353.6</ele><time>2026-04-29T17:01:57.072Z</time></trkpt><trkpt lat="45.3816326" lon="8.0120037"><ele>354.40000000000003</ele><time>2026-04-29T17:01:58.078Z</time></trkpt><trkpt lat="45.381582" lon="8.0118795"><ele>355.20000000000005</ele><time>2026-04-29T17:01:59.078Z</time></trkpt><trkpt lat="45.3815472" lon="8.011743"><ele>356.0</ele><time>2026-04-29T17:02:00.072Z</time></trkpt><trkpt lat="45.3815148" lon="8.0115914"><ele>356.5</ele><time>2026-04-29T17:02:01.077Z</time></trkpt><trkpt lat="45.3814781" lon="8.0114342"><ele>357.0</ele><time>2026-04-29T17:02:02.078Z</time></trkpt><trkpt lat="45.3814359" lon="8.0112766"><ele>357.5</ele><time>2026-04-29T17:02:03.071Z</time></trkpt><trkpt lat="45.3813881" lon="8.0111199"><ele>358.0</ele><time>2026-04-29T17:02:04.073Z</time></trkpt><trkpt lat="45.3813367" lon="8.0109663"><ele>357.2</ele><time>2026-04-29T17:02:05.074Z</time></trkpt><trkpt lat="45.3812826" lon="8.0108183"><ele>356.4</ele><time>2026-04-29T17:02:06.076Z</time></trkpt><trkpt lat="45.3812308" lon="8.0106755"><ele>355.59999999999997</ele><time>2026-04-29T17:02:07.075Z</time></trkpt><trkpt lat="45.3811838" lon="8.0105347"><ele>354.79999999999995</ele><time>2026-04-29T17:02:08.081Z</time></trkpt><trkpt lat="45.3811417" lon="8.0103953"><ele>354.0</ele><time>2026-04-29T17:02:09.076Z</time></trkpt><trkpt lat="45.3811047" lon="8.0102556"><ele>354.0</ele><time>2026-04-29T17:02:10.081Z</time></trkpt><trkpt lat="45.381071" lon="8.010118"><ele>354.0</ele><time>2026-04-29T17:02:11.076Z</time></trkpt><trkpt lat="45.3810424" lon="8.0099935"><ele>354.0</ele><time>2026-04-29T17:02:12.073Z</time></trkpt><trkpt lat="45.3810202" lon="8.0098847"><ele>354.0</ele><time>2026-04-29T17:02:13.074Z</time></trkpt><trkpt lat="45.3810033" lon="8.0097935"><ele>354.0</ele><time>2026-04-29T17:02:14.077Z</time></trkpt><trkpt lat="45.3809878" lon="8.0096655"><ele>354.0</ele><time>2026-04-29T17:02:16.075Z</time></trkpt><trkpt lat="45.3810348" lon="8.0095447"><ele>353.75</ele><time>2026-04-29T17:02:19.074Z</time></trkpt><trkpt lat="45.3811563" lon="8.0094322"><ele>353.5</ele><time>2026-04-29T17:02:21.077Z</time></trkpt><trkpt lat="45.3812508" lon="8.0093515"><ele>353.25</ele><time>2026-04-29T17:02:22.078Z</time></trkpt><trkpt lat="45.3813664" lon="8.0092521"><ele>353.0</ele><time>2026-04-29T17:02:23.08Z</time></trkpt><trkpt lat="45.3815014" lon="8.0091384"><ele>352.6666666666667</ele><time>2026-04-29T17:02:24.073Z</time></trkpt><trkpt lat="45.3816545" lon="8.0090271"><ele>352.3333333333333</ele><time>2026-04-29T17:02:25.081Z</time></trkpt><trkpt lat="45.3818118" lon="8.0089339"><ele>352.0</ele><time>2026-04-29T17:02:26.082Z</time></trkpt><trkpt lat="45.3819569" lon="8.0088652"><ele>352.0</ele><time>2026-04-29T17:02:27.08Z</time></trkpt><trkpt lat="45.3820894" lon="8.0088213"><ele>352.0</ele><time>2026-04-29T17:02:28.08Z</time></trkpt><trkpt lat="45.3822127" lon="8.0087888"><ele>352.0</ele><time>2026-04-29T17:02:29.075Z</time></trkpt><trkpt lat="45.3823332" lon="8.0087646"><ele>352.0</ele><time>2026-04-29T17:02:30.078Z</time></trkpt><trkpt lat="45.3824561" lon="8.0087404"><ele>353.0</ele><time>2026-04-29T17:02:31.075Z</time></trkpt><trkpt lat="45.3825774" lon="8.0087153"><ele>354.0</ele><time>2026-04-29T17:02:32.076Z</time></trkpt><trkpt lat="45.3826968" lon="8.0086868"><ele>355.0</ele><time>2026-04-29T17:02:33.081Z</time></trkpt><trkpt lat="45.3828133" lon="8.0086591"><ele>356.0</ele><time>2026-04-29T17:02:34.074Z</time></trkpt><trkpt lat="45.3829207" lon="8.0086354"><ele>356.1666666666667</ele><time>2026-04-29T17:02:35.069Z</time></trkpt><trkpt lat="45.3830192" lon="8.0086138"><ele>356.33333333333337</ele><time>2026-04-29T17:02:36.073Z</time></trkpt><trkpt lat="45.3831101" lon="8.0085932"><ele>356.5</ele><time>2026-04-29T17:02:37.08Z</time></trkpt><trkpt lat="45.3831936" lon="8.0085703"><ele>356.6666666666667</ele><time>2026-04-29T17:02:38.074Z</time></trkpt><trkpt lat="45.3832728" lon="8.0085468"><ele>356.8333333333333</ele><time>2026-04-29T17:02:39.08Z</time></trkpt><trkpt lat="45.3833452" lon="8.008527"><ele>357.0</ele><time>2026-04-29T17:02:40.075Z</time></trkpt><trkpt lat="45.3834092" lon="8.0085066"><ele>357.0</ele><time>2026-04-29T17:02:41.077Z</time></trkpt><trkpt lat="45.3834801" lon="8.0084331"><ele>357.0</ele><time>2026-04-29T17:02:43.081Z</time></trkpt><trkpt lat="45.383465" lon="8.00827"><ele>357.0</ele><time>2026-04-29T17:02:45.072Z</time></trkpt><trkpt lat="45.3834349" lon="8.0081688"><ele>357.0</ele><time>2026-04-29T17:02:46.074Z</time></trkpt><trkpt lat="45.383393" lon="8.0080943"><ele>357.0</ele><time>2026-04-29T17:02:47.077Z</time></trkpt><trkpt lat="45.383335" lon="8.0080566"><ele>357.0</ele><time>2026-04-29T17:02:48.072Z</time></trkpt><trkpt lat="45.3832608" lon="8.0080511"><ele>358.8</ele><time>2026-04-29T17:02:49.076Z</time></trkpt><trkpt lat="45.3831694" lon="8.0080592"><ele>360.6</ele><time>2026-04-29T17:02:50.08Z</time></trkpt><trkpt lat="45.3830606" lon="8.008065"><ele>362.40000000000003</ele><time>2026-04-29T17:02:51.077Z</time></trkpt><trkpt lat="45.3829426" lon="8.0080558"><ele>364.20000000000005</ele><time>2026-04-29T17:02:52.08Z</time></trkpt><trkpt lat="45.3828266" lon="8.0080366"><ele>366.0</ele><time>2026-04-29T17:02:53.081Z</time></trkpt><trkpt lat="45.3827211" lon="8.0080126"><ele>366.0</ele><time>2026-04-29T17:02:54.075Z</time></trkpt><trkpt lat="45.3826208" lon="8.0079958"><ele>366.0</ele><time>2026-04-29T17:02:55.077Z</time></trkpt><trkpt lat="45.3825277" lon="8.0079832"><ele>366.0</ele><time>2026-04-29T17:02:56.077Z</time></trkpt><trkpt lat="45.3824449" lon="8.0079689"><ele>366.0</ele><time>2026-04-29T17:02:57.073Z</time></trkpt><trkpt lat="45.3823649" lon="8.0079624"><ele>366.0</ele><time>2026-04-29T17:02:58.08Z</time></trkpt><trkpt lat="45.3822803" lon="8.0079653"><ele>366.0</ele><time>2026-04-29T17:02:59.074Z</time></trkpt><trkpt lat="45.3821919" lon="8.0079749"><ele>364.20000000000005</ele><time>2026-04-29T17:03:00.073Z</time></trkpt><trkpt lat="45.3820998" lon="8.0079938"><ele>362.40000000000003</ele><time>2026-04-29T17:03:01.071Z</time></trkpt><trkpt lat="45.3820078" lon="8.0080277"><ele>360.6</ele><time>2026-04-29T17:03:02.075Z</time></trkpt><trkpt lat="45.381917" lon="8.0080799"><ele>358.8</ele><time>2026-04-29T17:03:03.076Z</time></trkpt><trkpt lat="45.3818251" lon="8.0081403"><ele>357.0</ele><time>2026-04-29T17:03:04.08Z</time></trkpt><trkpt lat="45.3817377" lon="8.0081987"><ele>357.0</ele><time>2026-04-29T17:03:05.08Z</time></trkpt><trkpt lat="45.3816616" lon="8.0082486"><ele>357.0</ele><time>2026-04-29T17:03:06.073Z</time></trkpt><trkpt lat="45.3816002" lon="8.0082817"><ele>357.0</ele><time>2026-04-29T17:03:07.074Z</time></trkpt><trkpt lat="45.3815226" lon="8.0082795"><ele>357.0</ele><time>2026-04-29T17:03:09.072Z</time></trkpt><trkpt lat="45.3814765" lon="8.0082002"><ele>357.0</ele><time>2026-04-29T17:03:11.078Z</time></trkpt><trkpt lat="45.3814383" lon="8.0080567"><ele>357.0</ele><time>2026-04-29T17:03:13.079Z</time></trkpt><trkpt lat="45.3814221" lon="8.007968"><ele>357.0</ele><time>2026-04-29T17:03:14.078Z</time></trkpt><trkpt lat="45.3814017" lon="8.0078719"><ele>357.0</ele><time>2026-04-29T17:03:15.072Z</time></trkpt><trkpt lat="45.3813783" lon="8.0077707"><ele>357.0</ele><time>2026-04-29T17:03:16.076Z</time></trkpt><trkpt lat="45.3813565" lon="8.0076632"><ele>357.0</ele><time>2026-04-29T17:03:17.073Z</time></trkpt><trkpt lat="45.3813368" lon="8.0075536"><ele>357.0</ele><time>2026-04-29T17:03:18.075Z</time></trkpt><trkpt lat="45.3813182" lon="8.0074418"><ele>357.0</ele><time>2026-04-29T17:03:19.079Z</time></trkpt><trkpt lat="45.3813012" lon="8.0073308"><ele>357.14285714285717</ele><time>2026-04-29T17:03:20.079Z</time></trkpt><trkpt lat="45.3812841" lon="8.0072194"><ele>357.2857142857143</ele><time>2026-04-29T17:03:21.076Z</time></trkpt><trkpt lat="45.3812705" lon="8.0071095"><ele>357.42857142857144</ele><time>2026-04-29T17:03:22.078Z</time></trkpt><trkpt lat="45.3812569" lon="8.0070099"><ele>357.57142857142856</ele><time>2026-04-29T17:03:23.077Z</time></trkpt><trkpt lat="45.3812351" lon="8.0069176"><ele>357.7142857142857</ele><time>2026-04-29T17:03:24.078Z</time></trkpt><trkpt lat="45.3812001" lon="8.0068288"><ele>357.8571428571429</ele><time>2026-04-29T17:03:25.073Z</time></trkpt><trkpt lat="45.3811514" lon="8.0067452"><ele>358.0</ele><time>2026-04-29T17:03:26.077Z</time></trkpt><trkpt lat="45.3811022" lon="8.0066673"><ele>358.5</ele><time>2026-04-29T17:03:27.073Z</time></trkpt><trkpt lat="45.3810588" lon="8.0065848"><ele>359.0</ele><time>2026-04-29T17:03:28.074Z</time></trkpt><trkpt lat="45.3810228" lon="8.0064931"><ele>359.5</ele><time>2026-04-29T17:03:29.071Z</time></trkpt><trkpt lat="45.3809976" lon="8.0063899"><ele>360.0</ele><time>2026-04-29T17:03:30.075Z</time></trkpt><trkpt lat="45.3809865" lon="8.0062737"><ele>360.5</ele><time>2026-04-29T17:03:31.077Z</time></trkpt><trkpt lat="45.3809905" lon="8.0061453"><ele>361.0</ele><time>2026-04-29T17:03:32.072Z</time></trkpt><trkpt lat="45.3810083" lon="8.0060144"><ele>361.0</ele><time>2026-04-29T17:03:33.074Z</time></trkpt><trkpt lat="45.3810284" lon="8.0058809"><ele>361.0</ele><time>2026-04-29T17:03:34.073Z</time></trkpt><trkpt lat="45.3810459" lon="8.005747"><ele>361.0</ele><time>2026-04-29T17:03:35.072Z</time></trkpt><trkpt lat="45.3810605" lon="8.0056195"><ele>361.0</ele><time>2026-04-29T17:03:36.075Z</time></trkpt><trkpt lat="45.3810704" lon="8.0054987"><ele>361.0</ele><time>2026-04-29T17:03:37.073Z</time></trkpt><trkpt lat="45.3810679" lon="8.0053807"><ele>361.20000000000005</ele><time>2026-04-29T17:03:38.07Z</time></trkpt><trkpt lat="45.3810533" lon="8.0052664"><ele>361.40000000000003</ele><time>2026-04-29T17:03:39.079Z</time></trkpt><trkpt lat="45.3810324" lon="8.0051473"><ele>361.6</ele><time>2026-04-29T17:03:40.076Z</time></trkpt><trkpt lat="45.3810135" lon="8.0050176"><ele>361.8</ele><time>2026-04-29T17:03:41.076Z</time></trkpt><trkpt lat="45.3809987" lon="8.0048788"><ele>362.0</ele><time>2026-04-29T17:03:42.073Z</time></trkpt><trkpt lat="45.380986" lon="8.0047377"><ele>362.1666666666667</ele><time>2026-04-29T17:03:43.077Z</time></trkpt><trkpt lat="45.380978" lon="8.0045983"><ele>362.33333333333337</ele><time>2026-04-29T17:03:44.076Z</time></trkpt><trkpt lat="45.3809765" lon="8.0044648"><ele>362.5</ele><time>2026-04-29T17:03:45.077Z</time></trkpt><trkpt lat="45.3809777" lon="8.0043433"><ele>362.6666666666667</ele><time>2026-04-29T17:03:46.074Z</time></trkpt><trkpt lat="45.380977" lon="8.004233"><ele>362.8333333333333</ele><time>2026-04-29T17:03:47.077Z</time></trkpt><trkpt lat="45.3809735" lon="8.0041329"><ele>363.0</ele><time>2026-04-29T17:03:48.076Z</time></trkpt><trkpt lat="45.3809678" lon="8.0040338"><ele>363.6666666666667</ele><time>2026-04-29T17:03:49.08Z</time></trkpt><trkpt lat="45.3809633" lon="8.0039294"><ele>364.3333333333333</ele><time>2026-04-29T17:03:50.079Z</time></trkpt><trkpt lat="45.3809622" lon="8.0038163"><ele>365.0</ele><time>2026-04-29T17:03:51.07Z</time></trkpt><trkpt lat="45.3809664" lon="8.0036925"><ele>365.66666666666663</ele><time>2026-04-29T17:03:52.077Z</time></trkpt><trkpt lat="45.3809748" lon="8.0035614"><ele>366.3333333333333</ele><time>2026-04-29T17:03:53.083Z</time></trkpt><trkpt lat="45.3809806" lon="8.0034305"><ele>367.0</ele><time>2026-04-29T17:03:54.079Z</time></trkpt><trkpt lat="45.3809833" lon="8.0033041"><ele>367.5</ele><time>2026-04-29T17:03:55.08Z</time></trkpt><trkpt lat="45.3809796" lon="8.003192"><ele>368.0</ele><time>2026-04-29T17:03:56.072Z</time></trkpt><trkpt lat="45.380971" lon="8.0031021"><ele>368.5</ele><time>2026-04-29T17:03:57.077Z</time></trkpt><trkpt lat="45.3809437" lon="8.0029751"><ele>369.0</ele><time>2026-04-29T17:03:59.074Z</time></trkpt><trkpt lat="45.3808743" lon="8.002911"><ele>369.5</ele><time>2026-04-29T17:04:02.074Z</time></trkpt><trkpt lat="45.3807815" lon="8.0029146"><ele>370.0</ele><time>2026-04-29T17:04:04.074Z</time></trkpt><trkpt lat="45.3806893" lon="8.0028598"><ele>370.0</ele><time>2026-04-29T17:04:06.076Z</time></trkpt><trkpt lat="45.3806353" lon="8.0027242"><ele>370.0</ele><time>2026-04-29T17:04:08.074Z</time></trkpt><trkpt lat="45.3806046" lon="8.0025383"><ele>370.0</ele><time>2026-04-29T17:04:10.078Z</time></trkpt><trkpt lat="45.3805785" lon="8.0024252"><ele>370.0</ele><time>2026-04-29T17:04:11.079Z</time></trkpt><trkpt lat="45.3805468" lon="8.0023096"><ele>370.0</ele><time>2026-04-29T17:04:12.077Z</time></trkpt><trkpt lat="45.3805191" lon="8.0021983"><ele>369.8333333333333</ele><time>2026-04-29T17:04:13.073Z</time></trkpt><trkpt lat="45.3804939" lon="8.0020859"><ele>369.66666666666663</ele><time>2026-04-29T17:04:14.076Z</time></trkpt><trkpt lat="45.3804683" lon="8.0019761"><ele>369.5</ele><time>2026-04-29T17:04:15.077Z</time></trkpt><trkpt lat="45.3804423" lon="8.0018671"><ele>369.3333333333333</ele><time>2026-04-29T17:04:16.082Z</time></trkpt><trkpt lat="45.3804163" lon="8.0017613"><ele>369.1666666666667</ele><time>2026-04-29T17:04:17.077Z</time></trkpt><trkpt lat="45.3803903" lon="8.001655"><ele>369.0</ele><time>2026-04-29T17:04:18.077Z</time></trkpt><trkpt lat="45.3803643" lon="8.0015479"><ele>369.5</ele><time>2026-04-29T17:04:19.079Z</time></trkpt><trkpt lat="45.3803392" lon="8.0014454"><ele>370.0</ele><time>2026-04-29T17:04:20.077Z</time></trkpt><trkpt lat="45.3803162" lon="8.0013487"><ele>370.5</ele><time>2026-04-29T17:04:21.073Z</time></trkpt><trkpt lat="45.380292" lon="8.0012537"><ele>371.0</ele><time>2026-04-29T17:04:22.076Z</time></trkpt><trkpt lat="45.3802617" lon="8.0011494"><ele>371.5</ele><time>2026-04-29T17:04:23.077Z</time></trkpt><trkpt lat="45.3802228" lon="8.0010363"><ele>372.0</ele><time>2026-04-29T17:04:24.082Z</time></trkpt><trkpt lat="45.3801773" lon="8.0009226"><ele>372.0</ele><time>2026-04-29T17:04:25.076Z</time></trkpt><trkpt lat="45.3801355" lon="8.000821"><ele>372.0</ele><time>2026-04-29T17:04:26.081Z</time></trkpt><trkpt lat="45.3801051" lon="8.0007323"><ele>372.0</ele><time>2026-04-29T17:04:27.075Z</time></trkpt><trkpt lat="45.3800745" lon="8.0005759"><ele>372.0</ele><time>2026-04-29T17:04:29.076Z</time></trkpt><trkpt lat="45.3800665" lon="8.0004859"><ele>372.0</ele><time>2026-04-29T17:04:30.078Z</time></trkpt><trkpt lat="45.3800678" lon="8.0003849"><ele>372.0</ele><time>2026-04-29T17:04:31.073Z</time></trkpt><trkpt lat="45.3800761" lon="8.000271"><ele>372.0</ele><time>2026-04-29T17:04:32.073Z</time></trkpt><trkpt lat="45.3800851" lon="8.0001515"><ele>372.0</ele><time>2026-04-29T17:04:33.078Z</time></trkpt><trkpt lat="45.3800921" lon="8.0000287"><ele>372.0</ele><time>2026-04-29T17:04:34.079Z</time></trkpt><trkpt lat="45.380091" lon="7.9999033"><ele>372.0</ele><time>2026-04-29T17:04:35.077Z</time></trkpt><trkpt lat="45.3800844" lon="7.9997794"><ele>372.0</ele><time>2026-04-29T17:04:36.081Z</time></trkpt><trkpt lat="45.3800715" lon="7.9996564"><ele>372.0</ele><time>2026-04-29T17:04:37.074Z</time></trkpt><trkpt lat="45.3800506" lon="7.9995335"><ele>372.0</ele><time>2026-04-29T17:04:38.076Z</time></trkpt><trkpt lat="45.3800269" lon="7.99941"><ele>372.0</ele><time>2026-04-29T17:04:39.072Z</time></trkpt><trkpt lat="45.3800044" lon="7.9992848"><ele>372.0</ele><time>2026-04-29T17:04:40.079Z</time></trkpt><trkpt lat="45.3799774" lon="7.9991518"><ele>372.0</ele><time>2026-04-29T17:04:41.078Z</time></trkpt><trkpt lat="45.3799543" lon="7.9990246"><ele>372.0</ele><time>2026-04-29T17:04:42.073Z</time></trkpt><trkpt lat="45.3799341" lon="7.9988977"><ele>372.6666666666667</ele><time>2026-04-29T17:04:43.082Z</time></trkpt><trkpt lat="45.3799166" lon="7.9987716"><ele>373.3333333333333</ele><time>2026-04-29T17:04:44.074Z</time></trkpt><trkpt lat="45.3798985" lon="7.9986455"><ele>374.0</ele><time>2026-04-29T17:04:45.077Z</time></trkpt><trkpt lat="45.3798809" lon="7.9985202"><ele>374.66666666666663</ele><time>2026-04-29T17:04:46.074Z</time></trkpt><trkpt lat="45.379864" lon="7.9983999"><ele>375.3333333333333</ele><time>2026-04-29T17:04:47.075Z</time></trkpt><trkpt lat="45.3798445" lon="7.9982835"><ele>376.0</ele><time>2026-04-29T17:04:48.078Z</time></trkpt><trkpt lat="45.3798229" lon="7.9981627"><ele>376.8</ele><time>2026-04-29T17:04:49.079Z</time></trkpt><trkpt lat="45.379801" lon="7.9980376"><ele>377.6</ele><time>2026-04-29T17:04:50.08Z</time></trkpt><trkpt lat="45.3797806" lon="7.9979092"><ele>378.4</ele><time>2026-04-29T17:04:51.075Z</time></trkpt><trkpt lat="45.3797656" lon="7.9977787"><ele>379.2</ele><time>2026-04-29T17:04:52.082Z</time></trkpt><trkpt lat="45.3797537" lon="7.9976485"><ele>380.0</ele><time>2026-04-29T17:04:53.082Z</time></trkpt><trkpt lat="45.3797422" lon="7.9975262"><ele>380.7142857142857</ele><time>2026-04-29T17:04:54.074Z</time></trkpt><trkpt lat="45.3797367" lon="7.9974238"><ele>381.42857142857144</ele><time>2026-04-29T17:04:55.078Z</time></trkpt><trkpt lat="45.3797337" lon="7.9973326"><ele>382.1428571428571</ele><time>2026-04-29T17:04:56.071Z</time></trkpt><trkpt lat="45.3797261" lon="7.9972426"><ele>382.8571428571429</ele><time>2026-04-29T17:04:57.072Z</time></trkpt><trkpt lat="45.3797099" lon="7.9971492"><ele>383.57142857142856</ele><time>2026-04-29T17:04:58.073Z</time></trkpt><trkpt lat="45.3796866" lon="7.9970545"><ele>384.2857142857143</ele><time>2026-04-29T17:04:59.077Z</time></trkpt><trkpt lat="45.3796648" lon="7.9969665"><ele>385.0</ele><time>2026-04-29T17:05:00.072Z</time></trkpt><trkpt lat="45.379653" lon="7.9968115"><ele>386.00000000000006</ele><time>2026-04-29T17:05:02.076Z</time></trkpt><trkpt lat="45.3796848" lon="7.9966512"><ele>387.0</ele><time>2026-04-29T17:05:04.074Z</time></trkpt><trkpt lat="45.3796999" lon="7.9965601"><ele>388.0</ele><time>2026-04-29T17:05:05.072Z</time></trkpt><trkpt lat="45.3797024" lon="7.9964594"><ele>389.0</ele><time>2026-04-29T17:05:06.077Z</time></trkpt><trkpt lat="45.379697" lon="7.9963523"><ele>390.00000000000006</ele><time>2026-04-29T17:05:07.071Z</time></trkpt><trkpt lat="45.3796906" lon="7.9962404"><ele>391.0</ele><time>2026-04-29T17:05:08.075Z</time></trkpt><trkpt lat="45.3796872" lon="7.9961384"><ele>391.4285714285714</ele><time>2026-04-29T17:05:09.068Z</time></trkpt><trkpt lat="45.3796773" lon="7.9960425"><ele>391.85714285714283</ele><time>2026-04-29T17:05:10.073Z</time></trkpt><trkpt lat="45.3796552" lon="7.9959579"><ele>392.2857142857143</ele><time>2026-04-29T17:05:11.072Z</time></trkpt><trkpt lat="45.379618" lon="7.9958828"><ele>392.71428571428567</ele><time>2026-04-29T17:05:12.078Z</time></trkpt><trkpt lat="45.3795722" lon="7.9958188"><ele>393.14285714285717</ele><time>2026-04-29T17:05:13.074Z</time></trkpt><trkpt lat="45.3795263" lon="7.9957574"><ele>393.57142857142856</ele><time>2026-04-29T17:05:14.075Z</time></trkpt><trkpt lat="45.3794654" lon="7.9956572"><ele>394.0</ele><time>2026-04-29T17:05:16.072Z</time></trkpt><trkpt lat="45.3794719" lon="7.9954981"><ele>394.4</ele><time>2026-04-29T17:05:49.078Z</time></trkpt><trkpt lat="45.3794852" lon="7.9952996"><ele>394.79999999999995</ele><time>2026-04-29T17:05:51.079Z</time></trkpt><trkpt lat="45.3794952" lon="7.9951931"><ele>395.20000000000005</ele><time>2026-04-29T17:05:52.077Z</time></trkpt><trkpt lat="45.3795017" lon="7.9950809"><ele>395.6</ele><time>2026-04-29T17:05:53.077Z</time></trkpt><trkpt lat="45.3795058" lon="7.994959"><ele>396.0</ele><time>2026-04-29T17:05:54.082Z</time></trkpt><trkpt lat="45.3795096" lon="7.9948231"><ele>397.0</ele><time>2026-04-29T17:05:55.077Z</time></trkpt><trkpt lat="45.3795149" lon="7.9946812"><ele>398.0</ele><time>2026-04-29T17:05:56.078Z</time></trkpt><trkpt lat="45.3795224" lon="7.9945519"><ele>399.0</ele><time>2026-04-29T17:05:57.077Z</time></trkpt><trkpt lat="45.3795298" lon="7.9944427"><ele>400.0</ele><time>2026-04-29T17:05:58.078Z</time></trkpt><trkpt lat="45.3795392" lon="7.9943501"><ele>401.0</ele><time>2026-04-29T17:05:59.077Z</time></trkpt><trkpt lat="45.3795491" lon="7.9942569"><ele>402.0</ele><time>2026-04-29T17:06:00.079Z</time></trkpt><trkpt lat="45.3795557" lon="7.994157"><ele>402.6666666666667</ele><time>2026-04-29T17:06:01.072Z</time></trkpt><trkpt lat="45.379558" lon="7.9940519"><ele>403.33333333333337</ele><time>2026-04-29T17:06:02.075Z</time></trkpt><trkpt lat="45.3795654" lon="7.9939515"><ele>404.0</ele><time>2026-04-29T17:06:03.079Z</time></trkpt><trkpt lat="45.3795734" lon="7.993794"><ele>404.6666666666667</ele><time>2026-04-29T17:06:05.076Z</time></trkpt><trkpt lat="45.3795441" lon="7.9936722"><ele>405.33333333333337</ele><time>2026-04-29T17:06:07.078Z</time></trkpt><trkpt lat="45.3795106" lon="7.9935928"><ele>406.0</ele><time>2026-04-29T17:06:08.072Z</time></trkpt><trkpt lat="45.3794688" lon="7.993498"><ele>406.00000000000006</ele><time>2026-04-29T17:06:09.075Z</time></trkpt><trkpt lat="45.3794207" lon="7.9933883"><ele>406.0</ele><time>2026-04-29T17:06:10.074Z</time></trkpt><trkpt lat="45.3793674" lon="7.9932785"><ele>406.0</ele><time>2026-04-29T17:06:11.077Z</time></trkpt><trkpt lat="45.3793163" lon="7.9931773"><ele>406.0</ele><time>2026-04-29T17:06:12.077Z</time></trkpt><trkpt lat="45.379275" lon="7.9930826"><ele>406.00000000000006</ele><time>2026-04-29T17:06:13.078Z</time></trkpt><trkpt lat="45.3792444" lon="7.9929814"><ele>406.0</ele><time>2026-04-29T17:06:14.081Z</time></trkpt><trkpt lat="45.3792153" lon="7.9928693"><ele>406.1666666666667</ele><time>2026-04-29T17:06:15.076Z</time></trkpt><trkpt lat="45.3791819" lon="7.9927526"><ele>406.33333333333337</ele><time>2026-04-29T17:06:16.08Z</time></trkpt><trkpt lat="45.379145" lon="7.9926374"><ele>406.5</ele><time>2026-04-29T17:06:17.076Z</time></trkpt><trkpt lat="45.3791138" lon="7.9925408"><ele>406.66666666666663</ele><time>2026-04-29T17:06:18.079Z</time></trkpt><trkpt lat="45.3790956" lon="7.9924488"><ele>406.8333333333333</ele><time>2026-04-29T17:06:37.071Z</time></trkpt><trkpt lat="45.3790605" lon="7.9923156"><ele>407.0</ele><time>2026-04-29T17:06:51.072Z</time></trkpt><trkpt lat="45.3790459" lon="7.9922135"><ele>407.3333333333333</ele><time>2026-04-29T17:06:52.075Z</time></trkpt><trkpt lat="45.3790258" lon="7.9920945"><ele>407.66666666666663</ele><time>2026-04-29T17:06:53.078Z</time></trkpt><trkpt lat="45.3789978" lon="7.9919748"><ele>408.0</ele><time>2026-04-29T17:06:54.072Z</time></trkpt><trkpt lat="45.3789653" lon="7.9918556"><ele>408.33333333333337</ele><time>2026-04-29T17:06:55.08Z</time></trkpt><trkpt lat="45.378928" lon="7.9917402"><ele>408.6666666666667</ele><time>2026-04-29T17:06:56.074Z</time></trkpt><trkpt lat="45.3788867" lon="7.9916355"><ele>409.0</ele><time>2026-04-29T17:06:57.077Z</time></trkpt><trkpt lat="45.3788456" lon="7.9915395"><ele>409.33333333333337</ele><time>2026-04-29T17:06:58.08Z</time></trkpt><trkpt lat="45.3788025" lon="7.9914433"><ele>409.6666666666667</ele><time>2026-04-29T17:06:59.076Z</time></trkpt><trkpt lat="45.3787598" lon="7.9913506"><ele>410.0</ele><time>2026-04-29T17:07:00.079Z</time></trkpt><trkpt lat="45.3787192" lon="7.9912652"><ele>410.33333333333337</ele><time>2026-04-29T17:07:01.073Z</time></trkpt><trkpt lat="45.3786549" lon="7.9911259"><ele>410.6666666666667</ele><time>2026-04-29T17:07:03.079Z</time></trkpt><trkpt lat="45.3786006" lon="7.991011"><ele>411.0</ele><time>2026-04-29T17:07:05.078Z</time></trkpt><trkpt lat="45.3785129" lon="7.9908905"><ele>409.6666666666667</ele><time>2026-04-29T17:07:07.076Z</time></trkpt><trkpt lat="45.3784566" lon="7.9908184"><ele>408.33333333333337</ele><time>2026-04-29T17:07:08.083Z</time></trkpt><trkpt lat="45.3784004" lon="7.9907376"><ele>407.0</ele><time>2026-04-29T17:07:09.073Z</time></trkpt><trkpt lat="45.3783469" lon="7.9906491"><ele>405.6666666666667</ele><time>2026-04-29T17:07:10.072Z</time></trkpt><trkpt lat="45.3782927" lon="7.9905635"><ele>404.33333333333337</ele><time>2026-04-29T17:07:11.075Z</time></trkpt><trkpt lat="45.378237" lon="7.990484"><ele>403.0</ele><time>2026-04-29T17:07:12.072Z</time></trkpt><trkpt lat="45.3781817" lon="7.9904186"><ele>403.0</ele><time>2026-04-29T17:07:13.076Z</time></trkpt><trkpt lat="45.3780795" lon="7.9903375"><ele>403.0</ele><time>2026-04-29T17:07:15.076Z</time></trkpt><trkpt lat="45.3779634" lon="7.9903312"><ele>403.0</ele><time>2026-04-29T17:07:17.078Z</time></trkpt><trkpt lat="45.3778913" lon="7.9903477"><ele>403.0</ele><time>2026-04-29T17:07:18.074Z</time></trkpt><trkpt lat="45.3778142" lon="7.9903769"><ele>403.0</ele><time>2026-04-29T17:07:19.078Z</time></trkpt><trkpt lat="45.3777385" lon="7.9904101"><ele>403.00000000000006</ele><time>2026-04-29T17:07:20.078Z</time></trkpt><trkpt lat="45.3776723" lon="7.9904388"><ele>403.0</ele><time>2026-04-29T17:07:21.079Z</time></trkpt><trkpt lat="45.3775877" lon="7.9904829"><ele>403.0</ele><time>2026-04-29T17:07:23.078Z</time></trkpt><trkpt lat="45.3775396" lon="7.9903847"><ele>403.0</ele><time>2026-04-29T17:07:41.074Z</time></trkpt><trkpt lat="45.377575" lon="7.9902373"><ele>403.00000000000006</ele><time>2026-04-29T17:07:43.078Z</time></trkpt><trkpt lat="45.3776002" lon="7.9901315"><ele>403.0</ele><time>2026-04-29T17:07:44.074Z</time></trkpt><trkpt lat="45.3776305" lon="7.9900024"><ele>402.4</ele><time>2026-04-29T17:07:45.076Z</time></trkpt><trkpt lat="45.3776658" lon="7.9898509"><ele>401.79999999999995</ele><time>2026-04-29T17:07:46.074Z</time></trkpt><trkpt lat="45.3776971" lon="7.9896918"><ele>401.2</ele><time>2026-04-29T17:07:47.075Z</time></trkpt><trkpt lat="45.3777253" lon="7.989542"><ele>400.6</ele><time>2026-04-29T17:07:48.073Z</time></trkpt><trkpt lat="45.3777509" lon="7.9893992"><ele>400.0</ele><time>2026-04-29T17:07:49.079Z</time></trkpt><trkpt lat="45.3777757" lon="7.9892599"><ele>400.8</ele><time>2026-04-29T17:07:50.093Z</time></trkpt><trkpt lat="45.3778002" lon="7.9891226"><ele>401.6</ele><time>2026-04-29T17:07:51.092Z</time></trkpt><trkpt lat="45.3778251" lon="7.9889887"><ele>402.4</ele><time>2026-04-29T17:07:52.086Z</time></trkpt><trkpt lat="45.377846" lon="7.98886"><ele>403.2</ele><time>2026-04-29T17:07:53.095Z</time></trkpt><trkpt lat="45.3778656" lon="7.988739"><ele>404.0</ele><time>2026-04-29T17:07:54.077Z</time></trkpt><trkpt lat="45.3778876" lon="7.9886258"><ele>403.99999999999994</ele><time>2026-04-29T17:07:55.088Z</time></trkpt><trkpt lat="45.3779154" lon="7.9885132"><ele>404.0</ele><time>2026-04-29T17:07:56.082Z</time></trkpt><trkpt lat="45.3779476" lon="7.9884012"><ele>404.0</ele><time>2026-04-29T17:07:57.086Z</time></trkpt><trkpt lat="45.3779847" lon="7.9882955"><ele>404.0</ele><time>2026-04-29T17:07:58.096Z</time></trkpt><trkpt lat="45.3780301" lon="7.9881951"><ele>403.99999999999994</ele><time>2026-04-29T17:07:59.089Z</time></trkpt><trkpt lat="45.3780824" lon="7.9880919"><ele>404.0</ele><time>2026-04-29T17:08:00.084Z</time></trkpt><trkpt lat="45.3781355" lon="7.9879832"><ele>404.3333333333333</ele><time>2026-04-29T17:08:01.093Z</time></trkpt><trkpt lat="45.3781893" lon="7.9878738"><ele>404.66666666666663</ele><time>2026-04-29T17:08:02.086Z</time></trkpt><trkpt lat="45.3782449" lon="7.9877783"><ele>405.0</ele><time>2026-04-29T17:08:03.098Z</time></trkpt><trkpt lat="45.3783044" lon="7.9876956"><ele>405.33333333333337</ele><time>2026-04-29T17:08:04.084Z</time></trkpt><trkpt lat="45.3783692" lon="7.987614"><ele>405.6666666666667</ele><time>2026-04-29T17:08:05.083Z</time></trkpt><trkpt lat="45.3784399" lon="7.9875282"><ele>406.0</ele><time>2026-04-29T17:08:06.092Z</time></trkpt><trkpt lat="45.3785127" lon="7.987439"><ele>406.0</ele><time>2026-04-29T17:08:07.087Z</time></trkpt><trkpt lat="45.3785845" lon="7.9873451"><ele>406.0</ele><time>2026-04-29T17:08:08.095Z</time></trkpt><trkpt lat="45.3786556" lon="7.9872481"><ele>406.0</ele><time>2026-04-29T17:08:09.091Z</time></trkpt><trkpt lat="45.3787269" lon="7.9871506"><ele>406.0</ele><time>2026-04-29T17:08:10.088Z</time></trkpt><trkpt lat="45.3787938" lon="7.9870531"><ele>406.0</ele><time>2026-04-29T17:08:11.086Z</time></trkpt><trkpt lat="45.3788524" lon="7.9869544"><ele>406.33333333333337</ele><time>2026-04-29T17:08:12.081Z</time></trkpt><trkpt lat="45.3789062" lon="7.9868555"><ele>406.6666666666667</ele><time>2026-04-29T17:08:13.093Z</time></trkpt><trkpt lat="45.3789593" lon="7.9867562"><ele>407.0</ele><time>2026-04-29T17:08:14.086Z</time></trkpt><trkpt lat="45.3790071" lon="7.9866491"><ele>407.33333333333337</ele><time>2026-04-29T17:08:15.086Z</time></trkpt><trkpt lat="45.3790546" lon="7.9865403"><ele>407.6666666666667</ele><time>2026-04-29T17:08:16.092Z</time></trkpt><trkpt lat="45.3791019" lon="7.986436"><ele>408.0</ele><time>2026-04-29T17:08:17.079Z</time></trkpt><trkpt lat="45.3791515" lon="7.9863435"><ele>408.0</ele><time>2026-04-29T17:08:18.081Z</time></trkpt><trkpt lat="45.379208" lon="7.9862619"><ele>408.0</ele><time>2026-04-29T17:08:19.09Z</time></trkpt><trkpt lat="45.3792792" lon="7.9861898"><ele>408.0</ele><time>2026-04-29T17:08:20.088Z</time></trkpt><trkpt lat="45.3793634" lon="7.9861204"><ele>408.0</ele><time>2026-04-29T17:08:21.081Z</time></trkpt><trkpt lat="45.3794538" lon="7.9860496"><ele>408.0</ele><time>2026-04-29T17:08:22.071Z</time></trkpt><trkpt lat="45.379542" lon="7.9859841"><ele>408.0</ele><time>2026-04-29T17:08:23.082Z</time></trkpt><trkpt lat="45.3796263" lon="7.9859196"><ele>408.0</ele><time>2026-04-29T17:08:24.076Z</time></trkpt><trkpt lat="45.3797034" lon="7.9858435"><ele>408.0</ele><time>2026-04-29T17:08:25.076Z</time></trkpt><trkpt lat="45.3797747" lon="7.9857527"><ele>408.0</ele><time>2026-04-29T17:08:26.079Z</time></trkpt><trkpt lat="45.3798407" lon="7.9856501"><ele>408.0</ele><time>2026-04-29T17:08:27.078Z</time></trkpt><trkpt lat="45.3798998" lon="7.9855319"><ele>409.2</ele><time>2026-04-29T17:08:28.075Z</time></trkpt><trkpt lat="45.3799536" lon="7.9854098"><ele>410.4</ele><time>2026-04-29T17:08:29.077Z</time></trkpt><trkpt lat="45.3800069" lon="7.98529"><ele>411.59999999999997</ele><time>2026-04-29T17:08:30.077Z</time></trkpt><trkpt lat="45.3800649" lon="7.9851723"><ele>412.79999999999995</ele><time>2026-04-29T17:08:31.076Z</time></trkpt><trkpt lat="45.3801268" lon="7.985058"><ele>414.0</ele><time>2026-04-29T17:08:32.081Z</time></trkpt><trkpt lat="45.3801945" lon="7.9849502"><ele>414.79999999999995</ele><time>2026-04-29T17:08:33.082Z</time></trkpt><trkpt lat="45.3802645" lon="7.9848463"><ele>415.59999999999997</ele><time>2026-04-29T17:08:34.08Z</time></trkpt><trkpt lat="45.380336" lon="7.9847431"><ele>416.4</ele><time>2026-04-29T17:08:35.072Z</time></trkpt><trkpt lat="45.3804057" lon="7.9846401"><ele>417.2</ele><time>2026-04-29T17:08:36.077Z</time></trkpt><trkpt lat="45.3804693" lon="7.9845325"><ele>418.0</ele><time>2026-04-29T17:08:37.076Z</time></trkpt><trkpt lat="45.3805253" lon="7.984417"><ele>419.0</ele><time>2026-04-29T17:08:38.075Z</time></trkpt><trkpt lat="45.3805735" lon="7.9842905"><ele>420.0</ele><time>2026-04-29T17:08:39.081Z</time></trkpt><trkpt lat="45.3806143" lon="7.9841627"><ele>421.0</ele><time>2026-04-29T17:08:40.083Z</time></trkpt><trkpt lat="45.3806583" lon="7.984039"><ele>422.0</ele><time>2026-04-29T17:08:41.078Z</time></trkpt><trkpt lat="45.380705" lon="7.9839216"><ele>423.0</ele><time>2026-04-29T17:08:42.074Z</time></trkpt><trkpt lat="45.3807504" lon="7.9838086"><ele>423.0</ele><time>2026-04-29T17:08:43.074Z</time></trkpt><trkpt lat="45.3807981" lon="7.9836969"><ele>423.0</ele><time>2026-04-29T17:08:44.075Z</time></trkpt><trkpt lat="45.3808488" lon="7.9835905"><ele>423.0</ele><time>2026-04-29T17:08:45.076Z</time></trkpt><trkpt lat="45.3809014" lon="7.9834858"><ele>423.0</ele><time>2026-04-29T17:08:46.077Z</time></trkpt><trkpt lat="45.3809587" lon="7.9833838"><ele>423.0</ele><time>2026-04-29T17:08:47.071Z</time></trkpt><trkpt lat="45.3810202" lon="7.9832849"><ele>421.59999999999997</ele><time>2026-04-29T17:08:48.075Z</time></trkpt><trkpt lat="45.3810875" lon="7.9831871"><ele>420.2</ele><time>2026-04-29T17:08:49.077Z</time></trkpt><trkpt lat="45.38116" lon="7.98309"><ele>418.8</ele><time>2026-04-29T17:08:50.08Z</time></trkpt><trkpt lat="45.3812378" lon="7.9829955"><ele>417.4</ele><time>2026-04-29T17:08:51.078Z</time></trkpt><trkpt lat="45.3813145" lon="7.9828991"><ele>416.0</ele><time>2026-04-29T17:08:52.078Z</time></trkpt><trkpt lat="45.3813878" lon="7.9827952"><ele>418.6</ele><time>2026-04-29T17:08:53.079Z</time></trkpt><trkpt lat="45.3814547" lon="7.9826862"><ele>421.20000000000005</ele><time>2026-04-29T17:08:54.076Z</time></trkpt><trkpt lat="45.3815142" lon="7.9825782"><ele>423.79999999999995</ele><time>2026-04-29T17:08:55.077Z</time></trkpt><trkpt lat="45.38157" lon="7.9824716"><ele>426.4</ele><time>2026-04-29T17:08:56.075Z</time></trkpt><trkpt lat="45.3816231" lon="7.982362"><ele>429.0</ele><time>2026-04-29T17:08:57.082Z</time></trkpt><trkpt lat="45.3816708" lon="7.982249"><ele>429.0</ele><time>2026-04-29T17:08:58.078Z</time></trkpt><trkpt lat="45.3817127" lon="7.9821236"><ele>429.0</ele><time>2026-04-29T17:08:59.076Z</time></trkpt><trkpt lat="45.3817496" lon="7.981993"><ele>429.0</ele><time>2026-04-29T17:09:00.074Z</time></trkpt><trkpt lat="45.3817814" lon="7.9818716"><ele>429.0</ele><time>2026-04-29T17:09:01.079Z</time></trkpt><trkpt lat="45.3818092" lon="7.9817479"><ele>429.0</ele><time>2026-04-29T17:09:02.073Z</time></trkpt><trkpt lat="45.38184" lon="7.9816206"><ele>428.6666666666667</ele><time>2026-04-29T17:09:03.074Z</time></trkpt><trkpt lat="45.3818739" lon="7.9814953"><ele>428.33333333333337</ele><time>2026-04-29T17:09:04.077Z</time></trkpt><trkpt lat="45.3819108" lon="7.9813754"><ele>428.0</ele><time>2026-04-29T17:09:05.072Z</time></trkpt><trkpt lat="45.3819471" lon="7.9812722"><ele>427.6666666666667</ele><time>2026-04-29T17:09:06.082Z</time></trkpt><trkpt lat="45.3819859" lon="7.9811851"><ele>427.33333333333337</ele><time>2026-04-29T17:09:07.078Z</time></trkpt><trkpt lat="45.3820315" lon="7.9811139"><ele>427.0</ele><time>2026-04-29T17:09:08.077Z</time></trkpt><trkpt lat="45.3820845" lon="7.9810519"><ele>427.0</ele><time>2026-04-29T17:09:09.078Z</time></trkpt><trkpt lat="45.3821448" lon="7.981002"><ele>427.0</ele><time>2026-04-29T17:09:10.074Z</time></trkpt><trkpt lat="45.3822123" lon="7.9809619"><ele>427.0</ele><time>2026-04-29T17:09:11.073Z</time></trkpt><trkpt lat="45.3822799" lon="7.9809434"><ele>427.0</ele><time>2026-04-29T17:09:12.076Z</time></trkpt><trkpt lat="45.382349" lon="7.9809223"><ele>427.0</ele><time>2026-04-29T17:09:13.073Z</time></trkpt><trkpt lat="45.3824112" lon="7.9808857"><ele>427.0</ele><time>2026-04-29T17:09:14.085Z</time></trkpt><trkpt lat="45.3824658" lon="7.9808252"><ele>427.0</ele><time>2026-04-29T17:09:15.082Z</time></trkpt><trkpt lat="45.3825129" lon="7.9807477"><ele>429.1666666666667</ele><time>2026-04-29T17:09:16.074Z</time></trkpt><trkpt lat="45.3825558" lon="7.9806504"><ele>431.33333333333337</ele><time>2026-04-29T17:09:17.074Z</time></trkpt><trkpt lat="45.3825939" lon="7.9805489"><ele>433.5</ele><time>2026-04-29T17:09:18.076Z</time></trkpt><trkpt lat="45.3826312" lon="7.9804481"><ele>435.66666666666663</ele><time>2026-04-29T17:09:19.08Z</time></trkpt><trkpt lat="45.3826699" lon="7.9803513"><ele>437.8333333333333</ele><time>2026-04-29T17:09:20.072Z</time></trkpt><trkpt lat="45.3827102" lon="7.980257"><ele>440.0</ele><time>2026-04-29T17:09:21.083Z</time></trkpt><trkpt lat="45.3827519" lon="7.980162"><ele>439.99999999999994</ele><time>2026-04-29T17:09:22.081Z</time></trkpt><trkpt lat="45.3827957" lon="7.9800677"><ele>440.0</ele><time>2026-04-29T17:09:23.077Z</time></trkpt><trkpt lat="45.3828373" lon="7.9799723"><ele>440.0</ele><time>2026-04-29T17:09:24.076Z</time></trkpt><trkpt lat="45.3828796" lon="7.9798696"><ele>440.0</ele><time>2026-04-29T17:09:25.078Z</time></trkpt><trkpt lat="45.3829223" lon="7.9797613"><ele>439.99999999999994</ele><time>2026-04-29T17:09:26.079Z</time></trkpt><trkpt lat="45.3829663" lon="7.9796483"><ele>440.0</ele><time>2026-04-29T17:09:27.076Z</time></trkpt><trkpt lat="45.3830108" lon="7.9795369"><ele>440.2</ele><time>2026-04-29T17:09:28.08Z</time></trkpt><trkpt lat="45.383055" lon="7.9794272"><ele>440.4</ele><time>2026-04-29T17:09:29.079Z</time></trkpt><trkpt lat="45.3831023" lon="7.9793165"><ele>440.6</ele><time>2026-04-29T17:09:30.08Z</time></trkpt><trkpt lat="45.383155" lon="7.9792056"><ele>440.8</ele><time>2026-04-29T17:09:31.08Z</time></trkpt><trkpt lat="45.383213" lon="7.9790974"><ele>441.0</ele><time>2026-04-29T17:09:32.08Z</time></trkpt><trkpt lat="45.3832753" lon="7.9789962"><ele>441.0</ele><time>2026-04-29T17:09:33.075Z</time></trkpt><trkpt lat="45.38334" lon="7.9788972"><ele>441.0</ele><time>2026-04-29T17:09:34.074Z</time></trkpt><trkpt lat="45.383401" lon="7.978805"><ele>441.0</ele><time>2026-04-29T17:09:35.077Z</time></trkpt><trkpt lat="45.3834593" lon="7.9787212"><ele>441.0</ele><time>2026-04-29T17:09:36.079Z</time></trkpt><trkpt lat="45.3835089" lon="7.9786421"><ele>441.0</ele><time>2026-04-29T17:09:37.078Z</time></trkpt><trkpt lat="45.3835468" lon="7.9785587"><ele>441.0</ele><time>2026-04-29T17:09:38.074Z</time></trkpt><trkpt lat="45.3835747" lon="7.9784631"><ele>441.0</ele><time>2026-04-29T17:09:39.074Z</time></trkpt><trkpt lat="45.3835965" lon="7.9783541"><ele>441.0</ele><time>2026-04-29T17:09:40.078Z</time></trkpt><trkpt lat="45.383618" lon="7.9782379"><ele>441.0</ele><time>2026-04-29T17:09:41.077Z</time></trkpt><trkpt lat="45.3836458" lon="7.9781183"><ele>441.0</ele><time>2026-04-29T17:09:42.077Z</time></trkpt><trkpt lat="45.3836832" lon="7.9779975"><ele>441.0</ele><time>2026-04-29T17:09:43.075Z</time></trkpt><trkpt lat="45.3837271" lon="7.9778789"><ele>441.0</ele><time>2026-04-29T17:09:44.082Z</time></trkpt><trkpt lat="45.3837755" lon="7.9777557"><ele>441.20000000000005</ele><time>2026-04-29T17:09:45.073Z</time></trkpt><trkpt lat="45.3838193" lon="7.9776298"><ele>441.40000000000003</ele><time>2026-04-29T17:09:46.076Z</time></trkpt><trkpt lat="45.3838548" lon="7.9775003"><ele>441.6</ele><time>2026-04-29T17:09:47.081Z</time></trkpt><trkpt lat="45.3838837" lon="7.9773633"><ele>441.8</ele><time>2026-04-29T17:09:48.074Z</time></trkpt><trkpt lat="45.3839111" lon="7.97722"><ele>442.0</ele><time>2026-04-29T17:09:49.076Z</time></trkpt><trkpt lat="45.3839389" lon="7.9770718"><ele>441.6</ele><time>2026-04-29T17:09:50.081Z</time></trkpt><trkpt lat="45.3839671" lon="7.9769267"><ele>441.20000000000005</ele><time>2026-04-29T17:09:51.083Z</time></trkpt><trkpt lat="45.3839921" lon="7.9767987"><ele>440.8</ele><time>2026-04-29T17:09:52.073Z</time></trkpt><trkpt lat="45.3840089" lon="7.9766926"><ele>440.4</ele><time>2026-04-29T17:09:53.075Z</time></trkpt><trkpt lat="45.3840285" lon="7.9765429"><ele>440.0</ele><time>2026-04-29T17:09:55.076Z</time></trkpt><trkpt lat="45.3840509" lon="7.9764247"><ele>438.99999999999994</ele><time>2026-04-29T17:09:57.073Z</time></trkpt><trkpt lat="45.3840687" lon="7.9763375"><ele>438.0</ele><time>2026-04-29T17:09:58.08Z</time></trkpt><trkpt lat="45.3840901" lon="7.97623"><ele>437.0</ele><time>2026-04-29T17:09:59.081Z</time></trkpt><trkpt lat="45.3841132" lon="7.9761225"><ele>436.0</ele><time>2026-04-29T17:10:00.076Z</time></trkpt><trkpt lat="45.3841337" lon="7.976031"><ele>434.99999999999994</ele><time>2026-04-29T17:10:01.075Z</time></trkpt><trkpt lat="45.3841677" lon="7.9758809"><ele>434.0</ele><time>2026-04-29T17:10:03.08Z</time></trkpt><trkpt lat="45.3841884" lon="7.975796"><ele>433.3333333333333</ele><time>2026-04-29T17:10:04.083Z</time></trkpt><trkpt lat="45.3842142" lon="7.9756932"><ele>432.66666666666663</ele><time>2026-04-29T17:10:05.081Z</time></trkpt><trkpt lat="45.3842466" lon="7.975582"><ele>432.0</ele><time>2026-04-29T17:10:06.074Z</time></trkpt><trkpt lat="45.3842849" lon="7.975467"><ele>431.33333333333337</ele><time>2026-04-29T17:10:07.08Z</time></trkpt><trkpt lat="45.3843255" lon="7.9753558"><ele>430.6666666666667</ele><time>2026-04-29T17:10:08.08Z</time></trkpt><trkpt lat="45.3843663" lon="7.9752525"><ele>430.0</ele><time>2026-04-29T17:10:09.078Z</time></trkpt><trkpt lat="45.3844102" lon="7.9751559"><ele>430.00000000000006</ele><time>2026-04-29T17:10:10.08Z</time></trkpt><trkpt lat="45.3844592" lon="7.9750649"><ele>430.0</ele><time>2026-04-29T17:10:11.08Z</time></trkpt><trkpt lat="45.3845141" lon="7.9749799"><ele>430.0</ele><time>2026-04-29T17:10:12.08Z</time></trkpt><trkpt lat="45.3845747" lon="7.9749021"><ele>430.0</ele><time>2026-04-29T17:10:13.08Z</time></trkpt><trkpt lat="45.3846373" lon="7.9748367"><ele>430.00000000000006</ele><time>2026-04-29T17:10:14.079Z</time></trkpt><trkpt lat="45.384704" lon="7.9747822"><ele>430.0</ele><time>2026-04-29T17:10:15.074Z</time></trkpt><trkpt lat="45.3847735" lon="7.9747323"><ele>431.33333333333337</ele><time>2026-04-29T17:10:16.074Z</time></trkpt><trkpt lat="45.3848438" lon="7.974679"><ele>432.6666666666667</ele><time>2026-04-29T17:10:17.079Z</time></trkpt><trkpt lat="45.3849131" lon="7.9746159"><ele>434.0</ele><time>2026-04-29T17:10:18.078Z</time></trkpt><trkpt lat="45.3849768" lon="7.9745397"><ele>435.33333333333337</ele><time>2026-04-29T17:10:19.076Z</time></trkpt><trkpt lat="45.3850346" lon="7.9744577"><ele>436.6666666666667</ele><time>2026-04-29T17:10:20.078Z</time></trkpt><trkpt lat="45.3850902" lon="7.9743733"><ele>438.0</ele><time>2026-04-29T17:10:21.079Z</time></trkpt><trkpt lat="45.3851468" lon="7.9742865"><ele>438.0</ele><time>2026-04-29T17:10:22.077Z</time></trkpt><trkpt lat="45.385207" lon="7.9741994"><ele>438.0</ele><time>2026-04-29T17:10:23.079Z</time></trkpt><trkpt lat="45.3852714" lon="7.9741188"><ele>438.0</ele><time>2026-04-29T17:10:24.077Z</time></trkpt><trkpt lat="45.3853371" lon="7.9740437"><ele>438.0</ele><time>2026-04-29T17:10:25.081Z</time></trkpt><trkpt lat="45.3854012" lon="7.9739698"><ele>438.0</ele><time>2026-04-29T17:10:26.081Z</time></trkpt><trkpt lat="45.3854643" lon="7.9738998"><ele>438.0</ele><time>2026-04-29T17:10:27.08Z</time></trkpt><trkpt lat="45.3855232" lon="7.9738263"><ele>438.3333333333333</ele><time>2026-04-29T17:10:28.082Z</time></trkpt><trkpt lat="45.3855762" lon="7.9737452"><ele>438.66666666666663</ele><time>2026-04-29T17:10:29.076Z</time></trkpt><trkpt lat="45.3856176" lon="7.9736513"><ele>439.0</ele><time>2026-04-29T17:10:30.075Z</time></trkpt><trkpt lat="45.3856481" lon="7.9735403"><ele>439.3333333333333</ele><time>2026-04-29T17:10:31.077Z</time></trkpt><trkpt lat="45.3856679" lon="7.9734166"><ele>439.66666666666663</ele><time>2026-04-29T17:10:32.074Z</time></trkpt><trkpt lat="45.3856851" lon="7.9732873"><ele>440.0</ele><time>2026-04-29T17:10:33.08Z</time></trkpt><trkpt lat="45.3857021" lon="7.9731613"><ele>439.99999999999994</ele><time>2026-04-29T17:10:34.073Z</time></trkpt><trkpt lat="45.3857243" lon="7.9730502"><ele>440.0</ele><time>2026-04-29T17:10:35.078Z</time></trkpt><trkpt lat="45.3857575" lon="7.9729553"><ele>440.0</ele><time>2026-04-29T17:10:36.079Z</time></trkpt><trkpt lat="45.3858015" lon="7.9728772"><ele>440.0</ele><time>2026-04-29T17:10:37.075Z</time></trkpt><trkpt lat="45.3858529" lon="7.9728177"><ele>439.99999999999994</ele><time>2026-04-29T17:10:38.078Z</time></trkpt><trkpt lat="45.3859632" lon="7.9727659"><ele>440.0</ele><time>2026-04-29T17:10:40.076Z</time></trkpt><trkpt lat="45.3860083" lon="7.9726431"><ele>440.0</ele><time>2026-04-29T17:11:33.082Z</time></trkpt><trkpt lat="45.3860003" lon="7.9725475"><ele>440.0</ele><time>2026-04-29T17:11:34.077Z</time></trkpt><trkpt lat="45.3859726" lon="7.9724222"><ele>440.0</ele><time>2026-04-29T17:11:35.077Z</time></trkpt><trkpt lat="45.3859246" lon="7.9722709"><ele>440.0</ele><time>2026-04-29T17:11:36.079Z</time></trkpt><trkpt lat="45.3858734" lon="7.9721099"><ele>440.0</ele><time>2026-04-29T17:11:37.077Z</time></trkpt><trkpt lat="45.3858223" lon="7.9719485"><ele>439.2</ele><time>2026-04-29T17:11:38.076Z</time></trkpt><trkpt lat="45.3857697" lon="7.9717875"><ele>438.4</ele><time>2026-04-29T17:11:39.077Z</time></trkpt><trkpt lat="45.3857214" lon="7.9716355"><ele>437.6</ele><time>2026-04-29T17:11:40.088Z</time></trkpt><trkpt lat="45.3856818" lon="7.9715003"><ele>436.8</ele><time>2026-04-29T17:11:41.081Z</time></trkpt><trkpt lat="45.3856553" lon="7.9713788"><ele>436.0</ele><time>2026-04-29T17:11:42.084Z</time></trkpt><trkpt lat="45.3856442" lon="7.9712691"><ele>434.6</ele><time>2026-04-29T17:11:43.087Z</time></trkpt><trkpt lat="45.385656" lon="7.9711689"><ele>433.20000000000005</ele><time>2026-04-29T17:11:44.088Z</time></trkpt><trkpt lat="45.3856862" lon="7.9710678"><ele>431.79999999999995</ele><time>2026-04-29T17:11:45.084Z</time></trkpt><trkpt lat="45.3857363" lon="7.9709656"><ele>430.4</ele><time>2026-04-29T17:11:46.093Z</time></trkpt><trkpt lat="45.3858073" lon="7.9708619"><ele>429.0</ele><time>2026-04-29T17:11:47.081Z</time></trkpt><trkpt lat="45.3858941" lon="7.9707535"><ele>427.25</ele><time>2026-04-29T17:11:48.09Z</time></trkpt><trkpt lat="45.3859833" lon="7.9706398"><ele>425.5</ele><time>2026-04-29T17:11:49.091Z</time></trkpt><trkpt lat="45.3860676" lon="7.970525"><ele>423.75</ele><time>2026-04-29T17:11:50.088Z</time></trkpt><trkpt lat="45.3861391" lon="7.9704009"><ele>422.0</ele><time>2026-04-29T17:11:51.085Z</time></trkpt><trkpt lat="45.3861934" lon="7.970265"><ele>422.0</ele><time>2026-04-29T17:11:52.084Z</time></trkpt><trkpt lat="45.386234" lon="7.9701145"><ele>422.0</ele><time>2026-04-29T17:11:53.09Z</time></trkpt><trkpt lat="45.3862691" lon="7.9699455"><ele>422.0</ele><time>2026-04-29T17:11:54.086Z</time></trkpt><trkpt lat="45.386302" lon="7.9697606"><ele>422.0</ele><time>2026-04-29T17:11:55.09Z</time></trkpt><trkpt lat="45.386336" lon="7.9695779"><ele>419.5</ele><time>2026-04-29T17:11:56.09Z</time></trkpt><trkpt lat="45.3863722" lon="7.9694047"><ele>417.0</ele><time>2026-04-29T17:11:57.092Z</time></trkpt><trkpt lat="45.3864079" lon="7.9692361"><ele>414.5</ele><time>2026-04-29T17:11:58.102Z</time></trkpt><trkpt lat="45.3864426" lon="7.9690706"><ele>412.0</ele><time>2026-04-29T17:11:59.097Z</time></trkpt><trkpt lat="45.3864767" lon="7.968908"><ele>410.5</ele><time>2026-04-29T17:12:00.088Z</time></trkpt><trkpt lat="45.3865134" lon="7.9687454"><ele>409.0</ele><time>2026-04-29T17:12:01.089Z</time></trkpt><trkpt lat="45.3865531" lon="7.968582"><ele>407.5</ele><time>2026-04-29T17:12:02.09Z</time></trkpt><trkpt lat="45.3865914" lon="7.9684186"><ele>406.0</ele><time>2026-04-29T17:12:03.088Z</time></trkpt><trkpt lat="45.3866305" lon="7.9682637"><ele>405.6</ele><time>2026-04-29T17:12:04.102Z</time></trkpt><trkpt lat="45.3866758" lon="7.9681216"><ele>405.20000000000005</ele><time>2026-04-29T17:12:05.084Z</time></trkpt><trkpt lat="45.3867254" lon="7.9679919"><ele>404.79999999999995</ele><time>2026-04-29T17:12:06.084Z</time></trkpt><trkpt lat="45.3867823" lon="7.9678703"><ele>404.4</ele><time>2026-04-29T17:12:07.085Z</time></trkpt><trkpt lat="45.3868516" lon="7.967747"><ele>404.0</ele><time>2026-04-29T17:12:08.096Z</time></trkpt><trkpt lat="45.3869327" lon="7.967618"><ele>404.0</ele><time>2026-04-29T17:12:09.084Z</time></trkpt><trkpt lat="45.3870146" lon="7.9674846"><ele>404.0</ele><time>2026-04-29T17:12:10.085Z</time></trkpt><trkpt lat="45.3870859" lon="7.9673397"><ele>404.0</ele><time>2026-04-29T17:12:11.088Z</time></trkpt><trkpt lat="45.3871466" lon="7.9671758"><ele>404.0</ele><time>2026-04-29T17:12:12.095Z</time></trkpt><trkpt lat="45.3872004" lon="7.9669912"><ele>401.75</ele><time>2026-04-29T17:12:13.1Z</time></trkpt><trkpt lat="45.3872523" lon="7.9667975"><ele>399.5</ele><time>2026-04-29T17:12:14.085Z</time></trkpt><trkpt lat="45.3873004" lon="7.9666083"><ele>397.25</ele><time>2026-04-29T17:12:15.088Z</time></trkpt><trkpt lat="45.3873428" lon="7.9664356"><ele>395.0</ele><time>2026-04-29T17:12:16.084Z</time></trkpt><trkpt lat="45.3873872" lon="7.9662808"><ele>395.0</ele><time>2026-04-29T17:12:17.089Z</time></trkpt><trkpt lat="45.3874423" lon="7.9661487"><ele>395.0</ele><time>2026-04-29T17:12:18.087Z</time></trkpt><trkpt lat="45.387518" lon="7.9660354"><ele>395.0</ele><time>2026-04-29T17:12:19.098Z</time></trkpt><trkpt lat="45.3876037" lon="7.9659418"><ele>395.0</ele><time>2026-04-29T17:12:20.093Z</time></trkpt><trkpt lat="45.3876794" lon="7.9658627"><ele>395.0</ele><time>2026-04-29T17:12:21.087Z</time></trkpt><trkpt lat="45.3877491" lon="7.9658115"><ele>395.0</ele><time>2026-04-29T17:12:22.09Z</time></trkpt><trkpt lat="45.387815" lon="7.9657821"><ele>395.0</ele><time>2026-04-29T17:12:23.097Z</time></trkpt><trkpt lat="45.3879292" lon="7.9657756"><ele>395.0</ele><time>2026-04-29T17:12:25.092Z</time></trkpt><trkpt lat="45.3880398" lon="7.9658413"><ele>395.0</ele><time>2026-04-29T17:12:27.088Z</time></trkpt><trkpt lat="45.3881001" lon="7.9658995"><ele>395.0</ele><time>2026-04-29T17:12:28.092Z</time></trkpt><trkpt lat="45.3881601" lon="7.9659759"><ele>395.0</ele><time>2026-04-29T17:12:29.089Z</time></trkpt><trkpt lat="45.3882168" lon="7.9660715"><ele>395.0</ele><time>2026-04-29T17:12:30.088Z</time></trkpt><trkpt lat="45.3882704" lon="7.9661794"><ele>395.0</ele><time>2026-04-29T17:12:31.082Z</time></trkpt><trkpt lat="45.3883237" lon="7.9663103"><ele>395.0</ele><time>2026-04-29T17:12:32.091Z</time></trkpt><trkpt lat="45.3883761" lon="7.9664425"><ele>395.0</ele><time>2026-04-29T17:12:33.09Z</time></trkpt><trkpt lat="45.3884315" lon="7.9665532"><ele>394.99999999999994</ele><time>2026-04-29T17:12:34.089Z</time></trkpt><trkpt lat="45.3884926" lon="7.966633"><ele>395.0</ele><time>2026-04-29T17:12:35.091Z</time></trkpt><trkpt lat="45.3885552" lon="7.9666912"><ele>395.0</ele><time>2026-04-29T17:12:36.085Z</time></trkpt><trkpt lat="45.3886171" lon="7.966738"><ele>395.0</ele><time>2026-04-29T17:12:37.083Z</time></trkpt><trkpt lat="45.3887258" lon="7.9667813"><ele>394.99999999999994</ele><time>2026-04-29T17:12:39.097Z</time></trkpt><trkpt lat="45.3887968" lon="7.9668422"><ele>395.0</ele><time>2026-04-29T17:12:41.082Z</time></trkpt><trkpt lat="45.3888221" lon="7.9669356"><ele>394.4</ele><time>2026-04-29T17:12:44.092Z</time></trkpt><trkpt lat="45.3888449" lon="7.9670497"><ele>393.8</ele><time>2026-04-29T17:12:46.092Z</time></trkpt><trkpt lat="45.3888487" lon="7.9671512"><ele>393.20000000000005</ele><time>2026-04-29T17:12:47.087Z</time></trkpt><trkpt lat="45.3888408" lon="7.9672797"><ele>392.6</ele><time>2026-04-29T17:12:48.092Z</time></trkpt><trkpt lat="45.3888337" lon="7.9674505"><ele>392.0</ele><time>2026-04-29T17:12:49.089Z</time></trkpt><trkpt lat="45.3888325" lon="7.9676365"><ele>391.5</ele><time>2026-04-29T17:12:50.09Z</time></trkpt><trkpt lat="45.3888413" lon="7.967837"><ele>391.0</ele><time>2026-04-29T17:12:51.093Z</time></trkpt><trkpt lat="45.3888577" lon="7.9680196"><ele>390.5</ele><time>2026-04-29T17:12:52.086Z</time></trkpt><trkpt lat="45.3888863" lon="7.9681822"><ele>390.0</ele><time>2026-04-29T17:12:53.088Z</time></trkpt><trkpt lat="45.3889392" lon="7.9683278"><ele>389.0</ele><time>2026-04-29T17:12:54.091Z</time></trkpt><trkpt lat="45.3890175" lon="7.9684573"><ele>388.0</ele><time>2026-04-29T17:12:55.091Z</time></trkpt><trkpt lat="45.3891075" lon="7.9685863"><ele>387.0</ele><time>2026-04-29T17:12:56.091Z</time></trkpt><trkpt lat="45.3892042" lon="7.9687192"><ele>386.0</ele><time>2026-04-29T17:12:57.089Z</time></trkpt><trkpt lat="45.3893059" lon="7.9688596"><ele>386.0</ele><time>2026-04-29T17:12:58.093Z</time></trkpt><trkpt lat="45.3894133" lon="7.9690006"><ele>386.0</ele><time>2026-04-29T17:12:59.087Z</time></trkpt><trkpt lat="45.3895239" lon="7.9691418"><ele>386.0</ele><time>2026-04-29T17:13:00.076Z</time></trkpt><trkpt lat="45.3896316" lon="7.9692791"><ele>386.0</ele><time>2026-04-29T17:13:01.088Z</time></trkpt><trkpt lat="45.3897402" lon="7.9694142"><ele>386.0</ele><time>2026-04-29T17:13:02.088Z</time></trkpt><trkpt lat="45.389848" lon="7.9695486"><ele>386.0</ele><time>2026-04-29T17:13:03.091Z</time></trkpt><trkpt lat="45.3899581" lon="7.9696754"><ele>386.0</ele><time>2026-04-29T17:13:04.091Z</time></trkpt><trkpt lat="45.3900676" lon="7.969797"><ele>386.0</ele><time>2026-04-29T17:13:05.08Z</time></trkpt><trkpt lat="45.3901744" lon="7.969915"><ele>386.25</ele><time>2026-04-29T17:13:06.072Z</time></trkpt><trkpt lat="45.3902741" lon="7.9700267"><ele>386.5</ele><time>2026-04-29T17:13:07.092Z</time></trkpt><trkpt lat="45.3903635" lon="7.9701347"><ele>386.75</ele><time>2026-04-29T17:13:08.095Z</time></trkpt><trkpt lat="45.3904452" lon="7.9702417"><ele>387.0</ele><time>2026-04-29T17:13:09.091Z</time></trkpt><trkpt lat="45.3905183" lon="7.9703504"><ele>387.0</ele><time>2026-04-29T17:13:10.086Z</time></trkpt><trkpt lat="45.3905817" lon="7.970461"><ele>387.0</ele><time>2026-04-29T17:13:11.091Z</time></trkpt><trkpt lat="45.3906384" lon="7.9705846"><ele>387.0</ele><time>2026-04-29T17:13:12.087Z</time></trkpt><trkpt lat="45.3906899" lon="7.9707092"><ele>387.0</ele><time>2026-04-29T17:13:13.092Z</time></trkpt><trkpt lat="45.39074" lon="7.9708316"><ele>387.0</ele><time>2026-04-29T17:13:14.083Z</time></trkpt><trkpt lat="45.390794" lon="7.9709538"><ele>386.8</ele><time>2026-04-29T17:13:15.093Z</time></trkpt><trkpt lat="45.3908449" lon="7.9710719"><ele>386.6</ele><time>2026-04-29T17:13:16.09Z</time></trkpt><trkpt lat="45.3908946" lon="7.971195"><ele>386.40000000000003</ele><time>2026-04-29T17:13:17.08Z</time></trkpt><trkpt lat="45.3909423" lon="7.9713226"><ele>386.20000000000005</ele><time>2026-04-29T17:13:18.091Z</time></trkpt><trkpt lat="45.3909831" lon="7.9714583"><ele>386.0</ele><time>2026-04-29T17:13:19.087Z</time></trkpt><trkpt lat="45.3910167" lon="7.9716017"><ele>386.0</ele><time>2026-04-29T17:13:20.088Z</time></trkpt><trkpt lat="45.3910469" lon="7.9717505"><ele>386.0</ele><time>2026-04-29T17:13:21.088Z</time></trkpt><trkpt lat="45.3910759" lon="7.9719039"><ele>386.0</ele><time>2026-04-29T17:13:22.094Z</time></trkpt><trkpt lat="45.3911061" lon="7.972063"><ele>386.0</ele><time>2026-04-29T17:13:23.091Z</time></trkpt><trkpt lat="45.3911376" lon="7.9722278"><ele>386.0</ele><time>2026-04-29T17:13:24.086Z</time></trkpt><trkpt lat="45.3911724" lon="7.9723957"><ele>386.0</ele><time>2026-04-29T17:13:25.083Z</time></trkpt><trkpt lat="45.39121" lon="7.9725681"><ele>386.0</ele><time>2026-04-29T17:13:26.083Z</time></trkpt><trkpt lat="45.391248" lon="7.9727414"><ele>386.0</ele><time>2026-04-29T17:13:27.088Z</time></trkpt><trkpt lat="45.3912839" lon="7.9729165"><ele>386.0</ele><time>2026-04-29T17:13:28.091Z</time></trkpt><trkpt lat="45.3913124" lon="7.9730923"><ele>386.0</ele><time>2026-04-29T17:13:29.087Z</time></trkpt><trkpt lat="45.391333" lon="7.9732682"><ele>386.0</ele><time>2026-04-29T17:13:30.083Z</time></trkpt><trkpt lat="45.3913419" lon="7.97345"><ele>386.0</ele><time>2026-04-29T17:13:31.091Z</time></trkpt><trkpt lat="45.3913372" lon="7.9736363"><ele>385.5</ele><time>2026-04-29T17:13:32.087Z</time></trkpt><trkpt lat="45.3913198" lon="7.973824"><ele>385.0</ele><time>2026-04-29T17:13:33.098Z</time></trkpt><trkpt lat="45.3912903" lon="7.9740077"><ele>384.5</ele><time>2026-04-29T17:13:34.08Z</time></trkpt><trkpt lat="45.3912527" lon="7.9741846"><ele>384.0</ele><time>2026-04-29T17:13:35.094Z</time></trkpt><trkpt lat="45.3912119" lon="7.9743616"><ele>383.0</ele><time>2026-04-29T17:13:36.092Z</time></trkpt><trkpt lat="45.3911663" lon="7.9745396"><ele>382.0</ele><time>2026-04-29T17:13:37.096Z</time></trkpt><trkpt lat="45.3911114" lon="7.9747157"><ele>381.0</ele><time>2026-04-29T17:13:38.084Z</time></trkpt><trkpt lat="45.39105" lon="7.9748931"><ele>380.0</ele><time>2026-04-29T17:13:39.085Z</time></trkpt><trkpt lat="45.3909845" lon="7.9750677"><ele>377.75</ele><time>2026-04-29T17:13:40.092Z</time></trkpt><trkpt lat="45.3909156" lon="7.9752397"><ele>375.5</ele><time>2026-04-29T17:13:41.089Z</time></trkpt><trkpt lat="45.3908407" lon="7.9754088"><ele>373.25</ele><time>2026-04-29T17:13:42.081Z</time></trkpt><trkpt lat="45.3907617" lon="7.9755768"><ele>371.0</ele><time>2026-04-29T17:13:43.089Z</time></trkpt><trkpt lat="45.3906791" lon="7.9757433"><ele>371.0</ele><time>2026-04-29T17:13:44.086Z</time></trkpt><trkpt lat="45.3905923" lon="7.9759029"><ele>371.0</ele><time>2026-04-29T17:13:45.091Z</time></trkpt><trkpt lat="45.3905012" lon="7.9760574"><ele>371.0</ele><time>2026-04-29T17:13:46.09Z</time></trkpt><trkpt lat="45.3904083" lon="7.9762089"><ele>371.0</ele><time>2026-04-29T17:13:47.085Z</time></trkpt><trkpt lat="45.3903076" lon="7.9763524"><ele>371.0</ele><time>2026-04-29T17:13:48.079Z</time></trkpt><trkpt lat="45.3901991" lon="7.9764814"><ele>371.0</ele><time>2026-04-29T17:13:49.093Z</time></trkpt><trkpt lat="45.3900836" lon="7.976597"><ele>371.0</ele><time>2026-04-29T17:13:50.097Z</time></trkpt><trkpt lat="45.3899633" lon="7.9767088"><ele>371.0</ele><time>2026-04-29T17:13:51.091Z</time></trkpt><trkpt lat="45.3898432" lon="7.9768184"><ele>371.75</ele><time>2026-04-29T17:13:52.1Z</time></trkpt><trkpt lat="45.3897196" lon="7.9769221"><ele>372.5</ele><time>2026-04-29T17:13:53.092Z</time></trkpt><trkpt lat="45.3895973" lon="7.9770271"><ele>373.25</ele><time>2026-04-29T17:13:54.092Z</time></trkpt><trkpt lat="45.3894765" lon="7.9771326"><ele>374.0</ele><time>2026-04-29T17:13:55.096Z</time></trkpt><trkpt lat="45.3893572" lon="7.9772419"><ele>374.0</ele><time>2026-04-29T17:13:56.097Z</time></trkpt><trkpt lat="45.3892404" lon="7.9773526"><ele>374.0</ele><time>2026-04-29T17:13:57.096Z</time></trkpt><trkpt lat="45.3891269" lon="7.9774661"><ele>374.0</ele><time>2026-04-29T17:13:58.093Z</time></trkpt><trkpt lat="45.3890134" lon="7.9775757"><ele>374.0</ele><time>2026-04-29T17:13:59.089Z</time></trkpt><trkpt lat="45.3889004" lon="7.977682"><ele>374.0</ele><time>2026-04-29T17:14:00.089Z</time></trkpt><trkpt lat="45.3887878" lon="7.977789"><ele>374.0</ele><time>2026-04-29T17:14:01.092Z</time></trkpt><trkpt lat="45.3886745" lon="7.977903"><ele>374.0</ele><time>2026-04-29T17:14:02.097Z</time></trkpt><trkpt lat="45.3885655" lon="7.9780288"><ele>374.0</ele><time>2026-04-29T17:14:03.098Z</time></trkpt><trkpt lat="45.3884609" lon="7.9781685"><ele>374.0</ele><time>2026-04-29T17:14:04.091Z</time></trkpt><trkpt lat="45.3883658" lon="7.9783252"><ele>374.0</ele><time>2026-04-29T17:14:05.091Z</time></trkpt><trkpt lat="45.3882806" lon="7.9784936"><ele>374.0</ele><time>2026-04-29T17:14:06.092Z</time></trkpt><trkpt lat="45.3882029" lon="7.9786767"><ele>374.0</ele><time>2026-04-29T17:14:07.092Z</time></trkpt><trkpt lat="45.3881242" lon="7.9788646"><ele>373.33333333333337</ele><time>2026-04-29T17:14:08.104Z</time></trkpt><trkpt lat="45.3880483" lon="7.97906"><ele>372.6666666666667</ele><time>2026-04-29T17:14:09.093Z</time></trkpt><trkpt lat="45.3879755" lon="7.9792549"><ele>372.0</ele><time>2026-04-29T17:14:10.079Z</time></trkpt><trkpt lat="45.3878998" lon="7.9794509"><ele>372.0</ele><time>2026-04-29T17:14:11.091Z</time></trkpt><trkpt lat="45.3878237" lon="7.979646"><ele>372.0</ele><time>2026-04-29T17:14:12.084Z</time></trkpt><trkpt lat="45.3877486" lon="7.9798405"><ele>372.0</ele><time>2026-04-29T17:14:13.094Z</time></trkpt><trkpt lat="45.3876721" lon="7.9800327"><ele>369.0</ele><time>2026-04-29T17:14:14.094Z</time></trkpt><trkpt lat="45.3875942" lon="7.9802229"><ele>366.0</ele><time>2026-04-29T17:14:15.086Z</time></trkpt><trkpt lat="45.3875151" lon="7.9804116"><ele>363.0</ele><time>2026-04-29T17:14:16.087Z</time></trkpt><trkpt lat="45.3874361" lon="7.9805973"><ele>363.0</ele><time>2026-04-29T17:14:17.079Z</time></trkpt><trkpt lat="45.3873572" lon="7.9807825"><ele>363.0</ele><time>2026-04-29T17:14:18.098Z</time></trkpt><trkpt lat="45.3872783" lon="7.9809684"><ele>363.0</ele><time>2026-04-29T17:14:19.089Z</time></trkpt><trkpt lat="45.3872017" lon="7.9811539"><ele>363.0</ele><time>2026-04-29T17:14:20.093Z</time></trkpt><trkpt lat="45.3871237" lon="7.9813371"><ele>363.0</ele><time>2026-04-29T17:14:21.088Z</time></trkpt><trkpt lat="45.3870443" lon="7.9815195"><ele>363.0</ele><time>2026-04-29T17:14:22.084Z</time></trkpt><trkpt lat="45.3869636" lon="7.981702"><ele>363.0</ele><time>2026-04-29T17:14:23.093Z</time></trkpt><trkpt lat="45.386882" lon="7.9818836"><ele>363.0</ele><time>2026-04-29T17:14:24.091Z</time></trkpt><trkpt lat="45.3868016" lon="7.9820658"><ele>363.0</ele><time>2026-04-29T17:14:25.09Z</time></trkpt><trkpt lat="45.3867232" lon="7.98225"><ele>363.0</ele><time>2026-04-29T17:14:26.102Z</time></trkpt><trkpt lat="45.3866476" lon="7.9824356"><ele>363.0</ele><time>2026-04-29T17:14:27.092Z</time></trkpt><trkpt lat="45.3865717" lon="7.9826215"><ele>363.0</ele><time>2026-04-29T17:14:28.081Z</time></trkpt><trkpt lat="45.3864964" lon="7.982808"><ele>363.0</ele><time>2026-04-29T17:14:29.094Z</time></trkpt><trkpt lat="45.3864249" lon="7.9829937"><ele>363.0</ele><time>2026-04-29T17:14:30.092Z</time></trkpt><trkpt lat="45.3863554" lon="7.9831762"><ele>363.0</ele><time>2026-04-29T17:14:31.102Z</time></trkpt><trkpt lat="45.3862936" lon="7.9833586"><ele>363.0</ele><time>2026-04-29T17:14:32.099Z</time></trkpt><trkpt lat="45.3862415" lon="7.9835438"><ele>363.0</ele><time>2026-04-29T17:14:33.093Z</time></trkpt><trkpt lat="45.3861987" lon="7.9837332"><ele>363.0</ele><time>2026-04-29T17:14:34.092Z</time></trkpt><trkpt lat="45.3861635" lon="7.9839319"><ele>363.0</ele><time>2026-04-29T17:14:35.087Z</time></trkpt><trkpt lat="45.3861378" lon="7.9841374"><ele>363.0</ele><time>2026-04-29T17:14:36.078Z</time></trkpt><trkpt lat="45.3861194" lon="7.9843467"><ele>362.0</ele><time>2026-04-29T17:14:37.086Z</time></trkpt><trkpt lat="45.3861054" lon="7.9845581"><ele>361.0</ele><time>2026-04-29T17:14:38.091Z</time></trkpt><trkpt lat="45.3860954" lon="7.9847718"><ele>360.0</ele><time>2026-04-29T17:14:39.098Z</time></trkpt><trkpt lat="45.3860868" lon="7.9849754"><ele>359.0</ele><time>2026-04-29T17:14:40.099Z</time></trkpt><trkpt lat="45.386075" lon="7.985163"><ele>357.5</ele><time>2026-04-29T17:14:41.087Z</time></trkpt><trkpt lat="45.3860648" lon="7.985343"><ele>356.0</ele><time>2026-04-29T17:14:42.096Z</time></trkpt><trkpt lat="45.3860537" lon="7.9855075"><ele>354.5</ele><time>2026-04-29T17:14:43.094Z</time></trkpt><trkpt lat="45.3860464" lon="7.9856621"><ele>353.0</ele><time>2026-04-29T17:14:44.082Z</time></trkpt><trkpt lat="45.3860461" lon="7.9858082"><ele>352.2</ele><time>2026-04-29T17:14:45.094Z</time></trkpt><trkpt lat="45.3860518" lon="7.9859493"><ele>351.4</ele><time>2026-04-29T17:14:46.097Z</time></trkpt><trkpt lat="45.3860648" lon="7.9860818"><ele>350.59999999999997</ele><time>2026-04-29T17:14:47.102Z</time></trkpt><trkpt lat="45.3860852" lon="7.9862034"><ele>349.79999999999995</ele><time>2026-04-29T17:14:48.082Z</time></trkpt><trkpt lat="45.3861094" lon="7.9863066"><ele>349.0</ele><time>2026-04-29T17:14:49.093Z</time></trkpt><trkpt lat="45.3861573" lon="7.9864216"><ele>349.0</ele><time>2026-04-29T17:14:51.09Z</time></trkpt><trkpt lat="45.3862135" lon="7.9862938"><ele>349.0</ele><time>2026-04-29T17:14:54.076Z</time></trkpt><trkpt lat="45.3862176" lon="7.9861761"><ele>349.0</ele><time>2026-04-29T17:14:55.08Z</time></trkpt><trkpt lat="45.3862255" lon="7.9860267"><ele>349.0</ele><time>2026-04-29T17:14:56.084Z</time></trkpt><trkpt lat="45.3862395" lon="7.985854"><ele>349.0</ele><time>2026-04-29T17:14:57.078Z</time></trkpt><trkpt lat="45.3862601" lon="7.9856654"><ele>350.3333333333333</ele><time>2026-04-29T17:14:58.073Z</time></trkpt><trkpt lat="45.3862844" lon="7.9854653"><ele>351.6666666666667</ele><time>2026-04-29T17:14:59.082Z</time></trkpt><trkpt lat="45.3863052" lon="7.9852494"><ele>353.0</ele><time>2026-04-29T17:15:00.073Z</time></trkpt><trkpt lat="45.3863237" lon="7.9850219"><ele>355.0</ele><time>2026-04-29T17:15:01.076Z</time></trkpt><trkpt lat="45.3863353" lon="7.9847922"><ele>357.0</ele><time>2026-04-29T17:15:02.082Z</time></trkpt><trkpt lat="45.3863391" lon="7.9845743"><ele>359.0</ele><time>2026-04-29T17:15:03.079Z</time></trkpt><trkpt lat="45.3863385" lon="7.9843665"><ele>360.0</ele><time>2026-04-29T17:15:04.081Z</time></trkpt><trkpt lat="45.386338" lon="7.9841637"><ele>361.0</ele><time>2026-04-29T17:15:05.079Z</time></trkpt><trkpt lat="45.386347" lon="7.9839703"><ele>362.0</ele><time>2026-04-29T17:15:06.08Z</time></trkpt><trkpt lat="45.3863738" lon="7.9837845"><ele>363.0</ele><time>2026-04-29T17:15:07.078Z</time></trkpt><trkpt lat="45.3864319" lon="7.9836212"><ele>361.0</ele><time>2026-04-29T17:15:08.076Z</time></trkpt><trkpt lat="45.3865192" lon="7.9834725"><ele>359.0</ele><time>2026-04-29T17:15:09.088Z</time></trkpt><trkpt lat="45.3866222" lon="7.9833252"><ele>357.0</ele><time>2026-04-29T17:15:10.077Z</time></trkpt><trkpt lat="45.3867296" lon="7.9831722"><ele>355.0</ele><time>2026-04-29T17:15:11.078Z</time></trkpt><trkpt lat="45.3868389" lon="7.9830141"><ele>355.0</ele><time>2026-04-29T17:15:12.082Z</time></trkpt><trkpt lat="45.3869492" lon="7.982846"><ele>355.0</ele><time>2026-04-29T17:15:13.083Z</time></trkpt><trkpt lat="45.3870581" lon="7.9826711"><ele>355.0</ele><time>2026-04-29T17:15:14.086Z</time></trkpt><trkpt lat="45.3871657" lon="7.9824937"><ele>350.66666666666663</ele><time>2026-04-29T17:15:15.077Z</time></trkpt><trkpt lat="45.3872703" lon="7.9823138"><ele>346.3333333333333</ele><time>2026-04-29T17:15:16.078Z</time></trkpt><trkpt lat="45.3873727" lon="7.9821316"><ele>342.0</ele><time>2026-04-29T17:15:17.076Z</time></trkpt><trkpt lat="45.387473" lon="7.9819496"><ele>342.0</ele><time>2026-04-29T17:15:18.071Z</time></trkpt><trkpt lat="45.3875723" lon="7.9817676"><ele>342.0</ele><time>2026-04-29T17:15:19.073Z</time></trkpt><trkpt lat="45.3876704" lon="7.9815889"><ele>342.0</ele><time>2026-04-29T17:15:20.081Z</time></trkpt><trkpt lat="45.3877648" lon="7.9814176"><ele>342.75</ele><time>2026-04-29T17:15:21.079Z</time></trkpt><trkpt lat="45.3878524" lon="7.9812548"><ele>343.5</ele><time>2026-04-29T17:15:22.079Z</time></trkpt><trkpt lat="45.3879359" lon="7.9811014"><ele>344.25</ele><time>2026-04-29T17:15:23.083Z</time></trkpt><trkpt lat="45.3880136" lon="7.9809569"><ele>345.0</ele><time>2026-04-29T17:15:24.082Z</time></trkpt><trkpt lat="45.3880868" lon="7.98082"><ele>345.0</ele><time>2026-04-29T17:15:25.08Z</time></trkpt><trkpt lat="45.3881575" lon="7.9806916"><ele>345.0</ele><time>2026-04-29T17:15:26.079Z</time></trkpt><trkpt lat="45.388224" lon="7.9805668"><ele>345.0</ele><time>2026-04-29T17:15:27.074Z</time></trkpt><trkpt lat="45.3882884" lon="7.9804484"><ele>345.0</ele><time>2026-04-29T17:15:28.077Z</time></trkpt><trkpt lat="45.3883541" lon="7.9803346"><ele>345.0</ele><time>2026-04-29T17:15:29.079Z</time></trkpt><trkpt lat="45.3884258" lon="7.9802292"><ele>345.0</ele><time>2026-04-29T17:15:30.077Z</time></trkpt><trkpt lat="45.3884981" lon="7.9801276"><ele>345.0</ele><time>2026-04-29T17:15:31.079Z</time></trkpt><trkpt lat="45.3885711" lon="7.9800307"><ele>345.0</ele><time>2026-04-29T17:15:32.089Z</time></trkpt><trkpt lat="45.3886468" lon="7.9799428"><ele>345.0</ele><time>2026-04-29T17:15:33.078Z</time></trkpt><trkpt lat="45.3887256" lon="7.9798645"><ele>345.0</ele><time>2026-04-29T17:15:34.077Z</time></trkpt><trkpt lat="45.3888062" lon="7.979791"><ele>343.4</ele><time>2026-04-29T17:15:35.079Z</time></trkpt><trkpt lat="45.3888849" lon="7.9797137"><ele>341.8</ele><time>2026-04-29T17:15:36.079Z</time></trkpt><trkpt lat="45.3889619" lon="7.9796297"><ele>340.20000000000005</ele><time>2026-04-29T17:15:37.075Z</time></trkpt><trkpt lat="45.389039" lon="7.9795359"><ele>338.6</ele><time>2026-04-29T17:15:38.084Z</time></trkpt><trkpt lat="45.389117" lon="7.9794354"><ele>337.0</ele><time>2026-04-29T17:15:39.076Z</time></trkpt><trkpt lat="45.3891944" lon="7.9793346"><ele>337.0</ele><time>2026-04-29T17:15:40.082Z</time></trkpt><trkpt lat="45.3892673" lon="7.979233"><ele>337.0</ele><time>2026-04-29T17:15:41.079Z</time></trkpt><trkpt lat="45.3893395" lon="7.9791305"><ele>337.0</ele><time>2026-04-29T17:15:42.078Z</time></trkpt><trkpt lat="45.3894065" lon="7.9790302"><ele>337.0</ele><time>2026-04-29T17:15:43.08Z</time></trkpt><trkpt lat="45.3894736" lon="7.9789225"><ele>337.0</ele><time>2026-04-29T17:15:44.076Z</time></trkpt><trkpt lat="45.3895424" lon="7.9788119"><ele>336.3333333333333</ele><time>2026-04-29T17:15:45.077Z</time></trkpt><trkpt lat="45.3896098" lon="7.9787061"><ele>335.66666666666663</ele><time>2026-04-29T17:15:46.075Z</time></trkpt><trkpt lat="45.3896766" lon="7.9786095"><ele>335.0</ele><time>2026-04-29T17:15:47.08Z</time></trkpt><trkpt lat="45.389742" lon="7.9785262"><ele>334.3333333333333</ele><time>2026-04-29T17:15:48.081Z</time></trkpt><trkpt lat="45.3898079" lon="7.978459"><ele>333.6666666666667</ele><time>2026-04-29T17:15:49.079Z</time></trkpt><trkpt lat="45.3898695" lon="7.9784012"><ele>333.0</ele><time>2026-04-29T17:15:50.076Z</time></trkpt><trkpt lat="45.3899309" lon="7.9783486"><ele>335.0</ele><time>2026-04-29T17:15:51.083Z</time></trkpt><trkpt lat="45.3899903" lon="7.978289"><ele>337.0</ele><time>2026-04-29T17:15:52.074Z</time></trkpt><trkpt lat="45.3900475" lon="7.9782261"><ele>339.0</ele><time>2026-04-29T17:15:53.081Z</time></trkpt><trkpt lat="45.3901064" lon="7.9781667"><ele>341.0</ele><time>2026-04-29T17:15:54.081Z</time></trkpt><trkpt lat="45.3901677" lon="7.9781083"><ele>343.0</ele><time>2026-04-29T17:15:55.08Z</time></trkpt><trkpt lat="45.3902321" lon="7.9780454"><ele>345.0</ele><time>2026-04-29T17:15:56.073Z</time></trkpt><trkpt lat="45.3903013" lon="7.9779826"><ele>345.0</ele><time>2026-04-29T17:15:57.083Z</time></trkpt><trkpt lat="45.3903754" lon="7.9779306"><ele>345.0</ele><time>2026-04-29T17:15:58.073Z</time></trkpt><trkpt lat="45.3904467" lon="7.977889"><ele>345.0</ele><time>2026-04-29T17:15:59.079Z</time></trkpt><trkpt lat="45.3905144" lon="7.9778562"><ele>345.0</ele><time>2026-04-29T17:16:00.074Z</time></trkpt><trkpt lat="45.3906216" lon="7.9778157"><ele>345.0</ele><time>2026-04-29T17:16:02.077Z</time></trkpt><trkpt lat="45.3906829" lon="7.9778509"><ele>345.0</ele><time>2026-04-29T17:16:05.084Z</time></trkpt><trkpt lat="45.3906625" lon="7.9779669"><ele>343.7142857142857</ele><time>2026-04-29T17:16:08.078Z</time></trkpt><trkpt lat="45.3906449" lon="7.9780679"><ele>342.42857142857144</ele><time>2026-04-29T17:16:11.081Z</time></trkpt><trkpt lat="45.390691" lon="7.9781363"><ele>341.1428571428571</ele><time>2026-04-29T17:16:14.076Z</time></trkpt><trkpt lat="45.390753" lon="7.9781889"><ele>339.8571428571429</ele><time>2026-04-29T17:16:17.078Z</time></trkpt><trkpt lat="45.3908205" lon="7.9782747"><ele>338.57142857142856</ele><time>2026-04-29T17:16:20.079Z</time></trkpt><trkpt lat="45.3908631" lon="7.9783438"><ele>337.2857142857143</ele><time>2026-04-29T17:16:22.078Z</time></trkpt><trkpt lat="45.3909129" lon="7.9784246"><ele>336.0</ele><time>2026-04-29T17:16:26.079Z</time></trkpt><trkpt lat="45.3909746" lon="7.9784971"><ele>334.8333333333333</ele><time>2026-04-29T17:16:30.08Z</time></trkpt><trkpt lat="45.3909662" lon="7.9786019"><ele>333.6666666666667</ele><time>2026-04-29T17:16:57.077Z</time></trkpt><trkpt lat="45.3909233" lon="7.9786774"><ele>332.5</ele><time>2026-04-29T17:17:01.082Z</time></trkpt><trkpt lat="45.3908743" lon="7.9787458"><ele>331.33333333333337</ele><time>2026-04-29T17:17:06.078Z</time></trkpt><trkpt lat="45.3908334" lon="7.9788225"><ele>330.1666666666667</ele><time>2026-04-29T17:17:09.078Z</time></trkpt><trkpt lat="45.3907853" lon="7.9788901"><ele>329.0</ele><time>2026-04-29T17:17:13.075Z</time></trkpt><trkpt lat="45.3906901" lon="7.9790185"><ele>329.0</ele><time>2026-04-29T17:17:16.077Z</time></trkpt><trkpt lat="45.3907001" lon="7.9791154"><ele>329.0</ele><time>2026-04-29T17:18:57.078Z</time></trkpt><trkpt lat="45.3907213" lon="7.9790145"><ele>329.0</ele><time>2026-04-29T17:19:05.08Z</time></trkpt><trkpt lat="45.3907222" lon="7.9789214"><ele>329.0</ele><time>2026-04-29T17:19:08.078Z</time></trkpt><trkpt lat="45.3907773" lon="7.9788773"><ele>329.0</ele><time>2026-04-29T17:19:13.074Z</time></trkpt><trkpt lat="45.3908456" lon="7.9788058"><ele>329.0</ele><time>2026-04-29T17:19:17.079Z</time></trkpt><trkpt lat="45.3908784" lon="7.978722"><ele>329.0</ele><time>2026-04-29T17:19:20.079Z</time></trkpt><trkpt lat="45.390914" lon="7.978616"><ele>329.0</ele><time>2026-04-29T17:19:24.074Z</time></trkpt><trkpt lat="45.3909676" lon="7.9785643"><ele>329.0</ele><time>2026-04-29T17:19:38.081Z</time></trkpt><trkpt lat="45.3909394" lon="7.9784677"><ele>329.0</ele><time>2026-04-29T17:19:53.077Z</time></trkpt><trkpt lat="45.3908838" lon="7.9783779"><ele>329.0</ele><time>2026-04-29T17:19:55.082Z</time></trkpt><trkpt lat="45.3908171" lon="7.9782823"><ele>329.0</ele><time>2026-04-29T17:19:57.077Z</time></trkpt><trkpt lat="45.3907625" lon="7.9782015"><ele>329.0</ele><time>2026-04-29T17:19:59.075Z</time></trkpt><trkpt lat="45.3907062" lon="7.9781465"><ele>330.1666666666667</ele><time>2026-04-29T17:20:01.084Z</time></trkpt><trkpt lat="45.3906589" lon="7.978074"><ele>331.33333333333337</ele><time>2026-04-29T17:20:04.085Z</time></trkpt><trkpt lat="45.3906669" lon="7.9779759"><ele>332.5</ele><time>2026-04-29T17:20:07.08Z</time></trkpt><trkpt lat="45.3906782" lon="7.9778544"><ele>333.6666666666667</ele><time>2026-04-29T17:20:10.081Z</time></trkpt><trkpt lat="45.3906033" lon="7.9777855"><ele>334.8333333333333</ele><time>2026-04-29T17:20:13.072Z</time></trkpt><trkpt lat="45.3904959" lon="7.9778208"><ele>336.0</ele><time>2026-04-29T17:20:15.077Z</time></trkpt><trkpt lat="45.390435" lon="7.9778833"><ele>335.5</ele><time>2026-04-29T17:20:17.076Z</time></trkpt><trkpt lat="45.3904925" lon="7.9779314"><ele>335.0</ele><time>2026-04-29T17:20:23.074Z</time></trkpt><trkpt lat="45.3904226" lon="7.9780358"><ele>334.5</ele><time>2026-04-29T17:20:27.076Z</time></trkpt><trkpt lat="45.3903606" lon="7.9781111"><ele>334.0</ele><time>2026-04-29T17:20:29.076Z</time></trkpt><trkpt lat="45.3902978" lon="7.9781965"><ele>333.5</ele><time>2026-04-29T17:20:31.077Z</time></trkpt><trkpt lat="45.3902438" lon="7.9782841"><ele>333.0</ele><time>2026-04-29T17:20:33.078Z</time></trkpt><trkpt lat="45.3901899" lon="7.9783791"><ele>333.0</ele><time>2026-04-29T17:20:35.074Z</time></trkpt><trkpt lat="45.3901405" lon="7.9784662"><ele>333.0</ele><time>2026-04-29T17:20:37.084Z</time></trkpt><trkpt lat="45.3900953" lon="7.9785437"><ele>333.0</ele><time>2026-04-29T17:20:39.082Z</time></trkpt><trkpt lat="45.3900629" lon="7.9786219"><ele>333.0</ele><time>2026-04-29T17:20:43.074Z</time></trkpt><trkpt lat="45.3900905" lon="7.9787437"><ele>333.0</ele><time>2026-04-29T17:20:47.076Z</time></trkpt><trkpt lat="45.3900364" lon="7.9788353"><ele>333.0</ele><time>2026-04-29T17:20:49.079Z</time></trkpt><trkpt lat="45.3899994" lon="7.9789327"><ele>333.0</ele><time>2026-04-29T17:20:52.072Z</time></trkpt><trkpt lat="45.3899613" lon="7.9790154"><ele>333.0</ele><time>2026-04-29T17:20:55.078Z</time></trkpt><trkpt lat="45.3899943" lon="7.9790977"><ele>333.0</ele><time>2026-04-29T17:20:59.076Z</time></trkpt><trkpt lat="45.3900645" lon="7.9791009"><ele>333.0</ele><time>2026-04-29T17:21:02.083Z</time></trkpt><trkpt lat="45.3901268" lon="7.9791742"><ele>333.0</ele><time>2026-04-29T17:23:07.079Z</time></trkpt><trkpt lat="45.3901805" lon="7.9792605"><ele>333.0</ele><time>2026-04-29T17:23:09.086Z</time></trkpt><trkpt lat="45.3902371" lon="7.9793536"><ele>331.7142857142857</ele><time>2026-04-29T17:23:11.084Z</time></trkpt><trkpt lat="45.3902853" lon="7.9794257"><ele>330.4285714285714</ele><time>2026-04-29T17:23:13.087Z</time></trkpt><trkpt lat="45.3903335" lon="7.9795305"><ele>329.1428571428571</ele><time>2026-04-29T17:23:16.075Z</time></trkpt><trkpt lat="45.390337" lon="7.9796219"><ele>327.8571428571429</ele><time>2026-04-29T17:23:18.08Z</time></trkpt><trkpt lat="45.3903244" lon="7.9797169"><ele>326.57142857142856</ele><time>2026-04-29T17:23:20.079Z</time></trkpt><trkpt lat="45.3903146" lon="7.9798174"><ele>325.2857142857143</ele><time>2026-04-29T17:23:22.079Z</time></trkpt><trkpt lat="45.3903225" lon="7.9799123"><ele>324.0</ele><time>2026-04-29T17:23:24.082Z</time></trkpt><trkpt lat="45.3903141" lon="7.9800065"><ele>323.8333333333333</ele><time>2026-04-29T17:23:26.077Z</time></trkpt><trkpt lat="45.3902953" lon="7.9801164"><ele>323.6666666666667</ele><time>2026-04-29T17:23:28.081Z</time></trkpt><trkpt lat="45.3902725" lon="7.9802348"><ele>323.5</ele><time>2026-04-29T17:23:30.081Z</time></trkpt><trkpt lat="45.3902397" lon="7.9803618"><ele>323.33333333333337</ele><time>2026-04-29T17:23:32.075Z</time></trkpt><trkpt lat="45.3902145" lon="7.9804881"><ele>323.1666666666667</ele><time>2026-04-29T17:23:34.082Z</time></trkpt><trkpt lat="45.3902168" lon="7.9806031"><ele>323.0</ele><time>2026-04-29T17:23:36.079Z</time></trkpt><trkpt lat="45.3902397" lon="7.9807273"><ele>322.83333333333337</ele><time>2026-04-29T17:23:38.079Z</time></trkpt><trkpt lat="45.3902685" lon="7.9808493"><ele>322.6666666666667</ele><time>2026-04-29T17:23:40.075Z</time></trkpt><trkpt lat="45.3902818" lon="7.980943"><ele>322.5</ele><time>2026-04-29T17:23:42.077Z</time></trkpt><trkpt lat="45.3902827" lon="7.9810401"><ele>322.3333333333333</ele><time>2026-04-29T17:23:44.077Z</time></trkpt><trkpt lat="45.3902839" lon="7.9811539"><ele>322.16666666666663</ele><time>2026-04-29T17:23:46.078Z</time></trkpt><trkpt lat="45.3902877" lon="7.9812822"><ele>322.0</ele><time>2026-04-29T17:23:48.077Z</time></trkpt><trkpt lat="45.3902912" lon="7.9814241"><ele>322.0</ele><time>2026-04-29T17:23:50.079Z</time></trkpt><trkpt lat="45.3903064" lon="7.9815586"><ele>322.0</ele><time>2026-04-29T17:23:52.078Z</time></trkpt><trkpt lat="45.3903268" lon="7.9816798"><ele>322.0</ele><time>2026-04-29T17:23:54.08Z</time></trkpt><trkpt lat="45.3903461" lon="7.9817834"><ele>322.0</ele><time>2026-04-29T17:23:56.081Z</time></trkpt><trkpt lat="45.3903657" lon="7.981869"><ele>322.0</ele><time>2026-04-29T17:23:58.079Z</time></trkpt><trkpt lat="45.3904362" lon="7.9819407"><ele>322.0</ele><time>2026-04-29T17:24:01.08Z</time></trkpt><trkpt lat="45.390523" lon="7.9819494"><ele>322.0</ele><time>2026-04-29T17:24:04.078Z</time></trkpt><trkpt lat="45.390577" lon="7.9820117"><ele>322.0</ele><time>2026-04-29T17:24:05.08Z</time></trkpt><trkpt lat="45.3905074" lon="7.9819857"><ele>322.0</ele><time>2026-04-29T17:30:38.076Z</time></trkpt><trkpt lat="45.3904294" lon="7.9819394"><ele>322.0</ele><time>2026-04-29T17:30:42.076Z</time></trkpt><trkpt lat="45.390403" lon="7.9818475"><ele>322.0</ele><time>2026-04-29T17:30:45.08Z</time></trkpt><trkpt lat="45.3903974" lon="7.9817563"><ele>322.0</ele><time>2026-04-29T17:31:16.081Z</time></trkpt><trkpt lat="45.3903775" lon="7.9816705"><ele>322.0</ele><time>2026-04-29T17:31:18.084Z</time></trkpt><trkpt lat="45.390355" lon="7.9815495"><ele>322.0</ele><time>2026-04-29T17:31:20.086Z</time></trkpt><trkpt lat="45.3903284" lon="7.9814167"><ele>322.0</ele><time>2026-04-29T17:31:22.08Z</time></trkpt><trkpt lat="45.39031" lon="7.9812981"><ele>322.0</ele><time>2026-04-29T17:31:24.08Z</time></trkpt><trkpt lat="45.3903032" lon="7.9811731"><ele>322.0</ele><time>2026-04-29T17:31:26.084Z</time></trkpt><trkpt lat="45.3903046" lon="7.9810727"><ele>322.0</ele><time>2026-04-29T17:31:28.079Z</time></trkpt><trkpt lat="45.3902912" lon="7.9809436"><ele>322.0</ele><time>2026-04-29T17:31:31.08Z</time></trkpt><trkpt lat="45.3902692" lon="7.9808515"><ele>322.16666666666663</ele><time>2026-04-29T17:31:33.085Z</time></trkpt><trkpt lat="45.3902278" lon="7.9807407"><ele>322.3333333333333</ele><time>2026-04-29T17:31:35.078Z</time></trkpt><trkpt lat="45.3902011" lon="7.9806425"><ele>322.5</ele><time>2026-04-29T17:31:37.082Z</time></trkpt><trkpt lat="45.390208" lon="7.9805363"><ele>322.6666666666667</ele><time>2026-04-29T17:31:39.079Z</time></trkpt><trkpt lat="45.3902378" lon="7.9804055"><ele>322.83333333333337</ele><time>2026-04-29T17:31:41.083Z</time></trkpt><trkpt lat="45.3902761" lon="7.98028"><ele>323.0</ele><time>2026-04-29T17:31:43.085Z</time></trkpt><trkpt lat="45.3902949" lon="7.9801624"><ele>323.0</ele><time>2026-04-29T17:31:45.076Z</time></trkpt><trkpt lat="45.3903075" lon="7.9800659"><ele>323.0</ele><time>2026-04-29T17:31:47.081Z</time></trkpt><trkpt lat="45.3903174" lon="7.9799712"><ele>323.0</ele><time>2026-04-29T17:31:49.079Z</time></trkpt><trkpt lat="45.3903164" lon="7.979856"><ele>323.0</ele><time>2026-04-29T17:31:51.082Z</time></trkpt><trkpt lat="45.3903323" lon="7.9797395"><ele>323.0</ele><time>2026-04-29T17:31:53.084Z</time></trkpt><trkpt lat="45.3903445" lon="7.9796199"><ele>323.0</ele><time>2026-04-29T17:31:55.082Z</time></trkpt><trkpt lat="45.3903391" lon="7.9795157"><ele>323.1666666666667</ele><time>2026-04-29T17:31:57.081Z</time></trkpt><trkpt lat="45.3903003" lon="7.9794427"><ele>323.33333333333337</ele><time>2026-04-29T17:31:59.079Z</time></trkpt><trkpt lat="45.390249" lon="7.9793546"><ele>323.5</ele><time>2026-04-29T17:32:01.082Z</time></trkpt><trkpt lat="45.390191" lon="7.9792667"><ele>323.6666666666667</ele><time>2026-04-29T17:32:03.08Z</time></trkpt><trkpt lat="45.3901386" lon="7.9791982"><ele>323.8333333333333</ele><time>2026-04-29T17:32:05.079Z</time></trkpt><trkpt lat="45.390052" lon="7.9791597"><ele>324.0</ele><time>2026-04-29T17:32:08.08Z</time></trkpt><trkpt lat="45.3899662" lon="7.9791376"><ele>325.5</ele><time>2026-04-29T17:32:11.086Z</time></trkpt><trkpt lat="45.3899266" lon="7.9790565"><ele>327.0</ele><time>2026-04-29T17:32:14.078Z</time></trkpt><trkpt lat="45.389939" lon="7.9789402"><ele>328.5</ele><time>2026-04-29T17:32:16.081Z</time></trkpt><trkpt lat="45.389988" lon="7.9788223"><ele>330.0</ele><time>2026-04-29T17:32:18.089Z</time></trkpt><trkpt lat="45.3900313" lon="7.9787101"><ele>331.5</ele><time>2026-04-29T17:32:20.081Z</time></trkpt><trkpt lat="45.3900575" lon="7.9786246"><ele>333.0</ele><time>2026-04-29T17:32:22.08Z</time></trkpt><trkpt lat="45.3901013" lon="7.9785256"><ele>333.0</ele><time>2026-04-29T17:32:25.078Z</time></trkpt><trkpt lat="45.3901471" lon="7.978434"><ele>333.0</ele><time>2026-04-29T17:32:27.087Z</time></trkpt><trkpt lat="45.39019" lon="7.9783414"><ele>333.0</ele><time>2026-04-29T17:32:29.076Z</time></trkpt><trkpt lat="45.3902354" lon="7.9782564"><ele>333.0</ele><time>2026-04-29T17:32:31.079Z</time></trkpt><trkpt lat="45.3902985" lon="7.9781682"><ele>333.0</ele><time>2026-04-29T17:32:33.085Z</time></trkpt><trkpt lat="45.3903663" lon="7.9780806"><ele>333.0</ele><time>2026-04-29T17:32:35.083Z</time></trkpt><trkpt lat="45.3904243" lon="7.9780025"><ele>335.4</ele><time>2026-04-29T17:32:37.082Z</time></trkpt><trkpt lat="45.390465" lon="7.9779311"><ele>337.79999999999995</ele><time>2026-04-29T17:32:40.085Z</time></trkpt><trkpt lat="45.3903723" lon="7.9779183"><ele>340.2</ele><time>2026-04-29T17:32:46.077Z</time></trkpt><trkpt lat="45.3902939" lon="7.9779813"><ele>342.6</ele><time>2026-04-29T17:32:47.084Z</time></trkpt><trkpt lat="45.3901914" lon="7.9780633"><ele>345.0</ele><time>2026-04-29T17:32:48.084Z</time></trkpt><trkpt lat="45.390072" lon="7.9781618"><ele>345.0</ele><time>2026-04-29T17:32:49.081Z</time></trkpt><trkpt lat="45.3899565" lon="7.9782684"><ele>345.0</ele><time>2026-04-29T17:32:50.084Z</time></trkpt><trkpt lat="45.38985" lon="7.9783763"><ele>345.0</ele><time>2026-04-29T17:32:51.086Z</time></trkpt><trkpt lat="45.3897494" lon="7.9784818"><ele>345.0</ele><time>2026-04-29T17:32:52.084Z</time></trkpt><trkpt lat="45.3896471" lon="7.9785909"><ele>346.0</ele><time>2026-04-29T17:32:53.085Z</time></trkpt><trkpt lat="45.3895461" lon="7.9787135"><ele>347.0</ele><time>2026-04-29T17:32:54.088Z</time></trkpt><trkpt lat="45.389446" lon="7.9788482"><ele>348.0</ele><time>2026-04-29T17:32:55.083Z</time></trkpt><trkpt lat="45.3893457" lon="7.9789962"><ele>349.0</ele><time>2026-04-29T17:32:56.083Z</time></trkpt><trkpt lat="45.3892483" lon="7.9791552"><ele>345.0</ele><time>2026-04-29T17:32:57.082Z</time></trkpt><trkpt lat="45.3891491" lon="7.9793142"><ele>341.0</ele><time>2026-04-29T17:32:58.083Z</time></trkpt><trkpt lat="45.3890468" lon="7.979471"><ele>337.0</ele><time>2026-04-29T17:32:59.085Z</time></trkpt><trkpt lat="45.3889371" lon="7.97962"><ele>339.0</ele><time>2026-04-29T17:33:00.083Z</time></trkpt><trkpt lat="45.3888219" lon="7.9797581"><ele>341.0</ele><time>2026-04-29T17:33:01.087Z</time></trkpt><trkpt lat="45.3887029" lon="7.9798869"><ele>343.0</ele><time>2026-04-29T17:33:02.083Z</time></trkpt><trkpt lat="45.3885853" lon="7.9800176"><ele>345.0</ele><time>2026-04-29T17:33:03.08Z</time></trkpt><trkpt lat="45.3884696" lon="7.9801536"><ele>345.0</ele><time>2026-04-29T17:33:04.082Z</time></trkpt><trkpt lat="45.3883563" lon="7.9803013"><ele>345.0</ele><time>2026-04-29T17:33:05.082Z</time></trkpt><trkpt lat="45.3882454" lon="7.9804649"><ele>345.0</ele><time>2026-04-29T17:33:06.084Z</time></trkpt><trkpt lat="45.3881372" lon="7.9806438"><ele>345.0</ele><time>2026-04-29T17:33:07.085Z</time></trkpt><trkpt lat="45.3880324" lon="7.9808308"><ele>345.0</ele><time>2026-04-29T17:33:08.083Z</time></trkpt><trkpt lat="45.3879348" lon="7.9810264"><ele>345.0</ele><time>2026-04-29T17:33:09.08Z</time></trkpt><trkpt lat="45.3878383" lon="7.9812247"><ele>344.0</ele><time>2026-04-29T17:33:10.081Z</time></trkpt><trkpt lat="45.3877415" lon="7.9814213"><ele>343.0</ele><time>2026-04-29T17:33:11.089Z</time></trkpt><trkpt lat="45.3876409" lon="7.9816158"><ele>342.0</ele><time>2026-04-29T17:33:12.078Z</time></trkpt><trkpt lat="45.3875396" lon="7.9818078"><ele>342.0</ele><time>2026-04-29T17:33:13.083Z</time></trkpt><trkpt lat="45.3874371" lon="7.9819985"><ele>342.0</ele><time>2026-04-29T17:33:14.084Z</time></trkpt><trkpt lat="45.3873304" lon="7.9821892"><ele>342.0</ele><time>2026-04-29T17:33:15.081Z</time></trkpt><trkpt lat="45.3872204" lon="7.9823809"><ele>346.3333333333333</ele><time>2026-04-29T17:33:16.085Z</time></trkpt><trkpt lat="45.3871099" lon="7.9825749"><ele>350.66666666666663</ele><time>2026-04-29T17:33:17.078Z</time></trkpt><trkpt lat="45.3870005" lon="7.9827705"><ele>355.0</ele><time>2026-04-29T17:33:18.083Z</time></trkpt><trkpt lat="45.3868942" lon="7.982969"><ele>355.0</ele><time>2026-04-29T17:33:19.082Z</time></trkpt><trkpt lat="45.3867928" lon="7.9831613"><ele>355.0</ele><time>2026-04-29T17:33:20.087Z</time></trkpt><trkpt lat="45.3866974" lon="7.9833423"><ele>355.0</ele><time>2026-04-29T17:33:21.085Z</time></trkpt><trkpt lat="45.386606" lon="7.9835036"><ele>354.0</ele><time>2026-04-29T17:33:22.083Z</time></trkpt><trkpt lat="45.3865167" lon="7.9836499"><ele>353.0</ele><time>2026-04-29T17:33:23.088Z</time></trkpt><trkpt lat="45.3864386" lon="7.9837957"><ele>352.0</ele><time>2026-04-29T17:33:24.078Z</time></trkpt><trkpt lat="45.3863783" lon="7.9839486"><ele>351.0</ele><time>2026-04-29T17:33:25.082Z</time></trkpt><trkpt lat="45.3863439" lon="7.9841146"><ele>348.6666666666667</ele><time>2026-04-29T17:33:26.083Z</time></trkpt><trkpt lat="45.3863326" lon="7.9842995"><ele>346.33333333333337</ele><time>2026-04-29T17:33:27.078Z</time></trkpt><trkpt lat="45.3863386" lon="7.9845199"><ele>344.0</ele><time>2026-04-29T17:33:28.085Z</time></trkpt><trkpt lat="45.3863533" lon="7.9847722"><ele>343.33333333333337</ele><time>2026-04-29T17:33:29.084Z</time></trkpt><trkpt lat="45.3863604" lon="7.9850297"><ele>342.6666666666667</ele><time>2026-04-29T17:33:30.081Z</time></trkpt><trkpt lat="45.3863581" lon="7.9852772"><ele>342.0</ele><time>2026-04-29T17:33:31.084Z</time></trkpt><trkpt lat="45.3863456" lon="7.9855089"><ele>343.75</ele><time>2026-04-29T17:33:32.08Z</time></trkpt><trkpt lat="45.3863219" lon="7.985727"><ele>345.5</ele><time>2026-04-29T17:33:33.084Z</time></trkpt><trkpt lat="45.3862898" lon="7.9859292"><ele>347.25</ele><time>2026-04-29T17:33:34.081Z</time></trkpt><trkpt lat="45.3862585" lon="7.9861163"><ele>349.0</ele><time>2026-04-29T17:33:35.079Z</time></trkpt><trkpt lat="45.3862299" lon="7.9862887"><ele>349.0</ele><time>2026-04-29T17:33:36.083Z</time></trkpt><trkpt lat="45.3862069" lon="7.9864484"><ele>349.0</ele><time>2026-04-29T17:33:37.079Z</time></trkpt><trkpt lat="45.3861963" lon="7.986602"><ele>349.0</ele><time>2026-04-29T17:33:38.084Z</time></trkpt><trkpt lat="45.3862125" lon="7.9867511"><ele>349.0</ele><time>2026-04-29T17:33:39.086Z</time></trkpt><trkpt lat="45.3862526" lon="7.9869006"><ele>349.0</ele><time>2026-04-29T17:33:40.086Z</time></trkpt><trkpt lat="45.3863043" lon="7.9870566"><ele>347.25</ele><time>2026-04-29T17:33:41.086Z</time></trkpt><trkpt lat="45.3863598" lon="7.9872184"><ele>345.5</ele><time>2026-04-29T17:33:42.088Z</time></trkpt><trkpt lat="45.3864135" lon="7.9873843"><ele>343.75</ele><time>2026-04-29T17:33:43.09Z</time></trkpt><trkpt lat="45.3864626" lon="7.9875489"><ele>342.0</ele><time>2026-04-29T17:33:44.089Z</time></trkpt><trkpt lat="45.3865099" lon="7.9877147"><ele>342.0</ele><time>2026-04-29T17:33:45.088Z</time></trkpt><trkpt lat="45.3865559" lon="7.9878847"><ele>342.0</ele><time>2026-04-29T17:33:46.083Z</time></trkpt><trkpt lat="45.386601" lon="7.9880528"><ele>342.0</ele><time>2026-04-29T17:33:47.083Z</time></trkpt><trkpt lat="45.3866465" lon="7.9882197"><ele>342.0</ele><time>2026-04-29T17:33:48.081Z</time></trkpt><trkpt lat="45.3866923" lon="7.9883879"><ele>342.25</ele><time>2026-04-29T17:33:49.084Z</time></trkpt><trkpt lat="45.3867382" lon="7.9885584"><ele>342.5</ele><time>2026-04-29T17:33:50.083Z</time></trkpt><trkpt lat="45.386784" lon="7.9887289"><ele>342.75</ele><time>2026-04-29T17:33:51.104Z</time></trkpt><trkpt lat="45.3868308" lon="7.9888968"><ele>343.0</ele><time>2026-04-29T17:33:52.089Z</time></trkpt><trkpt lat="45.3868784" lon="7.9890649"><ele>343.75</ele><time>2026-04-29T17:33:53.095Z</time></trkpt><trkpt lat="45.3869252" lon="7.9892353"><ele>344.5</ele><time>2026-04-29T17:33:54.094Z</time></trkpt><trkpt lat="45.3869715" lon="7.9894055"><ele>345.25</ele><time>2026-04-29T17:33:55.089Z</time></trkpt><trkpt lat="45.3870167" lon="7.9895761"><ele>346.0</ele><time>2026-04-29T17:33:56.096Z</time></trkpt><trkpt lat="45.3870612" lon="7.9897441"><ele>346.0</ele><time>2026-04-29T17:33:57.091Z</time></trkpt><trkpt lat="45.3871044" lon="7.9899036"><ele>346.0</ele><time>2026-04-29T17:33:58.094Z</time></trkpt><trkpt lat="45.3871455" lon="7.990055"><ele>346.0</ele><time>2026-04-29T17:33:59.093Z</time></trkpt><trkpt lat="45.3871842" lon="7.9901945"><ele>346.0</ele><time>2026-04-29T17:34:00.095Z</time></trkpt><trkpt lat="45.3872201" lon="7.9903252"><ele>346.0</ele><time>2026-04-29T17:34:01.1Z</time></trkpt><trkpt lat="45.3872534" lon="7.9904463"><ele>346.5</ele><time>2026-04-29T17:34:02.089Z</time></trkpt><trkpt lat="45.3872822" lon="7.99056"><ele>347.0</ele><time>2026-04-29T17:34:03.091Z</time></trkpt><trkpt lat="45.3873072" lon="7.9906665"><ele>347.5</ele><time>2026-04-29T17:34:04.09Z</time></trkpt><trkpt lat="45.3873332" lon="7.9907625"><ele>348.0</ele><time>2026-04-29T17:34:05.093Z</time></trkpt><trkpt lat="45.3873748" lon="7.9908935"><ele>348.5</ele><time>2026-04-29T17:34:07.084Z</time></trkpt><trkpt lat="45.3872836" lon="7.9909485"><ele>349.0</ele><time>2026-04-29T17:34:10.076Z</time></trkpt><trkpt lat="45.3872202" lon="7.990965"><ele>349.4</ele><time>2026-04-29T17:34:11.082Z</time></trkpt><trkpt lat="45.3871407" lon="7.9909997"><ele>349.79999999999995</ele><time>2026-04-29T17:34:12.081Z</time></trkpt><trkpt lat="45.387057" lon="7.9910405"><ele>350.20000000000005</ele><time>2026-04-29T17:34:13.086Z</time></trkpt><trkpt lat="45.3869654" lon="7.9910724"><ele>350.6</ele><time>2026-04-29T17:34:14.083Z</time></trkpt><trkpt lat="45.386872" lon="7.9910888"><ele>351.0</ele><time>2026-04-29T17:34:15.082Z</time></trkpt><trkpt lat="45.3867782" lon="7.9910921"><ele>351.0</ele><time>2026-04-29T17:34:16.084Z</time></trkpt><trkpt lat="45.3866852" lon="7.9910914"><ele>351.0</ele><time>2026-04-29T17:34:17.082Z</time></trkpt><trkpt lat="45.386591" lon="7.9910915"><ele>351.0</ele><time>2026-04-29T17:34:18.083Z</time></trkpt><trkpt lat="45.3864967" lon="7.9911"><ele>351.0</ele><time>2026-04-29T17:34:19.082Z</time></trkpt><trkpt lat="45.3864037" lon="7.9911167"><ele>351.0</ele><time>2026-04-29T17:34:20.082Z</time></trkpt><trkpt lat="45.3863207" lon="7.9911403"><ele>351.1666666666667</ele><time>2026-04-29T17:34:21.085Z</time></trkpt><trkpt lat="45.3862498" lon="7.9911736"><ele>351.3333333333333</ele><time>2026-04-29T17:34:22.085Z</time></trkpt><trkpt lat="45.3861902" lon="7.9912279"><ele>351.5</ele><time>2026-04-29T17:34:23.084Z</time></trkpt><trkpt lat="45.3861373" lon="7.9913094"><ele>351.66666666666663</ele><time>2026-04-29T17:34:24.084Z</time></trkpt><trkpt lat="45.3860843" lon="7.9914079"><ele>351.8333333333333</ele><time>2026-04-29T17:34:25.085Z</time></trkpt><trkpt lat="45.3860262" lon="7.991514"><ele>352.0</ele><time>2026-04-29T17:34:26.082Z</time></trkpt><trkpt lat="45.3859602" lon="7.9916155"><ele>352.0</ele><time>2026-04-29T17:34:27.081Z</time></trkpt><trkpt lat="45.3858823" lon="7.9916998"><ele>352.0</ele><time>2026-04-29T17:34:28.084Z</time></trkpt><trkpt lat="45.3857947" lon="7.9917587"><ele>352.0</ele><time>2026-04-29T17:34:29.081Z</time></trkpt><trkpt lat="45.3857012" lon="7.9917974"><ele>352.0</ele><time>2026-04-29T17:34:30.084Z</time></trkpt><trkpt lat="45.3856092" lon="7.9918357"><ele>352.0</ele><time>2026-04-29T17:34:31.083Z</time></trkpt><trkpt lat="45.3855272" lon="7.9918721"><ele>351.8</ele><time>2026-04-29T17:34:32.083Z</time></trkpt><trkpt lat="45.3854596" lon="7.991899"><ele>351.6</ele><time>2026-04-29T17:34:33.089Z</time></trkpt><trkpt lat="45.3853744" lon="7.9918788"><ele>351.40000000000003</ele><time>2026-04-29T17:34:35.085Z</time></trkpt><trkpt lat="45.3853308" lon="7.991725"><ele>351.20000000000005</ele><time>2026-04-29T17:34:37.081Z</time></trkpt><trkpt lat="45.3852677" lon="7.9916007"><ele>351.0</ele><time>2026-04-29T17:34:39.083Z</time></trkpt><trkpt lat="45.38515" lon="7.9916273"><ele>351.0</ele><time>2026-04-29T17:34:41.087Z</time></trkpt><trkpt lat="45.3850722" lon="7.991685"><ele>351.0</ele><time>2026-04-29T17:34:42.084Z</time></trkpt><trkpt lat="45.3849835" lon="7.991751"><ele>351.0</ele><time>2026-04-29T17:34:43.09Z</time></trkpt><trkpt lat="45.3848814" lon="7.9918113"><ele>351.0</ele><time>2026-04-29T17:34:44.087Z</time></trkpt><trkpt lat="45.3847711" lon="7.9918694"><ele>351.0</ele><time>2026-04-29T17:34:45.081Z</time></trkpt><trkpt lat="45.3846632" lon="7.9919239"><ele>352.0</ele><time>2026-04-29T17:34:46.086Z</time></trkpt><trkpt lat="45.3845597" lon="7.9919676"><ele>353.0</ele><time>2026-04-29T17:34:47.088Z</time></trkpt><trkpt lat="45.3844655" lon="7.9919989"><ele>354.0</ele><time>2026-04-29T17:34:48.08Z</time></trkpt><trkpt lat="45.3843885" lon="7.9920237"><ele>355.0</ele><time>2026-04-29T17:34:49.081Z</time></trkpt><trkpt lat="45.3843222" lon="7.9920437"><ele>356.0</ele><time>2026-04-29T17:34:50.083Z</time></trkpt><trkpt lat="45.3842557" lon="7.9920544"><ele>357.0</ele><time>2026-04-29T17:34:51.084Z</time></trkpt><trkpt lat="45.3841856" lon="7.9920536"><ele>357.0</ele><time>2026-04-29T17:34:52.088Z</time></trkpt><trkpt lat="45.3841056" lon="7.992056"><ele>357.0</ele><time>2026-04-29T17:34:53.089Z</time></trkpt><trkpt lat="45.3840239" lon="7.9920805"><ele>357.0</ele><time>2026-04-29T17:34:54.084Z</time></trkpt><trkpt lat="45.3839368" lon="7.9921317"><ele>357.0</ele><time>2026-04-29T17:34:55.08Z</time></trkpt><trkpt lat="45.3838567" lon="7.9922026"><ele>357.0</ele><time>2026-04-29T17:34:56.082Z</time></trkpt><trkpt lat="45.3837772" lon="7.9922728"><ele>357.0</ele><time>2026-04-29T17:34:57.083Z</time></trkpt><trkpt lat="45.3836962" lon="7.9923311"><ele>358.5</ele><time>2026-04-29T17:34:58.083Z</time></trkpt><trkpt lat="45.3836166" lon="7.9923774"><ele>360.0</ele><time>2026-04-29T17:34:59.086Z</time></trkpt><trkpt lat="45.3835399" lon="7.9924171"><ele>361.5</ele><time>2026-04-29T17:35:00.084Z</time></trkpt><trkpt lat="45.3834697" lon="7.9924522"><ele>363.0</ele><time>2026-04-29T17:35:01.083Z</time></trkpt><trkpt lat="45.3833649" lon="7.9924966"><ele>364.5</ele><time>2026-04-29T17:35:03.083Z</time></trkpt><trkpt lat="45.3832962" lon="7.9924866"><ele>366.0</ele><time>2026-04-29T17:35:05.086Z</time></trkpt><trkpt lat="45.3832551" lon="7.9923747"><ele>366.0</ele><time>2026-04-29T17:35:07.078Z</time></trkpt><trkpt lat="45.3832382" lon="7.9922761"><ele>366.0</ele><time>2026-04-29T17:35:08.081Z</time></trkpt><trkpt lat="45.3832155" lon="7.9921615"><ele>366.0</ele><time>2026-04-29T17:35:09.085Z</time></trkpt><trkpt lat="45.383186" lon="7.9920417"><ele>366.0</ele><time>2026-04-29T17:35:10.081Z</time></trkpt><trkpt lat="45.3831522" lon="7.9919175"><ele>366.0</ele><time>2026-04-29T17:35:11.084Z</time></trkpt><trkpt lat="45.3831152" lon="7.9917931"><ele>366.0</ele><time>2026-04-29T17:35:12.08Z</time></trkpt><trkpt lat="45.3830752" lon="7.9916811"><ele>366.0</ele><time>2026-04-29T17:35:13.082Z</time></trkpt><trkpt lat="45.3830301" lon="7.9915905"><ele>366.0</ele><time>2026-04-29T17:35:14.087Z</time></trkpt><trkpt lat="45.3829807" lon="7.9915055"><ele>366.0</ele><time>2026-04-29T17:35:15.082Z</time></trkpt><trkpt lat="45.3829426" lon="7.99142"><ele>366.0</ele><time>2026-04-29T17:35:16.08Z</time></trkpt><trkpt lat="45.3829246" lon="7.9913338"><ele>366.0</ele><time>2026-04-29T17:35:17.079Z</time></trkpt><trkpt lat="45.3829128" lon="7.9912369"><ele>366.0</ele><time>2026-04-29T17:35:18.085Z</time></trkpt><trkpt lat="45.3829053" lon="7.9911336"><ele>366.0</ele><time>2026-04-29T17:35:19.084Z</time></trkpt><trkpt lat="45.3828981" lon="7.9910261"><ele>368.8333333333333</ele><time>2026-04-29T17:35:20.082Z</time></trkpt><trkpt lat="45.3828894" lon="7.9909203"><ele>371.6666666666667</ele><time>2026-04-29T17:35:21.088Z</time></trkpt><trkpt lat="45.3828834" lon="7.990825"><ele>374.5</ele><time>2026-04-29T17:35:22.082Z</time></trkpt><trkpt lat="45.382866" lon="7.9906867"><ele>377.33333333333337</ele><time>2026-04-29T17:35:24.083Z</time></trkpt><trkpt lat="45.3828211" lon="7.990586"><ele>380.1666666666667</ele><time>2026-04-29T17:35:26.08Z</time></trkpt><trkpt lat="45.3827719" lon="7.9904671"><ele>383.0</ele><time>2026-04-29T17:35:28.084Z</time></trkpt><trkpt lat="45.3827609" lon="7.9902977"><ele>383.5</ele><time>2026-04-29T17:35:30.081Z</time></trkpt><trkpt lat="45.382762" lon="7.9902015"><ele>384.0</ele><time>2026-04-29T17:35:31.086Z</time></trkpt><trkpt lat="45.382759" lon="7.9901087"><ele>384.5</ele><time>2026-04-29T17:35:32.082Z</time></trkpt><trkpt lat="45.3827418" lon="7.9899697"><ele>385.0</ele><time>2026-04-29T17:35:34.083Z</time></trkpt><trkpt lat="45.382718" lon="7.9898445"><ele>385.49999999999994</ele><time>2026-04-29T17:35:37.08Z</time></trkpt><trkpt lat="45.3826906" lon="7.9897433"><ele>386.0</ele><time>2026-04-29T17:35:39.082Z</time></trkpt><trkpt lat="45.382658" lon="7.9896033"><ele>387.0</ele><time>2026-04-29T17:35:41.082Z</time></trkpt><trkpt lat="45.3826102" lon="7.9894522"><ele>388.0</ele><time>2026-04-29T17:35:43.081Z</time></trkpt><trkpt lat="45.3825335" lon="7.9893273"><ele>389.0</ele><time>2026-04-29T17:35:45.086Z</time></trkpt><trkpt lat="45.3824495" lon="7.9892589"><ele>390.0</ele><time>2026-04-29T17:35:47.08Z</time></trkpt><trkpt lat="45.3823975" lon="7.9891963"><ele>391.0</ele><time>2026-04-29T17:35:50.09Z</time></trkpt><trkpt lat="45.3823944" lon="7.9891016"><ele>392.4</ele><time>2026-04-29T17:35:52.082Z</time></trkpt><trkpt lat="45.382397" lon="7.9889529"><ele>393.8</ele><time>2026-04-29T17:35:54.083Z</time></trkpt><trkpt lat="45.3823846" lon="7.9888252"><ele>395.2</ele><time>2026-04-29T17:35:56.083Z</time></trkpt><trkpt lat="45.3823354" lon="7.9887004"><ele>396.59999999999997</ele><time>2026-04-29T17:35:58.085Z</time></trkpt><trkpt lat="45.3822616" lon="7.9885872"><ele>398.0</ele><time>2026-04-29T17:36:00.083Z</time></trkpt><trkpt lat="45.3822102" lon="7.9884869"><ele>397.99999999999994</ele><time>2026-04-29T17:36:02.081Z</time></trkpt><trkpt lat="45.3821905" lon="7.9883487"><ele>398.0</ele><time>2026-04-29T17:36:04.083Z</time></trkpt><trkpt lat="45.3821873" lon="7.9882075"><ele>398.0</ele><time>2026-04-29T17:36:06.087Z</time></trkpt><trkpt lat="45.3821399" lon="7.9881407"><ele>398.0</ele><time>2026-04-29T17:36:10.083Z</time></trkpt><trkpt lat="45.3820659" lon="7.9882093"><ele>397.99999999999994</ele><time>2026-04-29T17:36:12.083Z</time></trkpt><trkpt lat="45.3820095" lon="7.9883082"><ele>398.0</ele><time>2026-04-29T17:36:14.081Z</time></trkpt><trkpt lat="45.3819822" lon="7.9883897"><ele>400.3333333333333</ele><time>2026-04-29T17:36:16.083Z</time></trkpt><trkpt lat="45.3819329" lon="7.9884921"><ele>402.66666666666663</ele><time>2026-04-29T17:36:18.085Z</time></trkpt><trkpt lat="45.3818786" lon="7.9885934"><ele>405.0</ele><time>2026-04-29T17:36:20.081Z</time></trkpt><trkpt lat="45.3818274" lon="7.9886766"><ele>407.33333333333337</ele><time>2026-04-29T17:36:22.085Z</time></trkpt><trkpt lat="45.3817772" lon="7.9887423"><ele>409.6666666666667</ele><time>2026-04-29T17:36:24.081Z</time></trkpt><trkpt lat="45.3816977" lon="7.9887857"><ele>412.0</ele><time>2026-04-29T17:36:26.083Z</time></trkpt><trkpt lat="45.381617" lon="7.9887976"><ele>412.0</ele><time>2026-04-29T17:36:28.083Z</time></trkpt><trkpt lat="45.3815209" lon="7.9887966"><ele>412.0</ele><time>2026-04-29T17:36:31.08Z</time></trkpt><trkpt lat="45.3814395" lon="7.9887642"><ele>412.0</ele><time>2026-04-29T17:36:34.081Z</time></trkpt><trkpt lat="45.3814448" lon="7.9886257"><ele>412.0</ele><time>2026-04-29T17:36:59.084Z</time></trkpt><trkpt lat="45.3815054" lon="7.9884895"><ele>412.0</ele><time>2026-04-29T17:37:01.089Z</time></trkpt><trkpt lat="45.3815565" lon="7.9883855"><ele>413.6</ele><time>2026-04-29T17:37:03.088Z</time></trkpt><trkpt lat="45.3815744" lon="7.9882683"><ele>415.20000000000005</ele><time>2026-04-29T17:37:05.085Z</time></trkpt><trkpt lat="45.3815719" lon="7.9881276"><ele>416.8</ele><time>2026-04-29T17:37:07.082Z</time></trkpt><trkpt lat="45.3815683" lon="7.9879885"><ele>418.4</ele><time>2026-04-29T17:37:09.082Z</time></trkpt><trkpt lat="45.3815653" lon="7.9878414"><ele>420.0</ele><time>2026-04-29T17:37:11.087Z</time></trkpt><trkpt lat="45.3815523" lon="7.9876879"><ele>420.0</ele><time>2026-04-29T17:37:13.085Z</time></trkpt><trkpt lat="45.3815515" lon="7.9875438"><ele>420.0</ele><time>2026-04-29T17:37:15.08Z</time></trkpt><trkpt lat="45.3815911" lon="7.9873936"><ele>420.0</ele><time>2026-04-29T17:37:17.082Z</time></trkpt><trkpt lat="45.3816616" lon="7.9872504"><ele>420.0</ele><time>2026-04-29T17:37:19.086Z</time></trkpt><trkpt lat="45.3817079" lon="7.9871871"><ele>420.0</ele><time>2026-04-29T17:37:20.085Z</time></trkpt><trkpt lat="45.3817819" lon="7.9870715"><ele>420.8</ele><time>2026-04-29T17:37:22.084Z</time></trkpt><trkpt lat="45.3818369" lon="7.9869515"><ele>421.6</ele><time>2026-04-29T17:37:24.082Z</time></trkpt><trkpt lat="45.3818313" lon="7.9868144"><ele>422.4</ele><time>2026-04-29T17:37:26.084Z</time></trkpt><trkpt lat="45.3818311" lon="7.9866694"><ele>423.2</ele><time>2026-04-29T17:37:28.083Z</time></trkpt><trkpt lat="45.3818679" lon="7.9865184"><ele>424.0</ele><time>2026-04-29T17:37:30.084Z</time></trkpt><trkpt lat="45.3819111" lon="7.9863507"><ele>424.50000000000006</ele><time>2026-04-29T17:37:32.09Z</time></trkpt><trkpt lat="45.3819175" lon="7.9862578"><ele>425.0</ele><time>2026-04-29T17:37:33.087Z</time></trkpt><trkpt lat="45.381907" lon="7.9861064"><ele>425.5</ele><time>2026-04-29T17:37:35.083Z</time></trkpt><trkpt lat="45.3818595" lon="7.9859669"><ele>426.0</ele><time>2026-04-29T17:37:37.081Z</time></trkpt><trkpt lat="45.3817999" lon="7.9858803"><ele>426.50000000000006</ele><time>2026-04-29T17:37:39.086Z</time></trkpt><trkpt lat="45.3817368" lon="7.9858748"><ele>427.0</ele><time>2026-04-29T17:37:42.083Z</time></trkpt><trkpt lat="45.381683" lon="7.9859547"><ele>427.00000000000006</ele><time>2026-04-29T17:37:44.092Z</time></trkpt><trkpt lat="45.3816342" lon="7.9861025"><ele>427.0</ele><time>2026-04-29T17:37:46.086Z</time></trkpt><trkpt lat="45.3815998" lon="7.9861824"><ele>427.0</ele><time>2026-04-29T17:37:47.085Z</time></trkpt><trkpt lat="45.3815631" lon="7.9862629"><ele>427.0</ele><time>2026-04-29T17:37:48.082Z</time></trkpt><trkpt lat="45.3815288" lon="7.9863442"><ele>427.00000000000006</ele><time>2026-04-29T17:37:49.088Z</time></trkpt><trkpt lat="45.3814919" lon="7.9864304"><ele>427.0</ele><time>2026-04-29T17:37:50.081Z</time></trkpt><trkpt lat="45.3814555" lon="7.9865224"><ele>427.00000000000006</ele><time>2026-04-29T17:37:51.086Z</time></trkpt><trkpt lat="45.3814198" lon="7.9866173"><ele>427.0</ele><time>2026-04-29T17:37:52.086Z</time></trkpt><trkpt lat="45.3813874" lon="7.9867146"><ele>427.0</ele><time>2026-04-29T17:37:53.082Z</time></trkpt><trkpt lat="45.3813586" lon="7.9868094"><ele>427.0</ele><time>2026-04-29T17:37:54.084Z</time></trkpt><trkpt lat="45.3813357" lon="7.9869041"><ele>427.00000000000006</ele><time>2026-04-29T17:37:55.086Z</time></trkpt><trkpt lat="45.3813173" lon="7.9869906"><ele>427.0</ele><time>2026-04-29T17:37:56.085Z</time></trkpt><trkpt lat="45.3812738" lon="7.9871512"><ele>427.7142857142857</ele><time>2026-04-29T17:37:58.088Z</time></trkpt><trkpt lat="45.3812372" lon="7.987228"><ele>428.42857142857144</ele><time>2026-04-29T17:37:59.081Z</time></trkpt><trkpt lat="45.3811968" lon="7.9873058"><ele>429.1428571428571</ele><time>2026-04-29T17:38:00.079Z</time></trkpt><trkpt lat="45.381154" lon="7.9873852"><ele>429.8571428571429</ele><time>2026-04-29T17:38:01.085Z</time></trkpt><trkpt lat="45.381108" lon="7.987463"><ele>430.57142857142856</ele><time>2026-04-29T17:38:02.087Z</time></trkpt><trkpt lat="45.3810641" lon="7.9875384"><ele>431.2857142857143</ele><time>2026-04-29T17:38:03.088Z</time></trkpt><trkpt lat="45.3810248" lon="7.9876166"><ele>432.0</ele><time>2026-04-29T17:38:04.084Z</time></trkpt><trkpt lat="45.3809891" lon="7.9876996"><ele>432.0</ele><time>2026-04-29T17:38:05.087Z</time></trkpt><trkpt lat="45.3809569" lon="7.9877856"><ele>432.0</ele><time>2026-04-29T17:38:06.083Z</time></trkpt><trkpt lat="45.3809286" lon="7.9879548"><ele>432.0</ele><time>2026-04-29T17:38:08.08Z</time></trkpt><trkpt lat="45.3809211" lon="7.9880602"><ele>432.0</ele><time>2026-04-29T17:38:09.084Z</time></trkpt><trkpt lat="45.3809155" lon="7.9881653"><ele>432.0</ele><time>2026-04-29T17:38:10.085Z</time></trkpt><trkpt lat="45.3809109" lon="7.988263"><ele>432.0</ele><time>2026-04-29T17:38:11.086Z</time></trkpt><trkpt lat="45.3809013" lon="7.9883585"><ele>431.3333333333333</ele><time>2026-04-29T17:38:12.083Z</time></trkpt><trkpt lat="45.3808892" lon="7.9884563"><ele>430.66666666666663</ele><time>2026-04-29T17:38:13.084Z</time></trkpt><trkpt lat="45.380874" lon="7.9885558"><ele>430.0</ele><time>2026-04-29T17:38:14.082Z</time></trkpt><trkpt lat="45.3808596" lon="7.9886548"><ele>429.3333333333333</ele><time>2026-04-29T17:38:15.086Z</time></trkpt><trkpt lat="45.3808485" lon="7.9887507"><ele>428.66666666666663</ele><time>2026-04-29T17:38:16.084Z</time></trkpt><trkpt lat="45.380838" lon="7.9888397"><ele>428.0</ele><time>2026-04-29T17:38:17.081Z</time></trkpt><trkpt lat="45.3808042" lon="7.9889851"><ele>427.99999999999994</ele><time>2026-04-29T17:38:19.082Z</time></trkpt><trkpt lat="45.3807482" lon="7.9890837"><ele>428.0</ele><time>2026-04-29T17:38:21.087Z</time></trkpt><trkpt lat="45.3806659" lon="7.9891671"><ele>428.0</ele><time>2026-04-29T17:38:23.085Z</time></trkpt><trkpt lat="45.3805805" lon="7.9892808"><ele>428.0</ele><time>2026-04-29T17:38:25.085Z</time></trkpt><trkpt lat="45.3805383" lon="7.9893581"><ele>427.99999999999994</ele><time>2026-04-29T17:38:26.087Z</time></trkpt><trkpt lat="45.380505" lon="7.9894371"><ele>428.0</ele><time>2026-04-29T17:38:27.082Z</time></trkpt><trkpt lat="45.3804793" lon="7.9895512"><ele>427.14285714285717</ele><time>2026-04-29T17:38:29.083Z</time></trkpt><trkpt lat="45.3804415" lon="7.9896356"><ele>426.2857142857143</ele><time>2026-04-29T17:38:32.083Z</time></trkpt><trkpt lat="45.3804197" lon="7.989722"><ele>425.42857142857144</ele><time>2026-04-29T17:38:34.083Z</time></trkpt><trkpt lat="45.3804055" lon="7.9898224"><ele>424.57142857142856</ele><time>2026-04-29T17:38:36.078Z</time></trkpt><trkpt lat="45.3803882" lon="7.9899502"><ele>423.7142857142857</ele><time>2026-04-29T17:38:39.085Z</time></trkpt><trkpt lat="45.3803436" lon="7.9900331"><ele>422.8571428571429</ele><time>2026-04-29T17:38:41.084Z</time></trkpt><trkpt lat="45.3802897" lon="7.9901117"><ele>422.0</ele><time>2026-04-29T17:38:43.089Z</time></trkpt><trkpt lat="45.3802376" lon="7.990171"><ele>422.0</ele><time>2026-04-29T17:38:45.081Z</time></trkpt><trkpt lat="45.3801337" lon="7.9901842"><ele>422.0</ele><time>2026-04-29T17:38:48.081Z</time></trkpt><trkpt lat="45.3800165" lon="7.9901439"><ele>422.0</ele><time>2026-04-29T17:38:50.086Z</time></trkpt><trkpt lat="45.3799515" lon="7.9901276"><ele>422.0</ele><time>2026-04-29T17:38:51.085Z</time></trkpt><trkpt lat="45.3798354" lon="7.9900973"><ele>422.0</ele><time>2026-04-29T17:38:53.08Z</time></trkpt><trkpt lat="45.379751" lon="7.9901023"><ele>420.20000000000005</ele><time>2026-04-29T17:38:55.075Z</time></trkpt><trkpt lat="45.379682" lon="7.9901677"><ele>418.4</ele><time>2026-04-29T17:38:58.083Z</time></trkpt><trkpt lat="45.3796213" lon="7.9902565"><ele>416.6</ele><time>2026-04-29T17:39:01.083Z</time></trkpt><trkpt lat="45.3795418" lon="7.9903305"><ele>414.79999999999995</ele><time>2026-04-29T17:39:03.082Z</time></trkpt><trkpt lat="45.3794488" lon="7.9904201"><ele>413.0</ele><time>2026-04-29T17:39:05.086Z</time></trkpt><trkpt lat="45.379367" lon="7.9905004"><ele>412.99999999999994</ele><time>2026-04-29T17:39:07.086Z</time></trkpt><trkpt lat="45.3792928" lon="7.9905748"><ele>413.0</ele><time>2026-04-29T17:39:09.086Z</time></trkpt><trkpt lat="45.3792133" lon="7.9906449"><ele>413.0</ele><time>2026-04-29T17:39:11.084Z</time></trkpt><trkpt lat="45.3791538" lon="7.9907207"><ele>413.0</ele><time>2026-04-29T17:39:13.082Z</time></trkpt><trkpt lat="45.3790987" lon="7.9908044"><ele>412.99999999999994</ele><time>2026-04-29T17:39:15.08Z</time></trkpt><trkpt lat="45.3790321" lon="7.9908653"><ele>413.0</ele><time>2026-04-29T17:39:17.083Z</time></trkpt><trkpt lat="45.3789597" lon="7.9908983"><ele>412.99999999999994</ele><time>2026-04-29T17:39:19.081Z</time></trkpt><trkpt lat="45.3788795" lon="7.9909186"><ele>413.0</ele><time>2026-04-29T17:39:21.081Z</time></trkpt><trkpt lat="45.3787921" lon="7.9909315"><ele>413.0</ele><time>2026-04-29T17:39:23.086Z</time></trkpt><trkpt lat="45.3787203" lon="7.9909309"><ele>413.0</ele><time>2026-04-29T17:39:25.08Z</time></trkpt><trkpt lat="45.3786512" lon="7.9909567"><ele>412.99999999999994</ele><time>2026-04-29T17:39:55.076Z</time></trkpt><trkpt lat="45.3785808" lon="7.9909048"><ele>413.0</ele><time>2026-04-29T17:39:57.082Z</time></trkpt><trkpt lat="45.3784931" lon="7.9907911"><ele>412.59999999999997</ele><time>2026-04-29T17:39:59.076Z</time></trkpt><trkpt lat="45.3784339" lon="7.9907215"><ele>412.2</ele><time>2026-04-29T17:40:01.08Z</time></trkpt><trkpt lat="45.3783715" lon="7.990806"><ele>411.8</ele><time>2026-04-29T17:40:05.081Z</time></trkpt><trkpt lat="45.3783373" lon="7.9909249"><ele>411.4</ele><time>2026-04-29T17:40:07.086Z</time></trkpt><trkpt lat="45.3782876" lon="7.991055"><ele>411.0</ele><time>2026-04-29T17:40:09.08Z</time></trkpt><trkpt lat="45.3782078" lon="7.9911792"><ele>411.0</ele><time>2026-04-29T17:40:11.081Z</time></trkpt><trkpt lat="45.3781525" lon="7.9912304"><ele>411.0</ele><time>2026-04-29T17:40:12.088Z</time></trkpt><trkpt lat="45.3780955" lon="7.9912718"><ele>411.0</ele><time>2026-04-29T17:40:13.076Z</time></trkpt><trkpt lat="45.3779909" lon="7.9913425"><ele>411.0</ele><time>2026-04-29T17:40:15.08Z</time></trkpt><trkpt lat="45.3779177" lon="7.9913991"><ele>411.0</ele><time>2026-04-29T17:40:17.082Z</time></trkpt><trkpt lat="45.377844" lon="7.9914456"><ele>411.0</ele><time>2026-04-29T17:40:19.081Z</time></trkpt><trkpt lat="45.3777662" lon="7.9914527"><ele>411.20000000000005</ele><time>2026-04-29T17:40:21.083Z</time></trkpt><trkpt lat="45.3776887" lon="7.9914747"><ele>411.40000000000003</ele><time>2026-04-29T17:40:23.086Z</time></trkpt><trkpt lat="45.3776042" lon="7.9915426"><ele>411.6</ele><time>2026-04-29T17:40:25.083Z</time></trkpt><trkpt lat="45.3775277" lon="7.9916609"><ele>411.8</ele><time>2026-04-29T17:40:27.082Z</time></trkpt><trkpt lat="45.3774783" lon="7.9917965"><ele>412.0</ele><time>2026-04-29T17:40:29.08Z</time></trkpt><trkpt lat="45.3774196" lon="7.991918"><ele>413.50000000000006</ele><time>2026-04-29T17:40:31.083Z</time></trkpt><trkpt lat="45.3773934" lon="7.9920116"><ele>415.0</ele><time>2026-04-29T17:40:33.092Z</time></trkpt><trkpt lat="45.3774279" lon="7.9920985"><ele>416.5</ele><time>2026-04-29T17:40:35.081Z</time></trkpt><trkpt lat="45.3774892" lon="7.9921793"><ele>418.0</ele><time>2026-04-29T17:40:37.083Z</time></trkpt><trkpt lat="45.3775664" lon="7.9922134"><ele>419.50000000000006</ele><time>2026-04-29T17:40:39.08Z</time></trkpt><trkpt lat="45.3776647" lon="7.9922341"><ele>421.0</ele><time>2026-04-29T17:40:41.084Z</time></trkpt><trkpt lat="45.3777639" lon="7.9922566"><ele>421.0</ele><time>2026-04-29T17:40:43.08Z</time></trkpt><trkpt lat="45.3778445" lon="7.9922631"><ele>421.0</ele><time>2026-04-29T17:40:45.08Z</time></trkpt><trkpt lat="45.3779288" lon="7.9922694"><ele>421.0</ele><time>2026-04-29T17:40:47.079Z</time></trkpt><trkpt lat="45.3780267" lon="7.9923098"><ele>421.0</ele><time>2026-04-29T17:40:49.084Z</time></trkpt><trkpt lat="45.3781318" lon="7.9923999"><ele>421.0</ele><time>2026-04-29T17:40:51.089Z</time></trkpt><trkpt lat="45.3781911" lon="7.9925192"><ele>421.50000000000006</ele><time>2026-04-29T17:40:53.084Z</time></trkpt><trkpt lat="45.3782052" lon="7.9926073"><ele>422.0</ele><time>2026-04-29T17:40:55.081Z</time></trkpt><trkpt lat="45.378179" lon="7.9927222"><ele>422.5</ele><time>2026-04-29T17:41:41.082Z</time></trkpt><trkpt lat="45.3781295" lon="7.992809"><ele>423.0</ele><time>2026-04-29T17:41:44.084Z</time></trkpt><trkpt lat="45.3781839" lon="7.9927347"><ele>423.50000000000006</ele><time>2026-04-29T17:41:54.083Z</time></trkpt><trkpt lat="45.3782093" lon="7.992648"><ele>424.0</ele><time>2026-04-29T17:41:56.082Z</time></trkpt><trkpt lat="45.3781678" lon="7.9927586"><ele>424.00000000000006</ele><time>2026-04-29T17:42:54.089Z</time></trkpt><trkpt lat="45.3781575" lon="7.9929269"><ele>424.0</ele><time>2026-04-29T17:42:56.084Z</time></trkpt><trkpt lat="45.3781641" lon="7.9930167"><ele>424.0</ele><time>2026-04-29T17:42:57.084Z</time></trkpt><trkpt lat="45.3781673" lon="7.993177"><ele>424.0</ele><time>2026-04-29T17:42:59.083Z</time></trkpt><trkpt lat="45.3781394" lon="7.9932881"><ele>424.00000000000006</ele><time>2026-04-29T17:43:01.084Z</time></trkpt><trkpt lat="45.3780915" lon="7.9933581"><ele>424.0</ele><time>2026-04-29T17:43:03.085Z</time></trkpt><trkpt lat="45.3780246" lon="7.9934731"><ele>426.4</ele><time>2026-04-29T17:43:05.08Z</time></trkpt><trkpt lat="45.3779511" lon="7.9936082"><ele>428.79999999999995</ele><time>2026-04-29T17:43:07.092Z</time></trkpt><trkpt lat="45.3779162" lon="7.9937368"><ele>431.20000000000005</ele><time>2026-04-29T17:43:09.082Z</time></trkpt><trkpt lat="45.3779053" lon="7.9938692"><ele>433.6</ele><time>2026-04-29T17:43:11.083Z</time></trkpt><trkpt lat="45.3778905" lon="7.9940187"><ele>436.0</ele><time>2026-04-29T17:43:13.082Z</time></trkpt><trkpt lat="45.3778712" lon="7.994157"><ele>436.4</ele><time>2026-04-29T17:43:15.081Z</time></trkpt><trkpt lat="45.3778309" lon="7.9942742"><ele>436.8</ele><time>2026-04-29T17:43:17.083Z</time></trkpt><trkpt lat="45.3777999" lon="7.9943754"><ele>437.19999999999993</ele><time>2026-04-29T17:43:19.079Z</time></trkpt><trkpt lat="45.3777707" lon="7.9944628"><ele>437.59999999999997</ele><time>2026-04-29T17:43:21.086Z</time></trkpt><trkpt lat="45.3777121" lon="7.9946013"><ele>438.0</ele><time>2026-04-29T17:43:23.076Z</time></trkpt><trkpt lat="45.3776495" lon="7.9947443"><ele>438.0</ele><time>2026-04-29T17:43:25.085Z</time></trkpt><trkpt lat="45.3776001" lon="7.9948406"><ele>438.0</ele><time>2026-04-29T17:43:27.083Z</time></trkpt><trkpt lat="45.3775324" lon="7.9949408"><ele>438.0</ele><time>2026-04-29T17:43:30.087Z</time></trkpt><trkpt lat="45.3774596" lon="7.9950116"><ele>438.0</ele><time>2026-04-29T17:43:32.081Z</time></trkpt><trkpt lat="45.3773865" lon="7.9951151"><ele>438.0</ele><time>2026-04-29T17:43:34.081Z</time></trkpt><trkpt lat="45.3773313" lon="7.9951881"><ele>438.0</ele><time>2026-04-29T17:43:36.08Z</time></trkpt><trkpt lat="45.3772464" lon="7.9951903"><ele>436.59999999999997</ele><time>2026-04-29T17:43:39.08Z</time></trkpt><trkpt lat="45.3771621" lon="7.9951132"><ele>435.19999999999993</ele><time>2026-04-29T17:43:41.085Z</time></trkpt><trkpt lat="45.3770643" lon="7.9950082"><ele>433.8</ele><time>2026-04-29T17:43:43.09Z</time></trkpt><trkpt lat="45.3770079" lon="7.9949651"><ele>432.4</ele><time>2026-04-29T17:43:44.081Z</time></trkpt><trkpt lat="45.3768982" lon="7.9949218"><ele>431.0</ele><time>2026-04-29T17:43:46.084Z</time></trkpt><trkpt lat="45.3768074" lon="7.9949549"><ele>431.0</ele><time>2026-04-29T17:43:48.081Z</time></trkpt><trkpt lat="45.3767373" lon="7.9950364"><ele>431.0</ele><time>2026-04-29T17:43:50.087Z</time></trkpt><trkpt lat="45.3766742" lon="7.9951238"><ele>431.0</ele><time>2026-04-29T17:43:52.079Z</time></trkpt><trkpt lat="45.3766221" lon="7.9952359"><ele>431.0</ele><time>2026-04-29T17:43:54.079Z</time></trkpt><trkpt lat="45.3765809" lon="7.9953789"><ele>431.0</ele><time>2026-04-29T17:43:56.081Z</time></trkpt><trkpt lat="45.3765346" lon="7.995529"><ele>430.99999999999994</ele><time>2026-04-29T17:43:58.08Z</time></trkpt><trkpt lat="45.3764833" lon="7.9956609"><ele>431.0</ele><time>2026-04-29T17:44:00.083Z</time></trkpt><trkpt lat="45.3764244" lon="7.9957609"><ele>431.0</ele><time>2026-04-29T17:44:02.083Z</time></trkpt><trkpt lat="45.3763345" lon="7.9958461"><ele>431.0</ele><time>2026-04-29T17:44:04.084Z</time></trkpt><trkpt lat="45.3762751" lon="7.9959022"><ele>430.99999999999994</ele><time>2026-04-29T17:44:05.088Z</time></trkpt><trkpt lat="45.3762171" lon="7.995962"><ele>431.0</ele><time>2026-04-29T17:44:06.082Z</time></trkpt><trkpt lat="45.3761644" lon="7.9960184"><ele>429.6</ele><time>2026-04-29T17:44:07.084Z</time></trkpt><trkpt lat="45.3760598" lon="7.9961035"><ele>428.20000000000005</ele><time>2026-04-29T17:44:09.09Z</time></trkpt><trkpt lat="45.3759479" lon="7.9961778"><ele>426.79999999999995</ele><time>2026-04-29T17:44:11.085Z</time></trkpt><trkpt lat="45.3758896" lon="7.9962165"><ele>425.4</ele><time>2026-04-29T17:44:12.083Z</time></trkpt><trkpt lat="45.3758052" lon="7.9962875"><ele>424.0</ele><time>2026-04-29T17:44:14.083Z</time></trkpt><trkpt lat="45.3757607" lon="7.9963763"><ele>424.00000000000006</ele><time>2026-04-29T17:44:16.085Z</time></trkpt><trkpt lat="45.3757097" lon="7.9964796"><ele>424.0</ele><time>2026-04-29T17:44:18.084Z</time></trkpt><trkpt lat="45.3756759" lon="7.9965772"><ele>424.0</ele><time>2026-04-29T17:44:20.081Z</time></trkpt><trkpt lat="45.3757015" lon="7.9966707"><ele>424.0</ele><time>2026-04-29T17:44:22.081Z</time></trkpt><trkpt lat="45.3757498" lon="7.9967739"><ele>424.00000000000006</ele><time>2026-04-29T17:44:24.085Z</time></trkpt><trkpt lat="45.3758177" lon="7.9968461"><ele>424.0</ele><time>2026-04-29T17:44:26.081Z</time></trkpt><trkpt lat="45.3759148" lon="7.996863"><ele>424.1666666666667</ele><time>2026-04-29T17:44:28.083Z</time></trkpt><trkpt lat="45.3760083" lon="7.9968532"><ele>424.33333333333337</ele><time>2026-04-29T17:44:30.087Z</time></trkpt><trkpt lat="45.376092" lon="7.9968358"><ele>424.5</ele><time>2026-04-29T17:44:32.08Z</time></trkpt><trkpt lat="45.3761543" lon="7.9968165"><ele>424.66666666666663</ele><time>2026-04-29T17:44:34.081Z</time></trkpt><trkpt lat="45.376241" lon="7.9967564"><ele>424.8333333333333</ele><time>2026-04-29T17:44:36.088Z</time></trkpt><trkpt lat="45.3763232" lon="7.9966896"><ele>425.0</ele><time>2026-04-29T17:44:38.084Z</time></trkpt><trkpt lat="45.3763896" lon="7.9966587"><ele>425.0</ele><time>2026-04-29T17:44:41.08Z</time></trkpt><trkpt lat="45.3764064" lon="7.9967818"><ele>425.0</ele><time>2026-04-29T17:44:45.083Z</time></trkpt><trkpt lat="45.3763455" lon="7.9969066"><ele>425.0</ele><time>2026-04-29T17:44:47.079Z</time></trkpt><trkpt lat="45.3763046" lon="7.9970295"><ele>425.0</ele><time>2026-04-29T17:44:49.083Z</time></trkpt><trkpt lat="45.3762554" lon="7.99715"><ele>425.0</ele><time>2026-04-29T17:44:52.085Z</time></trkpt><trkpt lat="45.3761743" lon="7.9972445"><ele>425.0</ele><time>2026-04-29T17:44:54.085Z</time></trkpt><trkpt lat="45.3760905" lon="7.9973599"><ele>425.0</ele><time>2026-04-29T17:44:56.081Z</time></trkpt><trkpt lat="45.3760099" lon="7.9974882"><ele>425.0</ele><time>2026-04-29T17:44:58.083Z</time></trkpt><trkpt lat="45.3759319" lon="7.9976185"><ele>425.0</ele><time>2026-04-29T17:45:00.084Z</time></trkpt><trkpt lat="45.3758572" lon="7.9977507"><ele>425.2</ele><time>2026-04-29T17:45:02.086Z</time></trkpt><trkpt lat="45.3757808" lon="7.9978846"><ele>425.4</ele><time>2026-04-29T17:45:04.086Z</time></trkpt><trkpt lat="45.3757167" lon="7.9979974"><ele>425.6</ele><time>2026-04-29T17:45:06.092Z</time></trkpt><trkpt lat="45.3756436" lon="7.9981182"><ele>425.8</ele><time>2026-04-29T17:45:08.081Z</time></trkpt><trkpt lat="45.375572" lon="7.9982436"><ele>426.0</ele><time>2026-04-29T17:45:10.089Z</time></trkpt><trkpt lat="45.375511" lon="7.9983756"><ele>422.0</ele><time>2026-04-29T17:45:12.08Z</time></trkpt><trkpt lat="45.3754424" lon="7.9984968"><ele>418.0</ele><time>2026-04-29T17:45:14.082Z</time></trkpt><trkpt lat="45.3753613" lon="7.9986265"><ele>414.0</ele><time>2026-04-29T17:45:16.085Z</time></trkpt><trkpt lat="45.3752946" lon="7.9987715"><ele>410.0</ele><time>2026-04-29T17:45:18.085Z</time></trkpt><trkpt lat="45.3752526" lon="7.9989321"><ele>410.0</ele><time>2026-04-29T17:45:20.08Z</time></trkpt><trkpt lat="45.3752003" lon="7.9990936"><ele>410.0</ele><time>2026-04-29T17:45:22.086Z</time></trkpt><trkpt lat="45.3751659" lon="7.9991766"><ele>410.0</ele><time>2026-04-29T17:45:23.084Z</time></trkpt><trkpt lat="45.3751336" lon="7.9992594"><ele>410.0</ele><time>2026-04-29T17:45:24.08Z</time></trkpt><trkpt lat="45.3750843" lon="7.9994199"><ele>410.0</ele><time>2026-04-29T17:45:26.091Z</time></trkpt><trkpt lat="45.3750544" lon="7.9995874"><ele>408.6</ele><time>2026-04-29T17:45:28.083Z</time></trkpt><trkpt lat="45.3750436" lon="7.9997564"><ele>407.2</ele><time>2026-04-29T17:45:30.083Z</time></trkpt><trkpt lat="45.3750425" lon="7.9999024"><ele>405.79999999999995</ele><time>2026-04-29T17:45:32.086Z</time></trkpt><trkpt lat="45.375031" lon="8.0000392"><ele>404.4</ele><time>2026-04-29T17:45:34.085Z</time></trkpt><trkpt lat="45.3750059" lon="8.0001758"><ele>403.0</ele><time>2026-04-29T17:45:36.079Z</time></trkpt><trkpt lat="45.3749724" lon="8.0002749"><ele>403.0</ele><time>2026-04-29T17:45:38.086Z</time></trkpt><trkpt lat="45.3749286" lon="8.000359"><ele>403.0</ele><time>2026-04-29T17:46:12.081Z</time></trkpt><trkpt lat="45.3748482" lon="8.0004643"><ele>403.0</ele><time>2026-04-29T17:46:14.084Z</time></trkpt><trkpt lat="45.3747686" lon="8.0005822"><ele>403.0</ele><time>2026-04-29T17:46:16.085Z</time></trkpt><trkpt lat="45.3747059" lon="8.0007033"><ele>403.0</ele><time>2026-04-29T17:46:18.086Z</time></trkpt><trkpt lat="45.3746481" lon="8.0008256"><ele>401.1666666666667</ele><time>2026-04-29T17:46:20.091Z</time></trkpt><trkpt lat="45.3745947" lon="8.0009297"><ele>399.33333333333337</ele><time>2026-04-29T17:46:22.084Z</time></trkpt><trkpt lat="45.3745209" lon="8.0009669"><ele>397.5</ele><time>2026-04-29T17:46:24.078Z</time></trkpt><trkpt lat="45.3744415" lon="8.0009359"><ele>395.66666666666663</ele><time>2026-04-29T17:46:26.087Z</time></trkpt><trkpt lat="45.3743886" lon="8.0008829"><ele>393.8333333333333</ele><time>2026-04-29T17:47:14.085Z</time></trkpt><trkpt lat="45.3743757" lon="8.0007914"><ele>392.0</ele><time>2026-04-29T17:47:20.087Z</time></trkpt><trkpt lat="45.3742984" lon="8.0006651"><ele>391.66666666666663</ele><time>2026-04-29T17:47:33.08Z</time></trkpt><trkpt lat="45.3742568" lon="8.0005858"><ele>391.3333333333333</ele><time>2026-04-29T17:47:36.088Z</time></trkpt><trkpt lat="45.3741796" lon="8.0005841"><ele>391.0</ele><time>2026-04-29T17:47:44.083Z</time></trkpt><trkpt lat="45.3741006" lon="8.0005915"><ele>390.66666666666663</ele><time>2026-04-29T17:47:47.086Z</time></trkpt><trkpt lat="45.374007" lon="8.0005781"><ele>390.3333333333333</ele><time>2026-04-29T17:48:09.082Z</time></trkpt><trkpt lat="45.373938" lon="8.0005745"><ele>390.0</ele><time>2026-04-29T17:48:11.081Z</time></trkpt><trkpt lat="45.3738738" lon="8.0005834"><ele>388.3333333333333</ele><time>2026-04-29T17:48:13.08Z</time></trkpt><trkpt lat="45.3737886" lon="8.0005588"><ele>386.6666666666667</ele><time>2026-04-29T17:48:16.082Z</time></trkpt><trkpt lat="45.3736924" lon="8.0005169"><ele>385.0</ele><time>2026-04-29T17:48:19.077Z</time></trkpt><trkpt lat="45.3736161" lon="8.0004787"><ele>383.33333333333337</ele><time>2026-04-29T17:48:21.083Z</time></trkpt><trkpt lat="45.3735524" lon="8.0004341"><ele>381.6666666666667</ele><time>2026-04-29T17:48:23.08Z</time></trkpt><trkpt lat="45.3734842" lon="8.0003884"><ele>380.0</ele><time>2026-04-29T17:48:25.083Z</time></trkpt><trkpt lat="45.3734204" lon="8.0003393"><ele>380.0</ele><time>2026-04-29T17:48:27.08Z</time></trkpt><trkpt lat="45.3733597" lon="8.0002848"><ele>380.0</ele><time>2026-04-29T17:48:29.087Z</time></trkpt><trkpt lat="45.3733008" lon="8.0002231"><ele>380.0</ele><time>2026-04-29T17:48:31.087Z</time></trkpt><trkpt lat="45.3732499" lon="8.0001642"><ele>380.0</ele><time>2026-04-29T17:48:33.083Z</time></trkpt><trkpt lat="45.3732016" lon="8.0000984"><ele>380.0</ele><time>2026-04-29T17:49:09.091Z</time></trkpt><trkpt lat="45.3731311" lon="8.0000285"><ele>380.0</ele><time>2026-04-29T17:49:12.085Z</time></trkpt><trkpt lat="45.3730429" lon="7.9999584"><ele>380.33333333333337</ele><time>2026-04-29T17:49:14.088Z</time></trkpt><trkpt lat="45.3729674" lon="7.9998724"><ele>380.6666666666667</ele><time>2026-04-29T17:49:16.084Z</time></trkpt><trkpt lat="45.3729149" lon="7.9997922"><ele>381.0</ele><time>2026-04-29T17:49:18.085Z</time></trkpt><trkpt lat="45.3728756" lon="7.9996817"><ele>381.3333333333333</ele><time>2026-04-29T17:49:21.081Z</time></trkpt><trkpt lat="45.3728413" lon="7.9995852"><ele>381.66666666666663</ele><time>2026-04-29T17:49:23.083Z</time></trkpt><trkpt lat="45.3727925" lon="7.9994672"><ele>382.0</ele><time>2026-04-29T17:49:25.085Z</time></trkpt><trkpt lat="45.3727419" lon="7.9994085"><ele>382.0</ele><time>2026-04-29T17:49:27.082Z</time></trkpt><trkpt lat="45.3726952" lon="7.9994877"><ele>382.0</ele><time>2026-04-29T17:49:31.082Z</time></trkpt><trkpt lat="45.3727121" lon="7.9995919"><ele>382.0</ele><time>2026-04-29T17:49:34.088Z</time></trkpt><trkpt lat="45.3727031" lon="7.9996966"><ele>382.0</ele><time>2026-04-29T17:49:36.088Z</time></trkpt><trkpt lat="45.3727086" lon="7.9998188"><ele>382.0</ele><time>2026-04-29T17:49:38.087Z</time></trkpt><trkpt lat="45.3727488" lon="7.9999367"><ele>382.0</ele><time>2026-04-29T17:49:40.089Z</time></trkpt><trkpt lat="45.3727687" lon="8.0000314"><ele>382.0</ele><time>2026-04-29T17:49:42.084Z</time></trkpt><trkpt lat="45.3727748" lon="8.0001269"><ele>382.0</ele><time>2026-04-29T17:49:44.093Z</time></trkpt><trkpt lat="45.3727504" lon="8.0002278"><ele>382.0</ele><time>2026-04-29T17:49:46.082Z</time></trkpt><trkpt lat="45.3726902" lon="8.0003649"><ele>382.0</ele><time>2026-04-29T17:49:48.085Z</time></trkpt><trkpt lat="45.3726535" lon="8.0004412"><ele>382.0</ele><time>2026-04-29T17:49:49.087Z</time></trkpt><trkpt lat="45.3726134" lon="8.0005579"><ele>382.0</ele><time>2026-04-29T17:49:51.086Z</time></trkpt><trkpt lat="45.3725834" lon="8.0006428"><ele>382.0</ele><time>2026-04-29T17:49:53.087Z</time></trkpt><trkpt lat="45.3725433" lon="8.0007438"><ele>382.0</ele><time>2026-04-29T17:49:55.081Z</time></trkpt><trkpt lat="45.3724767" lon="8.0008564"><ele>382.0</ele><time>2026-04-29T17:49:57.088Z</time></trkpt><trkpt lat="45.3724012" lon="8.0009398"><ele>382.0</ele><time>2026-04-29T17:49:59.082Z</time></trkpt><trkpt lat="45.3723312" lon="8.0010024"><ele>382.0</ele><time>2026-04-29T17:50:01.091Z</time></trkpt><trkpt lat="45.3722611" lon="8.0010677"><ele>382.0</ele><time>2026-04-29T17:50:03.084Z</time></trkpt><trkpt lat="45.372202" lon="8.0011314"><ele>381.8333333333333</ele><time>2026-04-29T17:50:05.084Z</time></trkpt><trkpt lat="45.3721417" lon="8.0012044"><ele>381.66666666666663</ele><time>2026-04-29T17:50:07.085Z</time></trkpt><trkpt lat="45.3720702" lon="8.0012784"><ele>381.5</ele><time>2026-04-29T17:50:09.083Z</time></trkpt><trkpt lat="45.3719928" lon="8.001323"><ele>381.3333333333333</ele><time>2026-04-29T17:50:11.087Z</time></trkpt><trkpt lat="45.3719252" lon="8.0013396"><ele>381.1666666666667</ele><time>2026-04-29T17:50:13.087Z</time></trkpt><trkpt lat="45.3718531" lon="8.0013554"><ele>381.0</ele><time>2026-04-29T17:50:40.083Z</time></trkpt><trkpt lat="45.3717783" lon="8.0013423"><ele>381.0</ele><time>2026-04-29T17:50:42.088Z</time></trkpt><trkpt lat="45.3717218" lon="8.0012751"><ele>381.0</ele><time>2026-04-29T17:50:44.083Z</time></trkpt><trkpt lat="45.3716673" lon="8.0012077"><ele>381.0</ele><time>2026-04-29T17:52:10.086Z</time></trkpt><trkpt lat="45.3716973" lon="8.0013062"><ele>381.0</ele><time>2026-04-29T17:53:05.091Z</time></trkpt><trkpt lat="45.3717621" lon="8.0013536"><ele>381.0</ele><time>2026-04-29T17:53:09.083Z</time></trkpt><trkpt lat="45.3718265" lon="8.00139"><ele>381.0</ele><time>2026-04-29T17:53:13.09Z</time></trkpt><trkpt lat="45.3718379" lon="8.0014933"><ele>381.0</ele><time>2026-04-29T17:53:29.09Z</time></trkpt><trkpt lat="45.3717981" lon="8.0015695"><ele>381.0</ele><time>2026-04-29T17:53:31.085Z</time></trkpt><trkpt lat="45.3717182" lon="8.0016443"><ele>381.0</ele><time>2026-04-29T17:53:34.09Z</time></trkpt><trkpt lat="45.3716608" lon="8.0016907"><ele>381.0</ele><time>2026-04-29T17:53:36.087Z</time></trkpt><trkpt lat="45.3716045" lon="8.0017857"><ele>381.0</ele><time>2026-04-29T17:53:39.096Z</time></trkpt><trkpt lat="45.3715574" lon="8.0018773"><ele>381.0</ele><time>2026-04-29T17:53:42.085Z</time></trkpt><trkpt lat="45.3715459" lon="8.0019671"><ele>381.0</ele><time>2026-04-29T17:53:44.086Z</time></trkpt><trkpt lat="45.3715198" lon="8.0020965"><ele>381.0</ele><time>2026-04-29T17:53:47.086Z</time></trkpt><trkpt lat="45.3715221" lon="8.0022043"><ele>381.0</ele><time>2026-04-29T17:53:49.088Z</time></trkpt><trkpt lat="45.371511" lon="8.0023212"><ele>381.0</ele><time>2026-04-29T17:53:51.087Z</time></trkpt><trkpt lat="45.3714721" lon="8.002414"><ele>381.0</ele><time>2026-04-29T17:53:53.084Z</time></trkpt><trkpt lat="45.3713974" lon="8.0025435"><ele>381.0</ele><time>2026-04-29T17:53:55.087Z</time></trkpt><trkpt lat="45.371343" lon="8.0026545"><ele>381.0</ele><time>2026-04-29T17:53:57.081Z</time></trkpt><trkpt lat="45.3713002" lon="8.0027447"><ele>380.0</ele><time>2026-04-29T17:53:59.086Z</time></trkpt><trkpt lat="45.37123" lon="8.0028119"><ele>379.0</ele><time>2026-04-29T17:54:01.084Z</time></trkpt><trkpt lat="45.371164" lon="8.0028519"><ele>378.0</ele><time>2026-04-29T17:54:03.086Z</time></trkpt><trkpt lat="45.3711117" lon="8.0029151"><ele>377.0</ele><time>2026-04-29T17:54:06.083Z</time></trkpt><trkpt lat="45.3710764" lon="8.003006"><ele>376.0</ele><time>2026-04-29T17:54:09.085Z</time></trkpt><trkpt lat="45.3710338" lon="8.0030924"><ele>375.0</ele><time>2026-04-29T17:54:27.085Z</time></trkpt><trkpt lat="45.3709617" lon="8.0031239"><ele>374.0</ele><time>2026-04-29T17:54:39.084Z</time></trkpt><trkpt lat="45.3708771" lon="8.0031908"><ele>374.0</ele><time>2026-04-29T17:54:42.084Z</time></trkpt><trkpt lat="45.3707939" lon="8.0032703"><ele>374.0</ele><time>2026-04-29T17:54:44.09Z</time></trkpt><trkpt lat="45.3707158" lon="8.0033444"><ele>374.0</ele><time>2026-04-29T17:54:46.083Z</time></trkpt><trkpt lat="45.3706396" lon="8.0034083"><ele>374.0</ele><time>2026-04-29T17:54:48.085Z</time></trkpt><trkpt lat="45.3705725" lon="8.0034663"><ele>374.0</ele><time>2026-04-29T17:54:50.088Z</time></trkpt><trkpt lat="45.3705109" lon="8.0035183"><ele>374.0</ele><time>2026-04-29T17:54:52.082Z</time></trkpt><trkpt lat="45.3704463" lon="8.003608"><ele>374.0</ele><time>2026-04-29T17:54:54.086Z</time></trkpt><trkpt lat="45.3703996" lon="8.0037123"><ele>374.0</ele><time>2026-04-29T17:54:56.091Z</time></trkpt><trkpt lat="45.3703557" lon="8.0038292"><ele>374.0</ele><time>2026-04-29T17:54:58.092Z</time></trkpt><trkpt lat="45.3703074" lon="8.0039663"><ele>374.0</ele><time>2026-04-29T17:55:00.082Z</time></trkpt><trkpt lat="45.3702801" lon="8.0041286"><ele>374.0</ele><time>2026-04-29T17:55:02.085Z</time></trkpt><trkpt lat="45.3702684" lon="8.0042185"><ele>374.0</ele><time>2026-04-29T17:55:03.084Z</time></trkpt><trkpt lat="45.3702518" lon="8.0043458"><ele>374.0</ele><time>2026-04-29T17:55:05.092Z</time></trkpt><trkpt lat="45.3702539" lon="8.0044739"><ele>374.0</ele><time>2026-04-29T17:55:08.087Z</time></trkpt><trkpt lat="45.3702279" lon="8.0045973"><ele>374.0</ele><time>2026-04-29T17:55:11.09Z</time></trkpt><trkpt lat="45.3701968" lon="8.0046999"><ele>374.0</ele><time>2026-04-29T17:55:14.081Z</time></trkpt><trkpt lat="45.3701338" lon="8.0047868"><ele>374.0</ele><time>2026-04-29T17:55:29.085Z</time></trkpt><trkpt lat="45.3700766" lon="8.0048738"><ele>374.0</ele><time>2026-04-29T17:55:31.085Z</time></trkpt><trkpt lat="45.3700306" lon="8.0049378"><ele>374.0</ele><time>2026-04-29T17:55:33.085Z</time></trkpt><trkpt lat="45.3699845" lon="8.0050028"><ele>374.0</ele><time>2026-04-29T17:55:49.081Z</time></trkpt><trkpt lat="45.369966" lon="8.0050966"><ele>374.0</ele><time>2026-04-29T17:56:38.084Z</time></trkpt><trkpt lat="45.3699194" lon="8.0052192"><ele>374.0</ele><time>2026-04-29T17:56:41.085Z</time></trkpt><trkpt lat="45.3699045" lon="8.0053383"><ele>374.0</ele><time>2026-04-29T17:56:43.089Z</time></trkpt><trkpt lat="45.369887" lon="8.0054488"><ele>373.0</ele><time>2026-04-29T17:56:45.084Z</time></trkpt><trkpt lat="45.3698582" lon="8.0055678"><ele>372.0</ele><time>2026-04-29T17:56:47.088Z</time></trkpt><trkpt lat="45.3698336" lon="8.0056857"><ele>371.0</ele><time>2026-04-29T17:56:49.084Z</time></trkpt><trkpt lat="45.3698329" lon="8.0057849"><ele>370.0</ele><time>2026-04-29T17:56:51.086Z</time></trkpt><trkpt lat="45.3698338" lon="8.0059027"><ele>369.0</ele><time>2026-04-29T17:56:54.082Z</time></trkpt><trkpt lat="45.3698083" lon="8.0060012"><ele>368.0</ele><time>2026-04-29T17:56:56.084Z</time></trkpt><trkpt lat="45.3697558" lon="8.0061507"><ele>368.59999999999997</ele><time>2026-04-29T17:56:58.087Z</time></trkpt><trkpt lat="45.3697176" lon="8.0062829"><ele>369.2</ele><time>2026-04-29T17:57:00.082Z</time></trkpt><trkpt lat="45.3696718" lon="8.0063833"><ele>369.8</ele><time>2026-04-29T17:57:02.093Z</time></trkpt><trkpt lat="45.3696153" lon="8.0064862"><ele>370.4</ele><time>2026-04-29T17:57:04.081Z</time></trkpt><trkpt lat="45.3695516" lon="8.0066235"><ele>371.0</ele><time>2026-04-29T17:57:06.09Z</time></trkpt><trkpt lat="45.3695246" lon="8.0067635"><ele>370.0</ele><time>2026-04-29T17:57:08.085Z</time></trkpt><trkpt lat="45.3694891" lon="8.0068535"><ele>369.0</ele><time>2026-04-29T17:57:10.084Z</time></trkpt><trkpt lat="45.3694265" lon="8.0069262"><ele>368.0</ele><time>2026-04-29T17:57:12.081Z</time></trkpt><trkpt lat="45.3693417" lon="8.0070057"><ele>367.0</ele><time>2026-04-29T17:57:14.086Z</time></trkpt><trkpt lat="45.3692753" lon="8.0070702"><ele>366.0</ele><time>2026-04-29T17:57:16.088Z</time></trkpt><trkpt lat="45.36921" lon="8.0071496"><ele>365.0</ele><time>2026-04-29T17:57:19.087Z</time></trkpt><trkpt lat="45.3691654" lon="8.0072329"><ele>365.0</ele><time>2026-04-29T17:57:50.081Z</time></trkpt><trkpt lat="45.3691011" lon="8.0072848"><ele>365.0</ele><time>2026-04-29T17:57:54.083Z</time></trkpt><trkpt lat="45.3690421" lon="8.007336"><ele>365.0</ele><time>2026-04-29T17:58:00.083Z</time></trkpt><trkpt lat="45.368978" lon="8.0074445"><ele>365.0</ele><time>2026-04-29T17:58:03.086Z</time></trkpt><trkpt lat="45.3689223" lon="8.0075084"><ele>365.0</ele><time>2026-04-29T17:58:05.086Z</time></trkpt><trkpt lat="45.3688566" lon="8.0075755"><ele>365.0</ele><time>2026-04-29T17:58:08.09Z</time></trkpt><trkpt lat="45.3688016" lon="8.007649"><ele>364.1666666666667</ele><time>2026-04-29T17:58:11.089Z</time></trkpt><trkpt lat="45.3687442" lon="8.0077176"><ele>363.33333333333337</ele><time>2026-04-29T17:58:13.084Z</time></trkpt><trkpt lat="45.3686572" lon="8.0078189"><ele>362.5</ele><time>2026-04-29T17:58:15.089Z</time></trkpt><trkpt lat="45.3685817" lon="8.0079085"><ele>361.6666666666667</ele><time>2026-04-29T17:58:17.085Z</time></trkpt><trkpt lat="45.3685302" lon="8.0079974"><ele>360.8333333333333</ele><time>2026-04-29T17:58:19.09Z</time></trkpt><trkpt lat="45.3684812" lon="8.0080871"><ele>360.0</ele><time>2026-04-29T17:58:21.088Z</time></trkpt><trkpt lat="45.3684172" lon="8.0081718"><ele>360.0</ele><time>2026-04-29T17:58:23.09Z</time></trkpt><trkpt lat="45.36836" lon="8.0082291"><ele>360.0</ele><time>2026-04-29T17:58:25.089Z</time></trkpt><trkpt lat="45.3682973" lon="8.0082848"><ele>360.0</ele><time>2026-04-29T17:58:27.087Z</time></trkpt><trkpt lat="45.3682422" lon="8.0083319"><ele>360.0</ele><time>2026-04-29T17:58:29.09Z</time></trkpt><trkpt lat="45.3681804" lon="8.0084063"><ele>360.0</ele><time>2026-04-29T17:58:32.087Z</time></trkpt><trkpt lat="45.3681121" lon="8.0084865"><ele>360.0</ele><time>2026-04-29T17:58:35.091Z</time></trkpt><trkpt lat="45.3680198" lon="8.0085033"><ele>359.4285714285714</ele><time>2026-04-29T17:58:38.082Z</time></trkpt><trkpt lat="45.3679451" lon="8.0085193"><ele>358.8571428571429</ele><time>2026-04-29T17:58:41.086Z</time></trkpt><trkpt lat="45.36792" lon="8.008611"><ele>358.2857142857143</ele><time>2026-04-29T17:58:58.085Z</time></trkpt><trkpt lat="45.3679642" lon="8.0087066"><ele>357.71428571428567</ele><time>2026-04-29T17:59:00.081Z</time></trkpt><trkpt lat="45.3680077" lon="8.0087968"><ele>357.1428571428571</ele><time>2026-04-29T17:59:02.088Z</time></trkpt><trkpt lat="45.3680431" lon="8.0088775"><ele>356.57142857142856</ele><time>2026-04-29T17:59:04.088Z</time></trkpt><trkpt lat="45.3680842" lon="8.0089593"><ele>356.0</ele><time>2026-04-29T18:00:48.085Z</time></trkpt><trkpt lat="45.3681737" lon="8.0090146"><ele>354.83333333333337</ele><time>2026-04-29T18:00:51.088Z</time></trkpt><trkpt lat="45.3682454" lon="8.0090572"><ele>353.6666666666667</ele><time>2026-04-29T18:00:53.088Z</time></trkpt><trkpt lat="45.3683105" lon="8.0091169"><ele>352.5</ele><time>2026-04-29T18:00:56.086Z</time></trkpt><trkpt lat="45.3683796" lon="8.009182"><ele>351.3333333333333</ele><time>2026-04-29T18:00:59.086Z</time></trkpt><trkpt lat="45.3684356" lon="8.0092567"><ele>350.16666666666663</ele><time>2026-04-29T18:01:03.087Z</time></trkpt><trkpt lat="45.3684924" lon="8.0093196"><ele>349.0</ele><time>2026-04-29T18:01:05.081Z</time></trkpt><trkpt lat="45.3685572" lon="8.0093729"><ele>347.16666666666663</ele><time>2026-04-29T18:01:07.085Z</time></trkpt><trkpt lat="45.3686272" lon="8.0094117"><ele>345.3333333333333</ele><time>2026-04-29T18:01:09.088Z</time></trkpt><trkpt lat="45.3686879" lon="8.0094514"><ele>343.5</ele><time>2026-04-29T18:01:11.096Z</time></trkpt><trkpt lat="45.3687678" lon="8.0095169"><ele>341.6666666666667</ele><time>2026-04-29T18:01:14.085Z</time></trkpt><trkpt lat="45.3688285" lon="8.0095797"><ele>339.83333333333337</ele><time>2026-04-29T18:01:16.092Z</time></trkpt><trkpt lat="45.3688881" lon="8.0096524"><ele>338.0</ele><time>2026-04-29T18:01:18.082Z</time></trkpt><trkpt lat="45.3689518" lon="8.009723"><ele>338.0</ele><time>2026-04-29T18:01:20.089Z</time></trkpt><trkpt lat="45.3690147" lon="8.0098169"><ele>338.0</ele><time>2026-04-29T18:01:22.087Z</time></trkpt><trkpt lat="45.36908" lon="8.0098935"><ele>338.0</ele><time>2026-04-29T18:01:24.088Z</time></trkpt><trkpt lat="45.3691514" lon="8.0099717"><ele>338.0</ele><time>2026-04-29T18:01:26.086Z</time></trkpt><trkpt lat="45.3692217" lon="8.0100656"><ele>338.0</ele><time>2026-04-29T18:01:28.091Z</time></trkpt><trkpt lat="45.3692799" lon="8.0101503"><ele>338.0</ele><time>2026-04-29T18:01:30.086Z</time></trkpt><trkpt lat="45.3693327" lon="8.0102122"><ele>337.2</ele><time>2026-04-29T18:01:32.09Z</time></trkpt><trkpt lat="45.3694079" lon="8.0102497"><ele>336.4</ele><time>2026-04-29T18:01:34.087Z</time></trkpt><trkpt lat="45.3694973" lon="8.0103154"><ele>335.59999999999997</ele><time>2026-04-29T18:01:36.085Z</time></trkpt><trkpt lat="45.3695714" lon="8.0104058"><ele>334.79999999999995</ele><time>2026-04-29T18:01:38.089Z</time></trkpt><trkpt lat="45.3696427" lon="8.0104984"><ele>334.0</ele><time>2026-04-29T18:01:40.093Z</time></trkpt><trkpt lat="45.3697044" lon="8.0105668"><ele>336.0</ele><time>2026-04-29T18:01:42.084Z</time></trkpt><trkpt lat="45.3697676" lon="8.0106218"><ele>338.0</ele><time>2026-04-29T18:01:45.085Z</time></trkpt><trkpt lat="45.3698439" lon="8.0106301"><ele>340.0</ele><time>2026-04-29T18:01:47.086Z</time></trkpt><trkpt lat="45.3699226" lon="8.0106313"><ele>342.0</ele><time>2026-04-29T18:01:49.091Z</time></trkpt><trkpt lat="45.3700017" lon="8.0106078"><ele>344.0</ele><time>2026-04-29T18:01:51.083Z</time></trkpt><trkpt lat="45.3700869" lon="8.0105847"><ele>346.0</ele><time>2026-04-29T18:01:53.086Z</time></trkpt><trkpt lat="45.3701774" lon="8.0105613"><ele>346.0</ele><time>2026-04-29T18:01:55.086Z</time></trkpt><trkpt lat="45.3702636" lon="8.0105516"><ele>346.0</ele><time>2026-04-29T18:01:57.084Z</time></trkpt><trkpt lat="45.3703514" lon="8.0105471"><ele>346.0</ele><time>2026-04-29T18:01:59.085Z</time></trkpt><trkpt lat="45.3704347" lon="8.0105369"><ele>346.0</ele><time>2026-04-29T18:02:01.085Z</time></trkpt><trkpt lat="45.3705198" lon="8.010535"><ele>346.0</ele><time>2026-04-29T18:02:03.085Z</time></trkpt><trkpt lat="45.3706226" lon="8.0105338"><ele>346.0</ele><time>2026-04-29T18:02:05.086Z</time></trkpt><trkpt lat="45.3707255" lon="8.0105221"><ele>345.66666666666663</ele><time>2026-04-29T18:02:07.084Z</time></trkpt><trkpt lat="45.3708107" lon="8.0104929"><ele>345.3333333333333</ele><time>2026-04-29T18:02:09.086Z</time></trkpt><trkpt lat="45.3708889" lon="8.0105105"><ele>345.0</ele><time>2026-04-29T18:02:12.085Z</time></trkpt><trkpt lat="45.370939" lon="8.0106144"><ele>344.6666666666667</ele><time>2026-04-29T18:02:15.086Z</time></trkpt><trkpt lat="45.3709756" lon="8.0107164"><ele>344.33333333333337</ele><time>2026-04-29T18:02:19.089Z</time></trkpt><trkpt lat="45.3710006" lon="8.0108217"><ele>344.0</ele><time>2026-04-29T18:02:22.085Z</time></trkpt><trkpt lat="45.3709971" lon="8.0109427"><ele>344.0</ele><time>2026-04-29T18:02:25.089Z</time></trkpt><trkpt lat="45.370984" lon="8.0110428"><ele>344.0</ele><time>2026-04-29T18:02:27.086Z</time></trkpt><trkpt lat="45.3709696" lon="8.0111668"><ele>344.0</ele><time>2026-04-29T18:02:29.084Z</time></trkpt><trkpt lat="45.3709617" lon="8.0112926"><ele>344.0</ele><time>2026-04-29T18:02:31.084Z</time></trkpt><trkpt lat="45.3709712" lon="8.0114189"><ele>344.0</ele><time>2026-04-29T18:02:33.082Z</time></trkpt><trkpt lat="45.3709882" lon="8.0115399"><ele>344.0</ele><time>2026-04-29T18:02:35.086Z</time></trkpt><trkpt lat="45.37103" lon="8.0116597"><ele>344.28571428571433</ele><time>2026-04-29T18:02:37.085Z</time></trkpt><trkpt lat="45.3710666" lon="8.0117627"><ele>344.57142857142856</ele><time>2026-04-29T18:02:39.08Z</time></trkpt><trkpt lat="45.3711034" lon="8.0118463"><ele>344.8571428571429</ele><time>2026-04-29T18:02:41.086Z</time></trkpt><trkpt lat="45.371154" lon="8.0119248"><ele>345.14285714285717</ele><time>2026-04-29T18:02:44.083Z</time></trkpt><trkpt lat="45.3712342" lon="8.0119202"><ele>345.42857142857144</ele><time>2026-04-29T18:03:21.087Z</time></trkpt><trkpt lat="45.3712984" lon="8.01193"><ele>345.7142857142857</ele><time>2026-04-29T18:03:24.089Z</time></trkpt><trkpt lat="45.3713628" lon="8.0119406"><ele>346.0</ele><time>2026-04-29T18:03:28.089Z</time></trkpt><trkpt lat="45.3714471" lon="8.0119179"><ele>347.57142857142856</ele><time>2026-04-29T18:03:31.083Z</time></trkpt><trkpt lat="45.3715103" lon="8.0119094"><ele>349.14285714285717</ele><time>2026-04-29T18:03:33.088Z</time></trkpt><trkpt lat="45.3715871" lon="8.0118673"><ele>350.7142857142857</ele><time>2026-04-29T18:03:36.095Z</time></trkpt><trkpt lat="45.3716556" lon="8.0118127"><ele>352.2857142857143</ele><time>2026-04-29T18:03:38.091Z</time></trkpt><trkpt lat="45.3717154" lon="8.0117627"><ele>353.8571428571429</ele><time>2026-04-29T18:03:40.089Z</time></trkpt><trkpt lat="45.371786" lon="8.0117215"><ele>355.42857142857144</ele><time>2026-04-29T18:03:42.082Z</time></trkpt><trkpt lat="45.3718519" lon="8.0117064"><ele>357.0</ele><time>2026-04-29T18:03:44.083Z</time></trkpt><trkpt lat="45.3719242" lon="8.0117289"><ele>357.0</ele><time>2026-04-29T18:03:46.085Z</time></trkpt><trkpt lat="45.3719947" lon="8.0117611"><ele>357.0</ele><time>2026-04-29T18:03:48.086Z</time></trkpt><trkpt lat="45.3720653" lon="8.011808"><ele>357.0</ele><time>2026-04-29T18:03:51.085Z</time></trkpt><trkpt lat="45.3721525" lon="8.0118295"><ele>357.0</ele><time>2026-04-29T18:03:54.085Z</time></trkpt><trkpt lat="45.372244" lon="8.0118117"><ele>357.0</ele><time>2026-04-29T18:03:57.083Z</time></trkpt><trkpt lat="45.3723136" lon="8.0117836"><ele>357.0</ele><time>2026-04-29T18:04:00.084Z</time></trkpt><trkpt lat="45.3723913" lon="8.0117913"><ele>356.40000000000003</ele><time>2026-04-29T18:04:03.089Z</time></trkpt><trkpt lat="45.3724182" lon="8.0119049"><ele>355.8</ele><time>2026-04-29T18:04:25.082Z</time></trkpt><trkpt lat="45.3724219" lon="8.0120699"><ele>355.2</ele><time>2026-04-29T18:04:27.081Z</time></trkpt><trkpt lat="45.3724135" lon="8.0122318"><ele>354.6</ele><time>2026-04-29T18:04:29.085Z</time></trkpt><trkpt lat="45.3723978" lon="8.0123474"><ele>354.0</ele><time>2026-04-29T18:04:31.085Z</time></trkpt><trkpt lat="45.3723919" lon="8.0124569"><ele>353.5714285714286</ele><time>2026-04-29T18:04:33.083Z</time></trkpt><trkpt lat="45.3723909" lon="8.0125741"><ele>353.1428571428571</ele><time>2026-04-29T18:04:35.086Z</time></trkpt><trkpt lat="45.3724017" lon="8.012677"><ele>352.7142857142857</ele><time>2026-04-29T18:04:37.085Z</time></trkpt><trkpt lat="45.3724182" lon="8.0127794"><ele>352.28571428571433</ele><time>2026-04-29T18:04:39.088Z</time></trkpt><trkpt lat="45.3724483" lon="8.0128748"><ele>351.8571428571429</ele><time>2026-04-29T18:04:41.093Z</time></trkpt><trkpt lat="45.3724821" lon="8.0129591"><ele>351.42857142857144</ele><time>2026-04-29T18:04:43.094Z</time></trkpt><trkpt lat="45.3724929" lon="8.0130527"><ele>351.0</ele><time>2026-04-29T18:04:45.087Z</time></trkpt><trkpt lat="45.3725155" lon="8.0131558"><ele>351.0</ele><time>2026-04-29T18:04:47.088Z</time></trkpt><trkpt lat="45.3725435" lon="8.0132749"><ele>351.0</ele><time>2026-04-29T18:04:49.089Z</time></trkpt><trkpt lat="45.3725762" lon="8.0134094"><ele>351.0</ele><time>2026-04-29T18:04:51.087Z</time></trkpt><trkpt lat="45.372606" lon="8.0135497"><ele>351.0</ele><time>2026-04-29T18:04:53.088Z</time></trkpt><trkpt lat="45.3726189" lon="8.0136517"><ele>351.0</ele><time>2026-04-29T18:04:55.092Z</time></trkpt><trkpt lat="45.3725987" lon="8.0137662"><ele>351.0</ele><time>2026-04-29T18:04:59.087Z</time></trkpt><trkpt lat="45.3726299" lon="8.0138592"><ele>350.8</ele><time>2026-04-29T18:05:01.084Z</time></trkpt><trkpt lat="45.3726446" lon="8.0139861"><ele>350.6</ele><time>2026-04-29T18:06:03.091Z</time></trkpt><trkpt lat="45.372678" lon="8.0141677"><ele>350.4</ele><time>2026-04-29T18:06:05.087Z</time></trkpt><trkpt lat="45.3726966" lon="8.0142781"><ele>350.2</ele><time>2026-04-29T18:06:06.093Z</time></trkpt><trkpt lat="45.372717" lon="8.0143738"><ele>350.0</ele><time>2026-04-29T18:06:07.089Z</time></trkpt><trkpt lat="45.3727505" lon="8.0145295"><ele>349.0</ele><time>2026-04-29T18:06:09.094Z</time></trkpt><trkpt lat="45.3727898" lon="8.0146846"><ele>348.0</ele><time>2026-04-29T18:06:11.087Z</time></trkpt><trkpt lat="45.3728339" lon="8.0148503"><ele>347.0</ele><time>2026-04-29T18:06:13.095Z</time></trkpt><trkpt lat="45.3728704" lon="8.0150105"><ele>346.0</ele><time>2026-04-29T18:06:15.09Z</time></trkpt><trkpt lat="45.3728984" lon="8.015135"><ele>345.3333333333333</ele><time>2026-04-29T18:06:17.089Z</time></trkpt><trkpt lat="45.3729246" lon="8.0152172"><ele>344.66666666666663</ele><time>2026-04-29T18:06:19.084Z</time></trkpt><trkpt lat="45.3729885" lon="8.01529"><ele>344.0</ele><time>2026-04-29T18:06:22.087Z</time></trkpt><trkpt lat="45.3730196" lon="8.015383"><ele>343.3333333333333</ele><time>2026-04-29T18:06:24.091Z</time></trkpt><trkpt lat="45.373037" lon="8.0155011"><ele>342.6666666666667</ele><time>2026-04-29T18:06:26.086Z</time></trkpt><trkpt lat="45.3730485" lon="8.015626"><ele>342.0</ele><time>2026-04-29T18:06:28.086Z</time></trkpt><trkpt lat="45.3730634" lon="8.0157712"><ele>343.0</ele><time>2026-04-29T18:06:30.082Z</time></trkpt><trkpt lat="45.3730788" lon="8.0159454"><ele>344.0</ele><time>2026-04-29T18:06:32.082Z</time></trkpt><trkpt lat="45.3730827" lon="8.0160381"><ele>345.0</ele><time>2026-04-29T18:06:33.092Z</time></trkpt><trkpt lat="45.3730839" lon="8.0161299"><ele>346.0</ele><time>2026-04-29T18:06:34.092Z</time></trkpt><trkpt lat="45.3730887" lon="8.0163021"><ele>347.0</ele><time>2026-04-29T18:06:36.093Z</time></trkpt><trkpt lat="45.3730921" lon="8.0164453"><ele>347.0</ele><time>2026-04-29T18:06:38.089Z</time></trkpt><trkpt lat="45.3730896" lon="8.0165824"><ele>347.0</ele><time>2026-04-29T18:06:40.097Z</time></trkpt><trkpt lat="45.3731088" lon="8.0167172"><ele>347.0</ele><time>2026-04-29T18:06:42.087Z</time></trkpt><trkpt lat="45.3731538" lon="8.0168181"><ele>347.0</ele><time>2026-04-29T18:06:44.088Z</time></trkpt><trkpt lat="45.373222" lon="8.0169162"><ele>347.0</ele><time>2026-04-29T18:06:46.085Z</time></trkpt><trkpt lat="45.3733059" lon="8.0170377"><ele>345.6</ele><time>2026-04-29T18:06:48.085Z</time></trkpt><trkpt lat="45.3733703" lon="8.0171724"><ele>344.20000000000005</ele><time>2026-04-29T18:06:50.089Z</time></trkpt><trkpt lat="45.3734145" lon="8.017317"><ele>342.8</ele><time>2026-04-29T18:06:52.083Z</time></trkpt><trkpt lat="45.3734429" lon="8.0174673"><ele>341.4</ele><time>2026-04-29T18:06:54.089Z</time></trkpt><trkpt lat="45.3734568" lon="8.0176071"><ele>340.0</ele><time>2026-04-29T18:06:56.081Z</time></trkpt><trkpt lat="45.3734452" lon="8.0177489"><ele>338.8</ele><time>2026-04-29T18:06:58.09Z</time></trkpt><trkpt lat="45.3734253" lon="8.0179251"><ele>337.6</ele><time>2026-04-29T18:07:00.084Z</time></trkpt><trkpt lat="45.3734146" lon="8.0180197"><ele>336.4</ele><time>2026-04-29T18:07:01.086Z</time></trkpt><trkpt lat="45.3734097" lon="8.0181121"><ele>335.2</ele><time>2026-04-29T18:07:02.092Z</time></trkpt><trkpt lat="45.373413" lon="8.0182808"><ele>334.0</ele><time>2026-04-29T18:07:04.086Z</time></trkpt><trkpt lat="45.3734117" lon="8.0184373"><ele>332.75</ele><time>2026-04-29T18:07:06.092Z</time></trkpt><trkpt lat="45.3734078" lon="8.0185915"><ele>331.5</ele><time>2026-04-29T18:07:08.087Z</time></trkpt><trkpt lat="45.3734315" lon="8.0187409"><ele>330.25</ele><time>2026-04-29T18:07:10.087Z</time></trkpt><trkpt lat="45.3734581" lon="8.0188959"><ele>329.0</ele><time>2026-04-29T18:07:12.081Z</time></trkpt><trkpt lat="45.3734982" lon="8.0190634"><ele>328.79999999999995</ele><time>2026-04-29T18:07:14.089Z</time></trkpt><trkpt lat="45.373544" lon="8.0192244"><ele>328.59999999999997</ele><time>2026-04-29T18:07:16.081Z</time></trkpt><trkpt lat="45.3735915" lon="8.0193479"><ele>328.4</ele><time>2026-04-29T18:07:18.082Z</time></trkpt><trkpt lat="45.3736585" lon="8.0193779"><ele>328.2</ele><time>2026-04-29T18:07:21.088Z</time></trkpt><trkpt lat="45.3737278" lon="8.019296"><ele>328.0</ele><time>2026-04-29T18:07:23.086Z</time></trkpt><trkpt lat="45.3738106" lon="8.0191926"><ele>326.79999999999995</ele><time>2026-04-29T18:07:25.081Z</time></trkpt><trkpt lat="45.3738905" lon="8.0191049"><ele>325.6</ele><time>2026-04-29T18:07:27.085Z</time></trkpt><trkpt lat="45.3739702" lon="8.0190157"><ele>324.4</ele><time>2026-04-29T18:07:29.083Z</time></trkpt><trkpt lat="45.3740384" lon="8.0189456"><ele>323.20000000000005</ele><time>2026-04-29T18:07:31.09Z</time></trkpt><trkpt lat="45.3741048" lon="8.0189314"><ele>322.0</ele><time>2026-04-29T18:07:33.091Z</time></trkpt><trkpt lat="45.3742031" lon="8.0189248"><ele>322.0</ele><time>2026-04-29T18:07:35.092Z</time></trkpt><trkpt lat="45.3743081" lon="8.0189045"><ele>322.0</ele><time>2026-04-29T18:07:37.089Z</time></trkpt><trkpt lat="45.3744249" lon="8.0188633"><ele>322.0</ele><time>2026-04-29T18:07:39.084Z</time></trkpt><trkpt lat="45.3744864" lon="8.0188268"><ele>322.0</ele><time>2026-04-29T18:07:40.089Z</time></trkpt><trkpt lat="45.3745451" lon="8.0187834"><ele>322.0</ele><time>2026-04-29T18:07:41.084Z</time></trkpt><trkpt lat="45.3745998" lon="8.0187356"><ele>322.0</ele><time>2026-04-29T18:07:42.086Z</time></trkpt><trkpt lat="45.3746962" lon="8.0186446"><ele>321.40000000000003</ele><time>2026-04-29T18:07:44.085Z</time></trkpt><trkpt lat="45.3747845" lon="8.0185744"><ele>320.8</ele><time>2026-04-29T18:07:46.09Z</time></trkpt><trkpt lat="45.3748684" lon="8.0185228"><ele>320.2</ele><time>2026-04-29T18:07:48.09Z</time></trkpt><trkpt lat="45.3749653" lon="8.0184925"><ele>319.6</ele><time>2026-04-29T18:07:50.09Z</time></trkpt><trkpt lat="45.3750646" lon="8.0185074"><ele>319.0</ele><time>2026-04-29T18:07:52.095Z</time></trkpt><trkpt lat="45.3751203" lon="8.0185665"><ele>319.0</ele><time>2026-04-29T18:07:54.088Z</time></trkpt><trkpt lat="45.375113" lon="8.0187112"><ele>319.0</ele><time>2026-04-29T18:07:56.09Z</time></trkpt><trkpt lat="45.3750873" lon="8.0188143"><ele>319.0</ele><time>2026-04-29T18:07:57.088Z</time></trkpt><trkpt lat="45.3750653" lon="8.0189293"><ele>319.0</ele><time>2026-04-29T18:07:58.089Z</time></trkpt><trkpt lat="45.3750453" lon="8.0190567"><ele>319.0</ele><time>2026-04-29T18:07:59.086Z</time></trkpt><trkpt lat="45.3750267" lon="8.0191976"><ele>318.4</ele><time>2026-04-29T18:08:00.087Z</time></trkpt><trkpt lat="45.3750146" lon="8.0193467"><ele>317.79999999999995</ele><time>2026-04-29T18:08:01.094Z</time></trkpt><trkpt lat="45.375006" lon="8.0194914"><ele>317.20000000000005</ele><time>2026-04-29T18:08:02.094Z</time></trkpt><trkpt lat="45.3750035" lon="8.0196367"><ele>316.6</ele><time>2026-04-29T18:08:03.089Z</time></trkpt><trkpt lat="45.3750067" lon="8.0197866"><ele>316.0</ele><time>2026-04-29T18:08:04.098Z</time></trkpt><trkpt lat="45.3750176" lon="8.0199412"><ele>315.6</ele><time>2026-04-29T18:08:05.095Z</time></trkpt><trkpt lat="45.375028" lon="8.0200976"><ele>315.20000000000005</ele><time>2026-04-29T18:08:06.091Z</time></trkpt><trkpt lat="45.3750331" lon="8.0202544"><ele>314.79999999999995</ele><time>2026-04-29T18:08:07.103Z</time></trkpt><trkpt lat="45.3750365" lon="8.0204126"><ele>314.4</ele><time>2026-04-29T18:08:08.1Z</time></trkpt><trkpt lat="45.3750365" lon="8.0205645"><ele>314.0</ele><time>2026-04-29T18:08:09.101Z</time></trkpt><trkpt lat="45.3750368" lon="8.0207061"><ele>313.59999999999997</ele><time>2026-04-29T18:08:10.103Z</time></trkpt><trkpt lat="45.3750368" lon="8.0208455"><ele>313.2</ele><time>2026-04-29T18:08:11.1Z</time></trkpt><trkpt lat="45.3750336" lon="8.0209851"><ele>312.79999999999995</ele><time>2026-04-29T18:08:12.104Z</time></trkpt><trkpt lat="45.3750304" lon="8.0211326"><ele>312.4</ele><time>2026-04-29T18:08:13.104Z</time></trkpt><trkpt lat="45.3750232" lon="8.0212847"><ele>312.0</ele><time>2026-04-29T18:08:14.094Z</time></trkpt><trkpt lat="45.3750131" lon="8.0214451"><ele>312.0</ele><time>2026-04-29T18:08:15.1Z</time></trkpt><trkpt lat="45.3750002" lon="8.0216073"><ele>312.0</ele><time>2026-04-29T18:08:16.096Z</time></trkpt><trkpt lat="45.3749864" lon="8.0217636"><ele>312.0</ele><time>2026-04-29T18:08:17.095Z</time></trkpt><trkpt lat="45.374973" lon="8.0219041"><ele>312.0</ele><time>2026-04-29T18:08:18.111Z</time></trkpt><trkpt lat="45.3749636" lon="8.0220341"><ele>312.0</ele><time>2026-04-29T18:08:19.105Z</time></trkpt><trkpt lat="45.3749545" lon="8.0221562"><ele>311.4</ele><time>2026-04-29T18:08:20.095Z</time></trkpt><trkpt lat="45.3749439" lon="8.0222803"><ele>310.79999999999995</ele><time>2026-04-29T18:08:21.104Z</time></trkpt><trkpt lat="45.374928" lon="8.0224091"><ele>310.2</ele><time>2026-04-29T18:08:22.102Z</time></trkpt><trkpt lat="45.3749132" lon="8.0225465"><ele>309.59999999999997</ele><time>2026-04-29T18:08:23.114Z</time></trkpt><trkpt lat="45.3748986" lon="8.022689"><ele>309.0</ele><time>2026-04-29T18:08:24.093Z</time></trkpt><trkpt lat="45.3748885" lon="8.0228359"><ele>308.59999999999997</ele><time>2026-04-29T18:08:25.102Z</time></trkpt><trkpt lat="45.3748765" lon="8.0229859"><ele>308.2</ele><time>2026-04-29T18:08:26.094Z</time></trkpt><trkpt lat="45.3748636" lon="8.02314"><ele>307.79999999999995</ele><time>2026-04-29T18:08:27.096Z</time></trkpt><trkpt lat="45.374852" lon="8.0233002"><ele>307.4</ele><time>2026-04-29T18:08:28.103Z</time></trkpt><trkpt lat="45.374841" lon="8.023468"><ele>307.0</ele><time>2026-04-29T18:08:29.104Z</time></trkpt><trkpt lat="45.3748288" lon="8.02364"><ele>306.25</ele><time>2026-04-29T18:08:30.103Z</time></trkpt><trkpt lat="45.3748161" lon="8.0238203"><ele>305.5</ele><time>2026-04-29T18:08:31.108Z</time></trkpt><trkpt lat="45.3748041" lon="8.0240029"><ele>304.75</ele><time>2026-04-29T18:08:32.095Z</time></trkpt><trkpt lat="45.3747917" lon="8.0241875"><ele>304.0</ele><time>2026-04-29T18:08:33.089Z</time></trkpt><trkpt lat="45.3747773" lon="8.0243727"><ele>303.5</ele><time>2026-04-29T18:08:34.094Z</time></trkpt><trkpt lat="45.374763" lon="8.0245649"><ele>303.0</ele><time>2026-04-29T18:08:35.105Z</time></trkpt><trkpt lat="45.374749" lon="8.0247678"><ele>302.5</ele><time>2026-04-29T18:08:36.093Z</time></trkpt><trkpt lat="45.3747368" lon="8.0249862"><ele>302.0</ele><time>2026-04-29T18:08:37.095Z</time></trkpt><trkpt lat="45.3747206" lon="8.0252115"><ele>301.6666666666667</ele><time>2026-04-29T18:08:38.093Z</time></trkpt><trkpt lat="45.3747021" lon="8.0254369"><ele>301.3333333333333</ele><time>2026-04-29T18:08:39.099Z</time></trkpt><trkpt lat="45.3746835" lon="8.0256529"><ele>301.0</ele><time>2026-04-29T18:08:40.096Z</time></trkpt><trkpt lat="45.3746577" lon="8.0258553"><ele>301.5</ele><time>2026-04-29T18:08:41.102Z</time></trkpt><trkpt lat="45.3746218" lon="8.0260408"><ele>302.0</ele><time>2026-04-29T18:08:42.101Z</time></trkpt><trkpt lat="45.3745702" lon="8.0262107"><ele>302.5</ele><time>2026-04-29T18:08:43.086Z</time></trkpt><trkpt lat="45.3745069" lon="8.0263681"><ele>303.0</ele><time>2026-04-29T18:08:44.102Z</time></trkpt><trkpt lat="45.3744328" lon="8.0265164"><ele>303.0</ele><time>2026-04-29T18:08:45.104Z</time></trkpt><trkpt lat="45.3743443" lon="8.0266444"><ele>303.0</ele><time>2026-04-29T18:08:46.103Z</time></trkpt><trkpt lat="45.3742504" lon="8.0267543"><ele>303.0</ele><time>2026-04-29T18:08:47.093Z</time></trkpt><trkpt lat="45.3741503" lon="8.0268496"><ele>303.0</ele><time>2026-04-29T18:08:48.096Z</time></trkpt><trkpt lat="45.374042" lon="8.0269368"><ele>302.75</ele><time>2026-04-29T18:08:49.088Z</time></trkpt><trkpt lat="45.3739258" lon="8.0270183"><ele>302.5</ele><time>2026-04-29T18:08:50.096Z</time></trkpt><trkpt lat="45.3737975" lon="8.0270942"><ele>302.25</ele><time>2026-04-29T18:08:51.107Z</time></trkpt><trkpt lat="45.3736632" lon="8.0271717"><ele>302.0</ele><time>2026-04-29T18:08:52.104Z</time></trkpt><trkpt lat="45.3735254" lon="8.0272583"><ele>301.0</ele><time>2026-04-29T18:08:53.09Z</time></trkpt><trkpt lat="45.3733816" lon="8.0273552"><ele>300.0</ele><time>2026-04-29T18:08:54.103Z</time></trkpt><trkpt lat="45.3732345" lon="8.0274638"><ele>299.0</ele><time>2026-04-29T18:08:55.096Z</time></trkpt><trkpt lat="45.3730965" lon="8.0275869"><ele>298.5</ele><time>2026-04-29T18:08:56.104Z</time></trkpt><trkpt lat="45.3729714" lon="8.0277178"><ele>298.0</ele><time>2026-04-29T18:08:57.092Z</time></trkpt><trkpt lat="45.3728591" lon="8.027849"><ele>297.5</ele><time>2026-04-29T18:08:58.101Z</time></trkpt><trkpt lat="45.3727578" lon="8.0279866"><ele>297.0</ele><time>2026-04-29T18:08:59.095Z</time></trkpt><trkpt lat="45.3726622" lon="8.0281276"><ele>297.0</ele><time>2026-04-29T18:09:00.091Z</time></trkpt><trkpt lat="45.3725732" lon="8.0282727"><ele>297.0</ele><time>2026-04-29T18:09:01.11Z</time></trkpt><trkpt lat="45.3724862" lon="8.0284203"><ele>297.0</ele><time>2026-04-29T18:09:02.094Z</time></trkpt><trkpt lat="45.3723959" lon="8.0285705"><ele>297.0</ele><time>2026-04-29T18:09:03.098Z</time></trkpt><trkpt lat="45.3723047" lon="8.028723"><ele>296.75</ele><time>2026-04-29T18:09:04.105Z</time></trkpt><trkpt lat="45.3722118" lon="8.0288768"><ele>296.5</ele><time>2026-04-29T18:09:05.095Z</time></trkpt><trkpt lat="45.3721153" lon="8.0290299"><ele>296.25</ele><time>2026-04-29T18:09:06.11Z</time></trkpt><trkpt lat="45.3720157" lon="8.0291816"><ele>296.0</ele><time>2026-04-29T18:09:07.102Z</time></trkpt><trkpt lat="45.3719138" lon="8.0293318"><ele>295.75</ele><time>2026-04-29T18:09:08.105Z</time></trkpt><trkpt lat="45.3718108" lon="8.0294827"><ele>295.5</ele><time>2026-04-29T18:09:09.108Z</time></trkpt><trkpt lat="45.3717054" lon="8.029629"><ele>295.25</ele><time>2026-04-29T18:09:10.101Z</time></trkpt><trkpt lat="45.371597" lon="8.0297687"><ele>295.0</ele><time>2026-04-29T18:09:11.089Z</time></trkpt><trkpt lat="45.3714842" lon="8.0299004"><ele>294.75</ele><time>2026-04-29T18:09:12.096Z</time></trkpt><trkpt lat="45.3713676" lon="8.0300244"><ele>294.5</ele><time>2026-04-29T18:09:13.103Z</time></trkpt><trkpt lat="45.3712484" lon="8.0301415"><ele>294.25</ele><time>2026-04-29T18:09:14.088Z</time></trkpt><trkpt lat="45.3711257" lon="8.0302525"><ele>294.0</ele><time>2026-04-29T18:09:15.087Z</time></trkpt><trkpt lat="45.3710025" lon="8.0303634"><ele>293.25</ele><time>2026-04-29T18:09:16.095Z</time></trkpt><trkpt lat="45.3708798" lon="8.0304791"><ele>292.5</ele><time>2026-04-29T18:09:17.102Z</time></trkpt><trkpt lat="45.3707574" lon="8.0305973"><ele>291.75</ele><time>2026-04-29T18:09:18.104Z</time></trkpt><trkpt lat="45.3706343" lon="8.0307182"><ele>291.0</ele><time>2026-04-29T18:09:19.102Z</time></trkpt><trkpt lat="45.3705092" lon="8.0308388"><ele>290.6666666666667</ele><time>2026-04-29T18:09:20.102Z</time></trkpt><trkpt lat="45.3703818" lon="8.0309543"><ele>290.33333333333337</ele><time>2026-04-29T18:09:21.098Z</time></trkpt><trkpt lat="45.3702522" lon="8.031064"><ele>290.0</ele><time>2026-04-29T18:09:22.105Z</time></trkpt><trkpt lat="45.3701182" lon="8.0311693"><ele>290.0</ele><time>2026-04-29T18:09:23.104Z</time></trkpt><trkpt lat="45.3699805" lon="8.0312689"><ele>290.0</ele><time>2026-04-29T18:09:24.09Z</time></trkpt><trkpt lat="45.3698415" lon="8.0313648"><ele>290.0</ele><time>2026-04-29T18:09:25.097Z</time></trkpt><trkpt lat="45.3697015" lon="8.031459"><ele>289.33333333333337</ele><time>2026-04-29T18:09:26.095Z</time></trkpt><trkpt lat="45.3695592" lon="8.0315511"><ele>288.6666666666667</ele><time>2026-04-29T18:09:27.112Z</time></trkpt><trkpt lat="45.369415" lon="8.0316423"><ele>288.0</ele><time>2026-04-29T18:09:28.092Z</time></trkpt><trkpt lat="45.369271" lon="8.0317342"><ele>287.0</ele><time>2026-04-29T18:09:29.104Z</time></trkpt><trkpt lat="45.3691266" lon="8.0318273"><ele>286.0</ele><time>2026-04-29T18:09:30.1Z</time></trkpt><trkpt lat="45.3689832" lon="8.0319227"><ele>285.0</ele><time>2026-04-29T18:09:31.104Z</time></trkpt><trkpt lat="45.3688422" lon="8.0320222"><ele>284.0</ele><time>2026-04-29T18:09:32.102Z</time></trkpt><trkpt lat="45.368707" lon="8.0321234"><ele>283.0</ele><time>2026-04-29T18:09:33.111Z</time></trkpt><trkpt lat="45.3685817" lon="8.0322245"><ele>282.0</ele><time>2026-04-29T18:09:34.103Z</time></trkpt><trkpt lat="45.3684666" lon="8.0323278"><ele>281.0</ele><time>2026-04-29T18:09:35.104Z</time></trkpt><trkpt lat="45.368357" lon="8.032427"><ele>281.0</ele><time>2026-04-29T18:09:36.105Z</time></trkpt><trkpt lat="45.3682476" lon="8.0325279"><ele>281.0</ele><time>2026-04-29T18:09:37.093Z</time></trkpt><trkpt lat="45.3681356" lon="8.0326306"><ele>281.0</ele><time>2026-04-29T18:09:38.109Z</time></trkpt><trkpt lat="45.3680195" lon="8.0327338"><ele>281.0</ele><time>2026-04-29T18:09:39.107Z</time></trkpt><trkpt lat="45.3678983" lon="8.0328402"><ele>281.0</ele><time>2026-04-29T18:09:40.092Z</time></trkpt><trkpt lat="45.367772" lon="8.0329518"><ele>281.0</ele><time>2026-04-29T18:09:41.101Z</time></trkpt><trkpt lat="45.3676396" lon="8.0330665"><ele>281.0</ele><time>2026-04-29T18:09:42.103Z</time></trkpt><trkpt lat="45.3675079" lon="8.0331831"><ele>281.0</ele><time>2026-04-29T18:09:43.094Z</time></trkpt><trkpt lat="45.3673803" lon="8.0333038"><ele>281.0</ele><time>2026-04-29T18:09:44.101Z</time></trkpt><trkpt lat="45.3672555" lon="8.0334368"><ele>281.0</ele><time>2026-04-29T18:09:45.103Z</time></trkpt><trkpt lat="45.3671331" lon="8.0335827"><ele>280.33333333333337</ele><time>2026-04-29T18:09:46.102Z</time></trkpt><trkpt lat="45.3670106" lon="8.0337379"><ele>279.6666666666667</ele><time>2026-04-29T18:09:47.093Z</time></trkpt><trkpt lat="45.3668864" lon="8.0338973"><ele>279.0</ele><time>2026-04-29T18:09:48.093Z</time></trkpt><trkpt lat="45.3667633" lon="8.034055"><ele>278.6666666666667</ele><time>2026-04-29T18:09:49.1Z</time></trkpt><trkpt lat="45.3666383" lon="8.0342116"><ele>278.33333333333337</ele><time>2026-04-29T18:09:50.101Z</time></trkpt><trkpt lat="45.3665142" lon="8.0343652"><ele>278.0</ele><time>2026-04-29T18:09:51.104Z</time></trkpt><trkpt lat="45.36639" lon="8.0345178"><ele>277.33333333333337</ele><time>2026-04-29T18:09:52.095Z</time></trkpt><trkpt lat="45.3662663" lon="8.0346713"><ele>276.6666666666667</ele><time>2026-04-29T18:09:53.102Z</time></trkpt><trkpt lat="45.3661435" lon="8.0348244"><ele>276.0</ele><time>2026-04-29T18:09:54.103Z</time></trkpt><trkpt lat="45.3660215" lon="8.0349776"><ele>276.0</ele><time>2026-04-29T18:09:55.099Z</time></trkpt><trkpt lat="45.3658976" lon="8.0351296"><ele>276.0</ele><time>2026-04-29T18:09:56.094Z</time></trkpt><trkpt lat="45.3657739" lon="8.0352826"><ele>276.0</ele><time>2026-04-29T18:09:57.101Z</time></trkpt><trkpt lat="45.3656532" lon="8.0354398"><ele>276.0</ele><time>2026-04-29T18:09:58.094Z</time></trkpt><trkpt lat="45.3655349" lon="8.0355987"><ele>276.0</ele><time>2026-04-29T18:09:59.101Z</time></trkpt><trkpt lat="45.3654218" lon="8.0357581"><ele>276.0</ele><time>2026-04-29T18:10:00.109Z</time></trkpt><trkpt lat="45.3653159" lon="8.0359128"><ele>275.75</ele><time>2026-04-29T18:10:01.092Z</time></trkpt><trkpt lat="45.3652166" lon="8.0360597"><ele>275.5</ele><time>2026-04-29T18:10:02.094Z</time></trkpt><trkpt lat="45.3651199" lon="8.0361937"><ele>275.25</ele><time>2026-04-29T18:10:03.105Z</time></trkpt><trkpt lat="45.3650205" lon="8.0363134"><ele>275.0</ele><time>2026-04-29T18:10:04.1Z</time></trkpt><trkpt lat="45.3649159" lon="8.0364272"><ele>275.0</ele><time>2026-04-29T18:10:05.104Z</time></trkpt><trkpt lat="45.3647993" lon="8.0365296"><ele>275.0</ele><time>2026-04-29T18:10:06.101Z</time></trkpt><trkpt lat="45.3646708" lon="8.036624"><ele>275.0</ele><time>2026-04-29T18:10:07.099Z</time></trkpt><trkpt lat="45.3645307" lon="8.036725"><ele>275.0</ele><time>2026-04-29T18:10:08.101Z</time></trkpt><trkpt lat="45.3643825" lon="8.0368234"><ele>274.0</ele><time>2026-04-29T18:10:09.108Z</time></trkpt><trkpt lat="45.3642256" lon="8.036924"><ele>273.0</ele><time>2026-04-29T18:10:10.105Z</time></trkpt><trkpt lat="45.3640707" lon="8.0370247"><ele>272.0</ele><time>2026-04-29T18:10:11.105Z</time></trkpt><trkpt lat="45.3639256" lon="8.0371206"><ele>271.0</ele><time>2026-04-29T18:10:12.093Z</time></trkpt><trkpt lat="45.3637879" lon="8.0372159"><ele>270.0</ele><time>2026-04-29T18:10:13.095Z</time></trkpt><trkpt lat="45.3636555" lon="8.0373213"><ele>269.0</ele><time>2026-04-29T18:10:14.105Z</time></trkpt><trkpt lat="45.3635329" lon="8.0374469"><ele>269.0</ele><time>2026-04-29T18:10:15.105Z</time></trkpt><trkpt lat="45.3634219" lon="8.0376003"><ele>269.0</ele><time>2026-04-29T18:10:16.088Z</time></trkpt><trkpt lat="45.3633178" lon="8.0377704"><ele>269.0</ele><time>2026-04-29T18:10:17.11Z</time></trkpt><trkpt lat="45.3632343" lon="8.0379682"><ele>269.0</ele><time>2026-04-29T18:10:18.093Z</time></trkpt><trkpt lat="45.3631578" lon="8.0381745"><ele>269.0</ele><time>2026-04-29T18:10:19.105Z</time></trkpt><trkpt lat="45.3630836" lon="8.0383814"><ele>269.0</ele><time>2026-04-29T18:10:20.103Z</time></trkpt><trkpt lat="45.3630093" lon="8.0385822"><ele>268.6666666666667</ele><time>2026-04-29T18:10:21.109Z</time></trkpt><trkpt lat="45.3629291" lon="8.0387814"><ele>268.3333333333333</ele><time>2026-04-29T18:10:22.101Z</time></trkpt><trkpt lat="45.3628472" lon="8.0389661"><ele>268.0</ele><time>2026-04-29T18:10:23.094Z</time></trkpt><trkpt lat="45.3627624" lon="8.039134"><ele>268.0</ele><time>2026-04-29T18:10:24.107Z</time></trkpt><trkpt lat="45.3626673" lon="8.039283"><ele>268.0</ele><time>2026-04-29T18:10:25.095Z</time></trkpt><trkpt lat="45.3625637" lon="8.0394162"><ele>268.0</ele><time>2026-04-29T18:10:26.094Z</time></trkpt><trkpt lat="45.36244" lon="8.039542"><ele>268.0</ele><time>2026-04-29T18:10:27.093Z</time></trkpt><trkpt lat="45.3623021" lon="8.0396742"><ele>267.0</ele><time>2026-04-29T18:10:28.101Z</time></trkpt><trkpt lat="45.3621489" lon="8.0398006"><ele>266.0</ele><time>2026-04-29T18:10:29.109Z</time></trkpt><trkpt lat="45.3619962" lon="8.0399324"><ele>265.0</ele><time>2026-04-29T18:10:30.106Z</time></trkpt><trkpt lat="45.3618407" lon="8.0400625"><ele>265.0</ele><time>2026-04-29T18:10:31.102Z</time></trkpt><trkpt lat="45.3616888" lon="8.0401925"><ele>265.0</ele><time>2026-04-29T18:10:32.106Z</time></trkpt><trkpt lat="45.3615408" lon="8.0403238"><ele>265.0</ele><time>2026-04-29T18:10:33.105Z</time></trkpt><trkpt lat="45.3613971" lon="8.040457"><ele>265.0</ele><time>2026-04-29T18:10:34.113Z</time></trkpt><trkpt lat="45.3612537" lon="8.040586"><ele>265.0</ele><time>2026-04-29T18:10:35.105Z</time></trkpt><trkpt lat="45.3611142" lon="8.0407143"><ele>265.0</ele><time>2026-04-29T18:10:36.095Z</time></trkpt><trkpt lat="45.3609791" lon="8.0408387"><ele>264.75</ele><time>2026-04-29T18:10:37.1Z</time></trkpt><trkpt lat="45.3608529" lon="8.0409544"><ele>264.5</ele><time>2026-04-29T18:10:38.103Z</time></trkpt><trkpt lat="45.3607329" lon="8.0410627"><ele>264.25</ele><time>2026-04-29T18:10:39.097Z</time></trkpt><trkpt lat="45.3606138" lon="8.0411671"><ele>264.0</ele><time>2026-04-29T18:10:40.107Z</time></trkpt><trkpt lat="45.360495" lon="8.0412741"><ele>263.75</ele><time>2026-04-29T18:10:41.094Z</time></trkpt><trkpt lat="45.3603742" lon="8.0413859"><ele>263.5</ele><time>2026-04-29T18:10:42.091Z</time></trkpt><trkpt lat="45.3602504" lon="8.0415033"><ele>263.25</ele><time>2026-04-29T18:10:43.095Z</time></trkpt><trkpt lat="45.3601203" lon="8.0416265"><ele>263.0</ele><time>2026-04-29T18:10:44.096Z</time></trkpt><trkpt lat="45.3599839" lon="8.0417553"><ele>262.6666666666667</ele><time>2026-04-29T18:10:45.104Z</time></trkpt><trkpt lat="45.359842" lon="8.0418853"><ele>262.3333333333333</ele><time>2026-04-29T18:10:46.102Z</time></trkpt><trkpt lat="45.3597002" lon="8.0420137"><ele>262.0</ele><time>2026-04-29T18:10:47.096Z</time></trkpt><trkpt lat="45.3595584" lon="8.0421398"><ele>261.3333333333333</ele><time>2026-04-29T18:10:48.111Z</time></trkpt><trkpt lat="45.3594171" lon="8.0422672"><ele>260.6666666666667</ele><time>2026-04-29T18:10:49.086Z</time></trkpt><trkpt lat="45.3592769" lon="8.0423942"><ele>260.0</ele><time>2026-04-29T18:10:50.099Z</time></trkpt><trkpt lat="45.3591364" lon="8.0425204"><ele>260.0</ele><time>2026-04-29T18:10:51.095Z</time></trkpt><trkpt lat="45.3589948" lon="8.0426455"><ele>260.0</ele><time>2026-04-29T18:10:52.106Z</time></trkpt><trkpt lat="45.3588537" lon="8.0427728"><ele>260.0</ele><time>2026-04-29T18:10:53.117Z</time></trkpt><trkpt lat="45.3587126" lon="8.0429002"><ele>259.0</ele><time>2026-04-29T18:10:54.109Z</time></trkpt><trkpt lat="45.3585723" lon="8.0430276"><ele>258.0</ele><time>2026-04-29T18:10:55.1Z</time></trkpt><trkpt lat="45.3584321" lon="8.0431549"><ele>257.0</ele><time>2026-04-29T18:10:56.103Z</time></trkpt><trkpt lat="45.3582914" lon="8.0432824"><ele>257.0</ele><time>2026-04-29T18:10:57.1Z</time></trkpt><trkpt lat="45.3581503" lon="8.0434082"><ele>257.0</ele><time>2026-04-29T18:10:58.105Z</time></trkpt><trkpt lat="45.35801" lon="8.043533"><ele>257.0</ele><time>2026-04-29T18:10:59.113Z</time></trkpt><trkpt lat="45.3578704" lon="8.0436583"><ele>257.0</ele><time>2026-04-29T18:11:00.093Z</time></trkpt><trkpt lat="45.3577301" lon="8.0437855"><ele>257.0</ele><time>2026-04-29T18:11:01.099Z</time></trkpt><trkpt lat="45.3575929" lon="8.0439124"><ele>257.0</ele><time>2026-04-29T18:11:02.1Z</time></trkpt><trkpt lat="45.3574606" lon="8.0440337"><ele>257.0</ele><time>2026-04-29T18:11:03.108Z</time></trkpt><trkpt lat="45.3573333" lon="8.0441485"><ele>257.0</ele><time>2026-04-29T18:11:04.112Z</time></trkpt><trkpt lat="45.3572151" lon="8.0442595"><ele>257.0</ele><time>2026-04-29T18:11:05.095Z</time></trkpt><trkpt lat="45.3571043" lon="8.0443657"><ele>257.0</ele><time>2026-04-29T18:11:06.101Z</time></trkpt><trkpt lat="45.3570027" lon="8.044469"><ele>256.75</ele><time>2026-04-29T18:11:07.105Z</time></trkpt><trkpt lat="45.3569071" lon="8.0445703"><ele>256.5</ele><time>2026-04-29T18:11:08.103Z</time></trkpt><trkpt lat="45.3568102" lon="8.0446729"><ele>256.25</ele><time>2026-04-29T18:11:09.094Z</time></trkpt><trkpt lat="45.3567094" lon="8.0447839"><ele>256.0</ele><time>2026-04-29T18:11:10.095Z</time></trkpt><trkpt lat="45.3566037" lon="8.0449036"><ele>255.75</ele><time>2026-04-29T18:11:11.103Z</time></trkpt><trkpt lat="45.3564908" lon="8.04503"><ele>255.5</ele><time>2026-04-29T18:11:12.094Z</time></trkpt><trkpt lat="45.3563718" lon="8.0451618"><ele>255.25</ele><time>2026-04-29T18:11:13.095Z</time></trkpt><trkpt lat="45.3562514" lon="8.0452975"><ele>255.0</ele><time>2026-04-29T18:11:14.103Z</time></trkpt><trkpt lat="45.3561309" lon="8.0454347"><ele>254.66666666666669</ele><time>2026-04-29T18:11:15.092Z</time></trkpt><trkpt lat="45.3560096" lon="8.0455726"><ele>254.33333333333334</ele><time>2026-04-29T18:11:16.106Z</time></trkpt><trkpt lat="45.3558865" lon="8.0457098"><ele>254.0</ele><time>2026-04-29T18:11:17.106Z</time></trkpt><trkpt lat="45.3557649" lon="8.0458473"><ele>254.0</ele><time>2026-04-29T18:11:18.094Z</time></trkpt><trkpt lat="45.3556471" lon="8.0459797"><ele>254.0</ele><time>2026-04-29T18:11:19.094Z</time></trkpt><trkpt lat="45.3555347" lon="8.0461045"><ele>254.0</ele><time>2026-04-29T18:11:20.088Z</time></trkpt><trkpt lat="45.3554294" lon="8.0462213"><ele>254.0</ele><time>2026-04-29T18:11:21.092Z</time></trkpt><trkpt lat="45.3553314" lon="8.0463355"><ele>253.75</ele><time>2026-04-29T18:11:22.103Z</time></trkpt><trkpt lat="45.3552334" lon="8.0464442"><ele>253.5</ele><time>2026-04-29T18:11:23.108Z</time></trkpt><trkpt lat="45.3551354" lon="8.0465519"><ele>253.25</ele><time>2026-04-29T18:11:24.095Z</time></trkpt><trkpt lat="45.3550351" lon="8.0466612"><ele>253.0</ele><time>2026-04-29T18:11:25.108Z</time></trkpt><trkpt lat="45.3549327" lon="8.046775"><ele>252.75</ele><time>2026-04-29T18:11:26.101Z</time></trkpt><trkpt lat="45.3548278" lon="8.0468937"><ele>252.5</ele><time>2026-04-29T18:11:27.093Z</time></trkpt><trkpt lat="45.3547161" lon="8.0470176"><ele>252.25</ele><time>2026-04-29T18:11:28.097Z</time></trkpt><trkpt lat="45.3546055" lon="8.047143"><ele>252.0</ele><time>2026-04-29T18:11:29.084Z</time></trkpt><trkpt lat="45.3544995" lon="8.0472621"><ele>251.75</ele><time>2026-04-29T18:11:30.111Z</time></trkpt><trkpt lat="45.3543972" lon="8.0473747"><ele>251.5</ele><time>2026-04-29T18:11:31.105Z</time></trkpt><trkpt lat="45.3542982" lon="8.0474845"><ele>251.25</ele><time>2026-04-29T18:11:32.094Z</time></trkpt><trkpt lat="45.3542015" lon="8.0475948"><ele>251.0</ele><time>2026-04-29T18:11:33.095Z</time></trkpt><trkpt lat="45.3541019" lon="8.0477036"><ele>250.75</ele><time>2026-04-29T18:11:34.096Z</time></trkpt><trkpt lat="45.3540021" lon="8.0478155"><ele>250.5</ele><time>2026-04-29T18:11:35.093Z</time></trkpt><trkpt lat="45.3538976" lon="8.04793"><ele>250.25</ele><time>2026-04-29T18:11:36.094Z</time></trkpt><trkpt lat="45.3537908" lon="8.0480511"><ele>250.0</ele><time>2026-04-29T18:11:37.098Z</time></trkpt><trkpt lat="45.3536801" lon="8.0481794"><ele>249.66666666666666</ele><time>2026-04-29T18:11:38.104Z</time></trkpt><trkpt lat="45.353563" lon="8.0483119"><ele>249.33333333333331</ele><time>2026-04-29T18:11:39.094Z</time></trkpt><trkpt lat="45.3534424" lon="8.0484484"><ele>249.0</ele><time>2026-04-29T18:11:40.1Z</time></trkpt><trkpt lat="45.3533198" lon="8.048586"><ele>249.0</ele><time>2026-04-29T18:11:41.093Z</time></trkpt><trkpt lat="45.3532008" lon="8.04872"><ele>249.0</ele><time>2026-04-29T18:11:42.108Z</time></trkpt><trkpt lat="45.3530891" lon="8.0488469"><ele>249.0</ele><time>2026-04-29T18:11:43.104Z</time></trkpt><trkpt lat="45.3529842" lon="8.0489637"><ele>249.0</ele><time>2026-04-29T18:11:44.098Z</time></trkpt><trkpt lat="45.3528869" lon="8.0490724"><ele>249.0</ele><time>2026-04-29T18:11:45.1Z</time></trkpt><trkpt lat="45.3528002" lon="8.049168"><ele>249.0</ele><time>2026-04-29T18:11:46.094Z</time></trkpt><trkpt lat="45.3527336" lon="8.0492413"><ele>249.0</ele><time>2026-04-29T18:11:47.099Z</time></trkpt><trkpt lat="45.3526811" lon="8.0493068"><ele>249.0</ele><time>2026-04-29T18:11:48.093Z</time></trkpt><trkpt lat="45.3526247" lon="8.0493765"><ele>249.0</ele><time>2026-04-29T18:11:49.109Z</time></trkpt><trkpt lat="45.3525584" lon="8.0494569"><ele>249.0</ele><time>2026-04-29T18:11:50.091Z</time></trkpt><trkpt lat="45.3524798" lon="8.0495469"><ele>249.0</ele><time>2026-04-29T18:11:51.094Z</time></trkpt><trkpt lat="45.3523906" lon="8.0496507"><ele>249.0</ele><time>2026-04-29T18:11:52.099Z</time></trkpt><trkpt lat="45.352293" lon="8.0497654"><ele>249.0</ele><time>2026-04-29T18:11:53.102Z</time></trkpt><trkpt lat="45.352189" lon="8.0498903"><ele>249.0</ele><time>2026-04-29T18:11:54.1Z</time></trkpt><trkpt lat="45.3520742" lon="8.0500248"><ele>248.66666666666669</ele><time>2026-04-29T18:11:55.089Z</time></trkpt><trkpt lat="45.3519483" lon="8.050172"><ele>248.33333333333334</ele><time>2026-04-29T18:11:56.092Z</time></trkpt><trkpt lat="45.3518184" lon="8.0503258"><ele>248.0</ele><time>2026-04-29T18:11:57.097Z</time></trkpt><trkpt lat="45.3516931" lon="8.0504736"><ele>248.0</ele><time>2026-04-29T18:11:58.096Z</time></trkpt><trkpt lat="45.3515744" lon="8.0506085"><ele>248.0</ele><time>2026-04-29T18:11:59.09Z</time></trkpt><trkpt lat="45.3514637" lon="8.0507336"><ele>248.0</ele><time>2026-04-29T18:12:00.097Z</time></trkpt><trkpt lat="45.3513616" lon="8.0508459"><ele>248.0</ele><time>2026-04-29T18:12:01.101Z</time></trkpt><trkpt lat="45.3512673" lon="8.0509481"><ele>247.60000000000002</ele><time>2026-04-29T18:12:02.087Z</time></trkpt><trkpt lat="45.3511782" lon="8.0510462"><ele>247.20000000000002</ele><time>2026-04-29T18:12:03.116Z</time></trkpt><trkpt lat="45.3510937" lon="8.0511387"><ele>246.8</ele><time>2026-04-29T18:12:04.103Z</time></trkpt><trkpt lat="45.3510153" lon="8.0512249"><ele>246.4</ele><time>2026-04-29T18:12:05.102Z</time></trkpt><trkpt lat="45.350938" lon="8.0513047"><ele>246.0</ele><time>2026-04-29T18:12:06.093Z</time></trkpt><trkpt lat="45.3508587" lon="8.0513901"><ele>246.0</ele><time>2026-04-29T18:12:07.095Z</time></trkpt><trkpt lat="45.3507706" lon="8.0514887"><ele>246.0</ele><time>2026-04-29T18:12:08.106Z</time></trkpt><trkpt lat="45.3506772" lon="8.0516073"><ele>246.0</ele><time>2026-04-29T18:12:09.1Z</time></trkpt><trkpt lat="45.3505806" lon="8.0517479"><ele>246.0</ele><time>2026-04-29T18:12:10.111Z</time></trkpt><trkpt lat="45.3504821" lon="8.0518963"><ele>245.75</ele><time>2026-04-29T18:12:11.092Z</time></trkpt><trkpt lat="45.3503807" lon="8.0520554"><ele>245.5</ele><time>2026-04-29T18:12:12.102Z</time></trkpt><trkpt lat="45.3502789" lon="8.0522164"><ele>245.25</ele><time>2026-04-29T18:12:13.094Z</time></trkpt><trkpt lat="45.3501865" lon="8.0523683"><ele>245.0</ele><time>2026-04-29T18:12:14.104Z</time></trkpt><trkpt lat="45.3501028" lon="8.0525103"><ele>244.8</ele><time>2026-04-29T18:12:15.093Z</time></trkpt><trkpt lat="45.3500251" lon="8.0526412"><ele>244.6</ele><time>2026-04-29T18:12:16.103Z</time></trkpt><trkpt lat="45.349954" lon="8.0527612"><ele>244.39999999999998</ele><time>2026-04-29T18:12:17.095Z</time></trkpt><trkpt lat="45.3498855" lon="8.0528712"><ele>244.2</ele><time>2026-04-29T18:12:18.093Z</time></trkpt><trkpt lat="45.3498233" lon="8.0529717"><ele>244.0</ele><time>2026-04-29T18:12:19.101Z</time></trkpt><trkpt lat="45.3497654" lon="8.0530631"><ele>243.99999999999997</ele><time>2026-04-29T18:12:20.089Z</time></trkpt><trkpt lat="45.3497128" lon="8.0531455"><ele>244.0</ele><time>2026-04-29T18:12:21.111Z</time></trkpt><trkpt lat="45.3496669" lon="8.0532167"><ele>243.99999999999997</ele><time>2026-04-29T18:12:22.094Z</time></trkpt><trkpt lat="45.3496047" lon="8.0533157"><ele>243.99999999999997</ele><time>2026-04-29T18:12:24.092Z</time></trkpt><trkpt lat="45.3495703" lon="8.0533969"><ele>244.0</ele><time>2026-04-29T18:12:44.089Z</time></trkpt><trkpt lat="45.3495343" lon="8.0534745"><ele>243.99999999999997</ele><time>2026-04-29T18:12:48.095Z</time></trkpt><trkpt lat="45.3495663" lon="8.0535734"><ele>243.99999999999997</ele><time>2026-04-29T18:12:50.1Z</time></trkpt><trkpt lat="45.349611" lon="8.0536403"><ele>244.0</ele><time>2026-04-29T18:12:51.094Z</time></trkpt><trkpt lat="45.3496542" lon="8.0537129"><ele>243.99999999999997</ele><time>2026-04-29T18:12:52.108Z</time></trkpt><trkpt lat="45.349691" lon="8.0538002"><ele>243.99999999999997</ele><time>2026-04-29T18:12:53.102Z</time></trkpt><trkpt lat="45.3498374" lon="8.0538962"><ele>244.0</ele><time>2026-04-29T18:12:54.101Z</time></trkpt><trkpt lat="45.3499275" lon="8.0539962"><ele>244.0</ele><time>2026-04-29T18:12:55.092Z</time></trkpt><trkpt lat="45.3500291" lon="8.0541064"><ele>243.75</ele><time>2026-04-29T18:12:56.091Z</time></trkpt><trkpt lat="45.350137" lon="8.0542361"><ele>243.5</ele><time>2026-04-29T18:12:57.095Z</time></trkpt><trkpt lat="45.3502516" lon="8.0543636"><ele>243.25</ele><time>2026-04-29T18:12:58.099Z</time></trkpt><trkpt lat="45.3503654" lon="8.0544937"><ele>243.0</ele><time>2026-04-29T18:12:59.104Z</time></trkpt><trkpt lat="45.3504832" lon="8.0546161"><ele>243.0</ele><time>2026-04-29T18:13:00.097Z</time></trkpt><trkpt lat="45.3505948" lon="8.0547287"><ele>243.0</ele><time>2026-04-29T18:13:01.106Z</time></trkpt><trkpt lat="45.3507004" lon="8.054839"><ele>243.0</ele><time>2026-04-29T18:13:02.1Z</time></trkpt><trkpt lat="45.3508018" lon="8.054946"><ele>243.0</ele><time>2026-04-29T18:13:03.11Z</time></trkpt><trkpt lat="45.3508968" lon="8.0550562"><ele>243.25</ele><time>2026-04-29T18:13:04.097Z</time></trkpt><trkpt lat="45.3509926" lon="8.0551631"><ele>243.5</ele><time>2026-04-29T18:13:05.095Z</time></trkpt><trkpt lat="45.3510939" lon="8.0552643"><ele>243.75</ele><time>2026-04-29T18:13:06.103Z</time></trkpt><trkpt lat="45.351206" lon="8.055357"><ele>244.0</ele><time>2026-04-29T18:13:07.097Z</time></trkpt><trkpt lat="45.3513274" lon="8.0554448"><ele>243.75</ele><time>2026-04-29T18:13:08.108Z</time></trkpt><trkpt lat="45.3514499" lon="8.0555341"><ele>243.5</ele><time>2026-04-29T18:13:09.103Z</time></trkpt><trkpt lat="45.3515776" lon="8.0556212"><ele>243.25</ele><time>2026-04-29T18:13:10.095Z</time></trkpt><trkpt lat="45.3517045" lon="8.0557066"><ele>243.0</ele><time>2026-04-29T18:13:11.105Z</time></trkpt><trkpt lat="45.3518298" lon="8.0557956"><ele>243.0</ele><time>2026-04-29T18:13:12.093Z</time></trkpt><trkpt lat="45.351952" lon="8.055885"><ele>243.0</ele><time>2026-04-29T18:13:13.097Z</time></trkpt><trkpt lat="45.3520738" lon="8.0559719"><ele>243.0</ele><time>2026-04-29T18:13:14.104Z</time></trkpt><trkpt lat="45.3521958" lon="8.0560599"><ele>243.0</ele><time>2026-04-29T18:13:15.099Z</time></trkpt><trkpt lat="45.352319" lon="8.0561487"><ele>243.25</ele><time>2026-04-29T18:13:16.1Z</time></trkpt><trkpt lat="45.3524434" lon="8.0562389"><ele>243.5</ele><time>2026-04-29T18:13:17.089Z</time></trkpt><trkpt lat="45.3525669" lon="8.0563283"><ele>243.75</ele><time>2026-04-29T18:13:18.102Z</time></trkpt><trkpt lat="45.3526847" lon="8.0564124"><ele>244.0</ele><time>2026-04-29T18:13:19.101Z</time></trkpt><trkpt lat="45.352794" lon="8.056491"><ele>244.0</ele><time>2026-04-29T18:13:20.103Z</time></trkpt><trkpt lat="45.3528942" lon="8.056565"><ele>243.99999999999997</ele><time>2026-04-29T18:13:21.093Z</time></trkpt><trkpt lat="45.3529905" lon="8.0566367"><ele>243.99999999999997</ele><time>2026-04-29T18:13:22.093Z</time></trkpt><trkpt lat="45.3530852" lon="8.0567059"><ele>244.0</ele><time>2026-04-29T18:13:23.101Z</time></trkpt><trkpt lat="45.3531795" lon="8.0567744"><ele>244.0</ele><time>2026-04-29T18:13:24.097Z</time></trkpt><trkpt lat="45.3532759" lon="8.0568437"><ele>244.5</ele><time>2026-04-29T18:13:25.106Z</time></trkpt><trkpt lat="45.3533747" lon="8.0569155"><ele>245.0</ele><time>2026-04-29T18:13:26.102Z</time></trkpt><trkpt lat="45.3534754" lon="8.0569919"><ele>245.5</ele><time>2026-04-29T18:13:27.098Z</time></trkpt><trkpt lat="45.3535806" lon="8.0570719"><ele>246.0</ele><time>2026-04-29T18:13:28.094Z</time></trkpt><trkpt lat="45.3536833" lon="8.0571468"><ele>246.0</ele><time>2026-04-29T18:13:29.094Z</time></trkpt><trkpt lat="45.3537739" lon="8.0572103"><ele>246.0</ele><time>2026-04-29T18:13:30.108Z</time></trkpt><trkpt lat="45.3538517" lon="8.057266"><ele>246.0</ele><time>2026-04-29T18:13:31.105Z</time></trkpt><trkpt lat="45.3539232" lon="8.0573183"><ele>246.0</ele><time>2026-04-29T18:13:32.101Z</time></trkpt><trkpt lat="45.3539899" lon="8.0573676"><ele>246.0</ele><time>2026-04-29T18:13:33.095Z</time></trkpt><trkpt lat="45.3540602" lon="8.057418"><ele>246.0</ele><time>2026-04-29T18:13:34.098Z</time></trkpt><trkpt lat="45.3541475" lon="8.0574806"><ele>245.8</ele><time>2026-04-29T18:13:35.111Z</time></trkpt><trkpt lat="45.3542451" lon="8.0575507"><ele>245.60000000000002</ele><time>2026-04-29T18:13:36.093Z</time></trkpt><trkpt lat="45.3543435" lon="8.0576227"><ele>245.4</ele><time>2026-04-29T18:13:37.115Z</time></trkpt><trkpt lat="45.3544436" lon="8.0576943"><ele>245.2</ele><time>2026-04-29T18:13:38.088Z</time></trkpt><trkpt lat="45.3545465" lon="8.0577694"><ele>245.0</ele><time>2026-04-29T18:13:39.095Z</time></trkpt><trkpt lat="45.3546533" lon="8.0578473"><ele>245.2</ele><time>2026-04-29T18:13:40.097Z</time></trkpt><trkpt lat="45.3547582" lon="8.0579242"><ele>245.4</ele><time>2026-04-29T18:13:41.101Z</time></trkpt><trkpt lat="45.3548579" lon="8.0579988"><ele>245.60000000000002</ele><time>2026-04-29T18:13:42.103Z</time></trkpt><trkpt lat="45.3549458" lon="8.0580737"><ele>245.8</ele><time>2026-04-29T18:13:43.11Z</time></trkpt><trkpt lat="45.3550421" lon="8.0581643"><ele>246.0</ele><time>2026-04-29T18:13:44.093Z</time></trkpt><trkpt lat="45.3551317" lon="8.0582669"><ele>245.75</ele><time>2026-04-29T18:13:45.091Z</time></trkpt><trkpt lat="45.3552209" lon="8.0583852"><ele>245.5</ele><time>2026-04-29T18:13:46.102Z</time></trkpt><trkpt lat="45.3553093" lon="8.0585215"><ele>245.25</ele><time>2026-04-29T18:13:47.103Z</time></trkpt><trkpt lat="45.3553944" lon="8.0586685"><ele>245.0</ele><time>2026-04-29T18:13:48.09Z</time></trkpt><trkpt lat="45.3554752" lon="8.0588095"><ele>244.8</ele><time>2026-04-29T18:13:49.108Z</time></trkpt><trkpt lat="45.3555493" lon="8.0589396"><ele>244.6</ele><time>2026-04-29T18:13:50.104Z</time></trkpt><trkpt lat="45.3556179" lon="8.0590603"><ele>244.39999999999998</ele><time>2026-04-29T18:13:51.094Z</time></trkpt><trkpt lat="45.3556794" lon="8.0591696"><ele>244.2</ele><time>2026-04-29T18:13:52.091Z</time></trkpt><trkpt lat="45.355736" lon="8.0592683"><ele>244.0</ele><time>2026-04-29T18:13:53.107Z</time></trkpt><trkpt lat="45.3557874" lon="8.0593661"><ele>243.79999999999998</ele><time>2026-04-29T18:13:54.091Z</time></trkpt><trkpt lat="45.3558405" lon="8.0594685"><ele>243.59999999999997</ele><time>2026-04-29T18:13:55.096Z</time></trkpt><trkpt lat="45.3559003" lon="8.0595815"><ele>243.4</ele><time>2026-04-29T18:13:56.103Z</time></trkpt><trkpt lat="45.355968" lon="8.0597089"><ele>243.2</ele><time>2026-04-29T18:13:57.098Z</time></trkpt><trkpt lat="45.3560447" lon="8.0598458"><ele>243.0</ele><time>2026-04-29T18:13:58.103Z</time></trkpt><trkpt lat="45.3561255" lon="8.0599881"><ele>243.25</ele><time>2026-04-29T18:13:59.095Z</time></trkpt><trkpt lat="45.3562097" lon="8.0601358"><ele>243.5</ele><time>2026-04-29T18:14:00.09Z</time></trkpt><trkpt lat="45.3562964" lon="8.0602907"><ele>243.75</ele><time>2026-04-29T18:14:01.112Z</time></trkpt><trkpt lat="45.3563845" lon="8.0604459"><ele>244.0</ele><time>2026-04-29T18:14:02.092Z</time></trkpt><trkpt lat="45.3564691" lon="8.0605906"><ele>244.0</ele><time>2026-04-29T18:14:03.098Z</time></trkpt><trkpt lat="45.3565478" lon="8.0607237"><ele>243.99999999999997</ele><time>2026-04-29T18:14:04.103Z</time></trkpt><trkpt lat="45.3566205" lon="8.0608488"><ele>243.99999999999997</ele><time>2026-04-29T18:14:05.099Z</time></trkpt><trkpt lat="45.3566852" lon="8.0609652"><ele>244.0</ele><time>2026-04-29T18:14:06.111Z</time></trkpt><trkpt lat="45.3567394" lon="8.0610666"><ele>244.0</ele><time>2026-04-29T18:14:07.103Z</time></trkpt><trkpt lat="45.356787" lon="8.0611529"><ele>243.99999999999997</ele><time>2026-04-29T18:14:08.105Z</time></trkpt><trkpt lat="45.3568317" lon="8.0612291"><ele>244.0</ele><time>2026-04-29T18:14:09.1Z</time></trkpt><trkpt lat="45.3568728" lon="8.0613001"><ele>244.0</ele><time>2026-04-29T18:14:10.095Z</time></trkpt><trkpt lat="45.3569163" lon="8.061377"><ele>244.0</ele><time>2026-04-29T18:14:11.094Z</time></trkpt><trkpt lat="45.3569665" lon="8.0614675"><ele>243.99999999999997</ele><time>2026-04-29T18:14:12.092Z</time></trkpt><trkpt lat="45.3570262" lon="8.0615739"><ele>244.0</ele><time>2026-04-29T18:14:13.116Z</time></trkpt><trkpt lat="45.357093" lon="8.0616943"><ele>244.0</ele><time>2026-04-29T18:14:14.093Z</time></trkpt><trkpt lat="45.3571644" lon="8.0618248"><ele>244.0</ele><time>2026-04-29T18:14:15.095Z</time></trkpt><trkpt lat="45.357241" lon="8.0619631"><ele>244.0</ele><time>2026-04-29T18:14:16.1Z</time></trkpt><trkpt lat="45.3573248" lon="8.0621083"><ele>244.0</ele><time>2026-04-29T18:14:17.089Z</time></trkpt><trkpt lat="45.3574118" lon="8.0622609"><ele>244.25</ele><time>2026-04-29T18:14:18.093Z</time></trkpt><trkpt lat="45.3575021" lon="8.0624199"><ele>244.5</ele><time>2026-04-29T18:14:19.091Z</time></trkpt><trkpt lat="45.3575961" lon="8.0625888"><ele>244.75</ele><time>2026-04-29T18:14:20.095Z</time></trkpt><trkpt lat="45.3576892" lon="8.0627568"><ele>245.0</ele><time>2026-04-29T18:14:21.111Z</time></trkpt><trkpt lat="45.3577767" lon="8.0629136"><ele>245.0</ele><time>2026-04-29T18:14:22.101Z</time></trkpt><trkpt lat="45.3578593" lon="8.0630617"><ele>245.0</ele><time>2026-04-29T18:14:23.105Z</time></trkpt><trkpt lat="45.3579402" lon="8.0632043"><ele>245.0</ele><time>2026-04-29T18:14:24.101Z</time></trkpt><trkpt lat="45.3580208" lon="8.0633485"><ele>245.0</ele><time>2026-04-29T18:14:25.096Z</time></trkpt><trkpt lat="45.3581046" lon="8.0634946"><ele>245.0</ele><time>2026-04-29T18:14:26.107Z</time></trkpt><trkpt lat="45.3581896" lon="8.0636462"><ele>245.0</ele><time>2026-04-29T18:14:27.1Z</time></trkpt><trkpt lat="45.358278" lon="8.0638008"><ele>245.0</ele><time>2026-04-29T18:14:28.092Z</time></trkpt><trkpt lat="45.3583684" lon="8.0639598"><ele>245.0</ele><time>2026-04-29T18:14:29.097Z</time></trkpt><trkpt lat="45.3584585" lon="8.0641211"><ele>245.0</ele><time>2026-04-29T18:14:30.092Z</time></trkpt><trkpt lat="45.3585495" lon="8.0642835"><ele>245.0</ele><time>2026-04-29T18:14:31.096Z</time></trkpt><trkpt lat="45.358642" lon="8.0644463"><ele>245.0</ele><time>2026-04-29T18:14:32.095Z</time></trkpt><trkpt lat="45.3587353" lon="8.0646089"><ele>245.0</ele><time>2026-04-29T18:14:33.106Z</time></trkpt><trkpt lat="45.3588274" lon="8.0647726"><ele>245.0</ele><time>2026-04-29T18:14:34.096Z</time></trkpt><trkpt lat="45.3589201" lon="8.0649375"><ele>245.0</ele><time>2026-04-29T18:14:35.109Z</time></trkpt><trkpt lat="45.3590141" lon="8.0651036"><ele>245.0</ele><time>2026-04-29T18:14:36.105Z</time></trkpt><trkpt lat="45.3591098" lon="8.0652709"><ele>245.0</ele><time>2026-04-29T18:14:37.097Z</time></trkpt><trkpt lat="45.3592076" lon="8.0654392"><ele>245.0</ele><time>2026-04-29T18:14:38.107Z</time></trkpt><trkpt lat="45.3593061" lon="8.0656083"><ele>245.0</ele><time>2026-04-29T18:14:39.107Z</time></trkpt><trkpt lat="45.3594036" lon="8.0657774"><ele>244.75</ele><time>2026-04-29T18:14:40.095Z</time></trkpt><trkpt lat="45.3594973" lon="8.0659417"><ele>244.5</ele><time>2026-04-29T18:14:41.107Z</time></trkpt><trkpt lat="45.3595869" lon="8.0661003"><ele>244.25</ele><time>2026-04-29T18:14:42.095Z</time></trkpt><trkpt lat="45.3596728" lon="8.066252"><ele>244.0</ele><time>2026-04-29T18:14:43.11Z</time></trkpt><trkpt lat="45.3597574" lon="8.0663997"><ele>244.0</ele><time>2026-04-29T18:14:44.102Z</time></trkpt><trkpt lat="45.3598423" lon="8.066549"><ele>244.0</ele><time>2026-04-29T18:14:45.102Z</time></trkpt><trkpt lat="45.3599294" lon="8.0667017"><ele>244.0</ele><time>2026-04-29T18:14:46.111Z</time></trkpt><trkpt lat="45.3600188" lon="8.0668557"><ele>244.0</ele><time>2026-04-29T18:14:47.105Z</time></trkpt><trkpt lat="45.3601091" lon="8.0670127"><ele>244.0</ele><time>2026-04-29T18:14:48.094Z</time></trkpt><trkpt lat="45.3601999" lon="8.0671717"><ele>244.0</ele><time>2026-04-29T18:14:49.112Z</time></trkpt><trkpt lat="45.3602925" lon="8.0673315"><ele>244.0</ele><time>2026-04-29T18:14:50.105Z</time></trkpt><trkpt lat="45.3603859" lon="8.0674941"><ele>244.0</ele><time>2026-04-29T18:14:51.096Z</time></trkpt><trkpt lat="45.3604789" lon="8.0676591"><ele>244.5</ele><time>2026-04-29T18:14:52.094Z</time></trkpt><trkpt lat="45.3605681" lon="8.0678205"><ele>245.0</ele><time>2026-04-29T18:14:53.11Z</time></trkpt><trkpt lat="45.3606545" lon="8.0679731"><ele>245.5</ele><time>2026-04-29T18:14:54.093Z</time></trkpt><trkpt lat="45.3607357" lon="8.0681177"><ele>246.0</ele><time>2026-04-29T18:14:55.106Z</time></trkpt><trkpt lat="45.3608153" lon="8.0682594"><ele>245.75</ele><time>2026-04-29T18:14:56.103Z</time></trkpt><trkpt lat="45.360893" lon="8.0683983"><ele>245.5</ele><time>2026-04-29T18:14:57.104Z</time></trkpt><trkpt lat="45.3609687" lon="8.0685394"><ele>245.25</ele><time>2026-04-29T18:14:58.108Z</time></trkpt><trkpt lat="45.3610425" lon="8.0686849"><ele>245.0</ele><time>2026-04-29T18:14:59.104Z</time></trkpt><trkpt lat="45.3611124" lon="8.0688405"><ele>245.0</ele><time>2026-04-29T18:15:00.105Z</time></trkpt><trkpt lat="45.3611791" lon="8.0690081"><ele>245.0</ele><time>2026-04-29T18:15:01.095Z</time></trkpt><trkpt lat="45.3612409" lon="8.0691886"><ele>245.0</ele><time>2026-04-29T18:15:02.11Z</time></trkpt><trkpt lat="45.3612961" lon="8.0693797"><ele>245.0</ele><time>2026-04-29T18:15:03.11Z</time></trkpt><trkpt lat="45.3613441" lon="8.0695788"><ele>245.25</ele><time>2026-04-29T18:15:04.095Z</time></trkpt><trkpt lat="45.3613834" lon="8.0697812"><ele>245.5</ele><time>2026-04-29T18:15:05.096Z</time></trkpt><trkpt lat="45.3614144" lon="8.0699891"><ele>245.75</ele><time>2026-04-29T18:15:06.102Z</time></trkpt><trkpt lat="45.3614371" lon="8.0701995"><ele>246.0</ele><time>2026-04-29T18:15:07.105Z</time></trkpt><trkpt lat="45.3614508" lon="8.0704171"><ele>246.0</ele><time>2026-04-29T18:15:08.109Z</time></trkpt><trkpt lat="45.3614533" lon="8.0706387"><ele>246.0</ele><time>2026-04-29T18:15:09.102Z</time></trkpt><trkpt lat="45.361449" lon="8.0708669"><ele>246.0</ele><time>2026-04-29T18:15:10.104Z</time></trkpt><trkpt lat="45.3614417" lon="8.0710976"><ele>246.0</ele><time>2026-04-29T18:15:11.107Z</time></trkpt><trkpt lat="45.3614339" lon="8.0713183"><ele>246.0</ele><time>2026-04-29T18:15:12.086Z</time></trkpt><trkpt lat="45.361429" lon="8.0715242"><ele>246.0</ele><time>2026-04-29T18:15:13.108Z</time></trkpt><trkpt lat="45.3614275" lon="8.0717171"><ele>246.0</ele><time>2026-04-29T18:15:14.104Z</time></trkpt><trkpt lat="45.361425" lon="8.0719034"><ele>246.0</ele><time>2026-04-29T18:15:15.098Z</time></trkpt><trkpt lat="45.3614202" lon="8.0720881"><ele>246.0</ele><time>2026-04-29T18:15:16.106Z</time></trkpt><trkpt lat="45.3614152" lon="8.0722763"><ele>246.0</ele><time>2026-04-29T18:15:17.107Z</time></trkpt><trkpt lat="45.3614103" lon="8.0724718"><ele>246.0</ele><time>2026-04-29T18:15:18.097Z</time></trkpt><trkpt lat="45.3614062" lon="8.0726755"><ele>245.25</ele><time>2026-04-29T18:15:19.104Z</time></trkpt><trkpt lat="45.361402" lon="8.0728758"><ele>244.5</ele><time>2026-04-29T18:15:20.103Z</time></trkpt><trkpt lat="45.3613991" lon="8.0730714"><ele>243.75</ele><time>2026-04-29T18:15:21.102Z</time></trkpt><trkpt lat="45.3613943" lon="8.0732656"><ele>243.0</ele><time>2026-04-29T18:15:22.109Z</time></trkpt><trkpt lat="45.3613889" lon="8.0734613"><ele>243.0</ele><time>2026-04-29T18:15:23.111Z</time></trkpt><trkpt lat="45.3613838" lon="8.0736629"><ele>243.0</ele><time>2026-04-29T18:15:24.105Z</time></trkpt><trkpt lat="45.3613785" lon="8.0738698"><ele>243.0</ele><time>2026-04-29T18:15:25.11Z</time></trkpt><trkpt lat="45.3613734" lon="8.0740811"><ele>243.0</ele><time>2026-04-29T18:15:26.095Z</time></trkpt><trkpt lat="45.3613679" lon="8.0742934"><ele>242.75</ele><time>2026-04-29T18:15:27.11Z</time></trkpt><trkpt lat="45.3613646" lon="8.0745016"><ele>242.5</ele><time>2026-04-29T18:15:28.105Z</time></trkpt><trkpt lat="45.3613615" lon="8.0747004"><ele>242.25</ele><time>2026-04-29T18:15:29.094Z</time></trkpt><trkpt lat="45.3613567" lon="8.0748927"><ele>242.0</ele><time>2026-04-29T18:15:30.112Z</time></trkpt><trkpt lat="45.3613521" lon="8.0750836"><ele>242.0</ele><time>2026-04-29T18:15:31.11Z</time></trkpt><trkpt lat="45.3613475" lon="8.0752766"><ele>242.0</ele><time>2026-04-29T18:15:32.108Z</time></trkpt><trkpt lat="45.3613433" lon="8.0754725"><ele>242.0</ele><time>2026-04-29T18:15:33.102Z</time></trkpt><trkpt lat="45.3613394" lon="8.0756736"><ele>242.0</ele><time>2026-04-29T18:15:34.103Z</time></trkpt><trkpt lat="45.3613352" lon="8.0758745"><ele>242.0</ele><time>2026-04-29T18:15:35.113Z</time></trkpt><trkpt lat="45.3613312" lon="8.0760674"><ele>242.0</ele><time>2026-04-29T18:15:36.106Z</time></trkpt><trkpt lat="45.3613268" lon="8.0762545"><ele>242.0</ele><time>2026-04-29T18:15:37.108Z</time></trkpt><trkpt lat="45.3613218" lon="8.0764435"><ele>242.0</ele><time>2026-04-29T18:15:38.106Z</time></trkpt><trkpt lat="45.3613172" lon="8.0766327"><ele>241.5</ele><time>2026-04-29T18:15:39.098Z</time></trkpt><trkpt lat="45.3613146" lon="8.0768228"><ele>241.0</ele><time>2026-04-29T18:15:40.11Z</time></trkpt><trkpt lat="45.3613178" lon="8.0770097"><ele>240.5</ele><time>2026-04-29T18:15:41.094Z</time></trkpt><trkpt lat="45.3613251" lon="8.07719"><ele>240.0</ele><time>2026-04-29T18:15:42.093Z</time></trkpt><trkpt lat="45.3613379" lon="8.0773681"><ele>239.75</ele><time>2026-04-29T18:15:43.121Z</time></trkpt><trkpt lat="45.3613603" lon="8.0775458"><ele>239.5</ele><time>2026-04-29T18:15:44.106Z</time></trkpt><trkpt lat="45.3613933" lon="8.0777209"><ele>239.25</ele><time>2026-04-29T18:15:45.111Z</time></trkpt><trkpt lat="45.361436" lon="8.0778968"><ele>239.0</ele><time>2026-04-29T18:15:46.102Z</time></trkpt><trkpt lat="45.3614887" lon="8.0780763"><ele>239.0</ele><time>2026-04-29T18:15:47.106Z</time></trkpt><trkpt lat="45.3615526" lon="8.0782604"><ele>239.0</ele><time>2026-04-29T18:15:48.111Z</time></trkpt><trkpt lat="45.3616235" lon="8.078437"><ele>239.0</ele><time>2026-04-29T18:15:49.11Z</time></trkpt><trkpt lat="45.3616972" lon="8.0786052"><ele>239.0</ele><time>2026-04-29T18:15:50.092Z</time></trkpt><trkpt lat="45.3617749" lon="8.0787607"><ele>239.0</ele><time>2026-04-29T18:15:51.108Z</time></trkpt><trkpt lat="45.3618587" lon="8.0789078"><ele>239.0</ele><time>2026-04-29T18:15:52.11Z</time></trkpt><trkpt lat="45.3619479" lon="8.0790491"><ele>239.0</ele><time>2026-04-29T18:15:53.108Z</time></trkpt><trkpt lat="45.362038" lon="8.0791795"><ele>239.0</ele><time>2026-04-29T18:15:54.103Z</time></trkpt><trkpt lat="45.36213" lon="8.0793073"><ele>239.5</ele><time>2026-04-29T18:15:55.11Z</time></trkpt><trkpt lat="45.3622248" lon="8.0794353"><ele>240.0</ele><time>2026-04-29T18:15:56.106Z</time></trkpt><trkpt lat="45.3623185" lon="8.0795637"><ele>240.5</ele><time>2026-04-29T18:15:57.094Z</time></trkpt><trkpt lat="45.3624139" lon="8.0796918"><ele>241.0</ele><time>2026-04-29T18:15:58.107Z</time></trkpt><trkpt lat="45.3625123" lon="8.0798191"><ele>240.5</ele><time>2026-04-29T18:15:59.101Z</time></trkpt><trkpt lat="45.362612" lon="8.0799481"><ele>240.0</ele><time>2026-04-29T18:16:00.105Z</time></trkpt><trkpt lat="45.3627109" lon="8.0800774"><ele>239.5</ele><time>2026-04-29T18:16:01.101Z</time></trkpt><trkpt lat="45.3628084" lon="8.0802079"><ele>239.0</ele><time>2026-04-29T18:16:02.096Z</time></trkpt><trkpt lat="45.3629044" lon="8.0803398"><ele>239.0</ele><time>2026-04-29T18:16:03.094Z</time></trkpt><trkpt lat="45.3630024" lon="8.0804724"><ele>239.0</ele><time>2026-04-29T18:16:04.107Z</time></trkpt><trkpt lat="45.3631032" lon="8.0806064"><ele>239.0</ele><time>2026-04-29T18:16:05.092Z</time></trkpt><trkpt lat="45.363205" lon="8.0807409"><ele>239.0</ele><time>2026-04-29T18:16:06.121Z</time></trkpt><trkpt lat="45.3633044" lon="8.0808766"><ele>238.75</ele><time>2026-04-29T18:16:07.106Z</time></trkpt><trkpt lat="45.3634015" lon="8.0810108"><ele>238.5</ele><time>2026-04-29T18:16:08.11Z</time></trkpt><trkpt lat="45.3634998" lon="8.0811433"><ele>238.25</ele><time>2026-04-29T18:16:09.106Z</time></trkpt><trkpt lat="45.3635973" lon="8.081273"><ele>238.0</ele><time>2026-04-29T18:16:10.109Z</time></trkpt><trkpt lat="45.3636931" lon="8.0814025"><ele>238.0</ele><time>2026-04-29T18:16:11.101Z</time></trkpt><trkpt lat="45.3637906" lon="8.0815343"><ele>238.0</ele><time>2026-04-29T18:16:12.103Z</time></trkpt><trkpt lat="45.3638899" lon="8.0816637"><ele>238.0</ele><time>2026-04-29T18:16:13.106Z</time></trkpt><trkpt lat="45.363989" lon="8.0817912"><ele>238.0</ele><time>2026-04-29T18:16:14.095Z</time></trkpt><trkpt lat="45.3640852" lon="8.0819208"><ele>238.75</ele><time>2026-04-29T18:16:15.112Z</time></trkpt><trkpt lat="45.364179" lon="8.0820462"><ele>239.5</ele><time>2026-04-29T18:16:16.094Z</time></trkpt><trkpt lat="45.3642679" lon="8.0821656"><ele>240.25</ele><time>2026-04-29T18:16:17.104Z</time></trkpt><trkpt lat="45.3643537" lon="8.0822823"><ele>241.0</ele><time>2026-04-29T18:16:18.105Z</time></trkpt><trkpt lat="45.3644408" lon="8.082398"><ele>240.75</ele><time>2026-04-29T18:16:19.098Z</time></trkpt><trkpt lat="45.3645319" lon="8.0825126"><ele>240.5</ele><time>2026-04-29T18:16:20.107Z</time></trkpt><trkpt lat="45.3646236" lon="8.0826179"><ele>240.25</ele><time>2026-04-29T18:16:21.102Z</time></trkpt><trkpt lat="45.3647127" lon="8.0827116"><ele>240.0</ele><time>2026-04-29T18:16:22.095Z</time></trkpt><trkpt lat="45.3648001" lon="8.08279"><ele>240.0</ele><time>2026-04-29T18:16:23.112Z</time></trkpt><trkpt lat="45.364884" lon="8.0828542"><ele>240.0</ele><time>2026-04-29T18:16:24.101Z</time></trkpt><trkpt lat="45.3649621" lon="8.0829134"><ele>240.0</ele><time>2026-04-29T18:16:25.103Z</time></trkpt><trkpt lat="45.3650338" lon="8.0829719"><ele>240.0</ele><time>2026-04-29T18:16:26.105Z</time></trkpt><trkpt lat="45.365103" lon="8.0830484"><ele>240.0</ele><time>2026-04-29T18:16:27.106Z</time></trkpt><trkpt lat="45.3651704" lon="8.0831515"><ele>239.6</ele><time>2026-04-29T18:16:28.103Z</time></trkpt><trkpt lat="45.3652348" lon="8.0832689"><ele>239.2</ele><time>2026-04-29T18:16:29.106Z</time></trkpt><trkpt lat="45.3653008" lon="8.0833671"><ele>238.8</ele><time>2026-04-29T18:16:30.109Z</time></trkpt><trkpt lat="45.3653778" lon="8.0834209"><ele>238.4</ele><time>2026-04-29T18:16:31.093Z</time></trkpt><trkpt lat="45.3654644" lon="8.0834167"><ele>238.0</ele><time>2026-04-29T18:16:32.106Z</time></trkpt><trkpt lat="45.3655605" lon="8.0833571"><ele>238.0</ele><time>2026-04-29T18:16:33.098Z</time></trkpt><trkpt lat="45.3656778" lon="8.0832949"><ele>238.0</ele><time>2026-04-29T18:16:34.112Z</time></trkpt><trkpt lat="45.365814" lon="8.0832479"><ele>238.0</ele><time>2026-04-29T18:16:35.108Z</time></trkpt><trkpt lat="45.3659659" lon="8.0832234"><ele>238.0</ele><time>2026-04-29T18:16:36.106Z</time></trkpt><trkpt lat="45.3661374" lon="8.0831994"><ele>239.0</ele><time>2026-04-29T18:16:37.113Z</time></trkpt><trkpt lat="45.3663217" lon="8.0831666"><ele>240.0</ele><time>2026-04-29T18:16:38.104Z</time></trkpt><trkpt lat="45.3665132" lon="8.0831179"><ele>241.0</ele><time>2026-04-29T18:16:39.108Z</time></trkpt><trkpt lat="45.3667093" lon="8.0830472"><ele>241.0</ele><time>2026-04-29T18:16:40.11Z</time></trkpt><trkpt lat="45.366907" lon="8.0829606"><ele>241.0</ele><time>2026-04-29T18:16:41.105Z</time></trkpt><trkpt lat="45.3670946" lon="8.0828523"><ele>241.0</ele><time>2026-04-29T18:16:42.104Z</time></trkpt><trkpt lat="45.3672727" lon="8.0827159"><ele>241.0</ele><time>2026-04-29T18:16:43.109Z</time></trkpt><trkpt lat="45.3674377" lon="8.0825514"><ele>241.0</ele><time>2026-04-29T18:16:44.108Z</time></trkpt><trkpt lat="45.3675922" lon="8.0823688"><ele>241.0</ele><time>2026-04-29T18:16:45.095Z</time></trkpt><trkpt lat="45.3677398" lon="8.0821772"><ele>241.66666666666666</ele><time>2026-04-29T18:16:46.107Z</time></trkpt><trkpt lat="45.3678849" lon="8.0819836"><ele>242.33333333333331</ele><time>2026-04-29T18:16:47.102Z</time></trkpt><trkpt lat="45.3680321" lon="8.081787"><ele>243.0</ele><time>2026-04-29T18:16:48.106Z</time></trkpt><trkpt lat="45.3681811" lon="8.0815921"><ele>243.0</ele><time>2026-04-29T18:16:49.104Z</time></trkpt><trkpt lat="45.3683345" lon="8.0814033"><ele>243.0</ele><time>2026-04-29T18:16:50.103Z</time></trkpt><trkpt lat="45.3684905" lon="8.0812147"><ele>243.0</ele><time>2026-04-29T18:16:51.103Z</time></trkpt><trkpt lat="45.3686473" lon="8.0810264"><ele>243.0</ele><time>2026-04-29T18:16:52.096Z</time></trkpt><trkpt lat="45.3688042" lon="8.0808359"><ele>243.0</ele><time>2026-04-29T18:16:53.104Z</time></trkpt><trkpt lat="45.3689602" lon="8.0806424"><ele>243.0</ele><time>2026-04-29T18:16:54.107Z</time></trkpt><trkpt lat="45.3691159" lon="8.0804473"><ele>244.33333333333331</ele><time>2026-04-29T18:16:55.092Z</time></trkpt><trkpt lat="45.3692742" lon="8.0802527"><ele>245.66666666666666</ele><time>2026-04-29T18:16:56.106Z</time></trkpt><trkpt lat="45.3694345" lon="8.0800595"><ele>247.0</ele><time>2026-04-29T18:16:57.105Z</time></trkpt><trkpt lat="45.3695975" lon="8.0798711"><ele>247.66666666666666</ele><time>2026-04-29T18:16:58.107Z</time></trkpt><trkpt lat="45.3697662" lon="8.0796886"><ele>248.33333333333331</ele><time>2026-04-29T18:16:59.112Z</time></trkpt><trkpt lat="45.3699448" lon="8.0795146"><ele>249.0</ele><time>2026-04-29T18:17:00.106Z</time></trkpt><trkpt lat="45.3701363" lon="8.0793468"><ele>249.0</ele><time>2026-04-29T18:17:01.106Z</time></trkpt><trkpt lat="45.3703368" lon="8.0791808"><ele>249.0</ele><time>2026-04-29T18:17:02.108Z</time></trkpt><trkpt lat="45.3705333" lon="8.0790208"><ele>249.66666666666669</ele><time>2026-04-29T18:17:03.111Z</time></trkpt><trkpt lat="45.3707188" lon="8.0788719"><ele>250.33333333333334</ele><time>2026-04-29T18:17:04.107Z</time></trkpt><trkpt lat="45.37089" lon="8.0787328"><ele>251.0</ele><time>2026-04-29T18:17:05.106Z</time></trkpt><trkpt lat="45.3710479" lon="8.0786033"><ele>251.0</ele><time>2026-04-29T18:17:06.097Z</time></trkpt><trkpt lat="45.3711922" lon="8.0784785"><ele>251.0</ele><time>2026-04-29T18:17:07.11Z</time></trkpt><trkpt lat="45.3713253" lon="8.0783634"><ele>251.0</ele><time>2026-04-29T18:17:08.102Z</time></trkpt><trkpt lat="45.3714495" lon="8.0782603"><ele>251.5</ele><time>2026-04-29T18:17:09.108Z</time></trkpt><trkpt lat="45.3715654" lon="8.0781719"><ele>252.0</ele><time>2026-04-29T18:17:10.106Z</time></trkpt><trkpt lat="45.3716742" lon="8.0780946"><ele>252.5</ele><time>2026-04-29T18:17:11.106Z</time></trkpt><trkpt lat="45.3717886" lon="8.0780274"><ele>253.0</ele><time>2026-04-29T18:17:12.103Z</time></trkpt><trkpt lat="45.3719148" lon="8.0779772"><ele>253.0</ele><time>2026-04-29T18:17:13.096Z</time></trkpt><trkpt lat="45.3720524" lon="8.0779497"><ele>253.0</ele><time>2026-04-29T18:17:14.109Z</time></trkpt><trkpt lat="45.3722075" lon="8.0779548"><ele>253.0</ele><time>2026-04-29T18:17:15.098Z</time></trkpt><trkpt lat="45.3723764" lon="8.0779902"><ele>253.33333333333331</ele><time>2026-04-29T18:17:16.109Z</time></trkpt><trkpt lat="45.3725468" lon="8.0780467"><ele>253.66666666666669</ele><time>2026-04-29T18:17:17.113Z</time></trkpt><trkpt lat="45.3727107" lon="8.0781192"><ele>254.0</ele><time>2026-04-29T18:17:18.097Z</time></trkpt><trkpt lat="45.3728618" lon="8.0781978"><ele>254.0</ele><time>2026-04-29T18:17:19.094Z</time></trkpt><trkpt lat="45.3730068" lon="8.078276"><ele>254.0</ele><time>2026-04-29T18:17:20.094Z</time></trkpt><trkpt lat="45.3731286" lon="8.0783441"><ele>254.0</ele><time>2026-04-29T18:17:21.109Z</time></trkpt><trkpt lat="45.3732367" lon="8.0784065"><ele>254.0</ele><time>2026-04-29T18:17:22.101Z</time></trkpt><trkpt lat="45.3733315" lon="8.0784694"><ele>254.0</ele><time>2026-04-29T18:17:23.12Z</time></trkpt><trkpt lat="45.373399" lon="8.0785369"><ele>254.0</ele><time>2026-04-29T18:17:24.103Z</time></trkpt><trkpt lat="45.3734574" lon="8.0786618"><ele>254.0</ele><time>2026-04-29T18:17:26.098Z</time></trkpt><trkpt lat="45.3734854" lon="8.0787533"><ele>254.0</ele><time>2026-04-29T18:17:28.103Z</time></trkpt><trkpt lat="45.3735268" lon="8.0788413"><ele>254.0</ele><time>2026-04-29T18:17:37.1Z</time></trkpt></trkseg></trk></gpx>